[[{"header":{"parameterUnit":"m.s-1","parameterCategory":1,"la1":31.0,"la2":29.5877,"lo1":-88.7671,"lo2":-86.6584,"dy":0.0162,"dx":0.0185,"nx":115,"ny":88,"refTime":"2023-06-24T00:00:00:Z","depth":0,"parameterNumber":2,"parameterNumberName":"U-component_of_WINDS"},"data":[0.0,0.0,0.0,0.0,0.0,0.0,0.0,0.0,0.0,0.0,0.0,0.0,0.0,0.0,0.0,0.0,0.0,0.0,0.0,0.0,0.0,0.0,0.0,0.0,0.0,0.0,0.0,0.0,0.0,0.0,0.0,0.0,0.0,0.0,0.0,0.0,0.0,0.0,0.0,0.0,0.0,0.0,0.0,0.0,0.0,0.0,0.0,0.0,0.0,0.0,0.0,0.0,0.0,0.0,0.0,0.0,0.0,0.0,0.0,0.0,0.0,0.0,0.0,0.0,0.0,0.0,0.0,0.0,0.0,0.0,0.0,0.0,0.0,0.0,0.0,0.0,0.0,0.0,0.0,0.0,0.0,0.0,0.0,0.0,0.0,0.0,0.0,0.0,0.0,0.0,0.0,0.0,0.0,0.0,0.0,0.0,0.0,0.0,0.0,0.0,0.0,0.0,0.0,0.0,0.0,0.0,0.0,0.0,0.0,0.0,0.0,0.0,0.0,0.0,0.0,0.0,0.0,0.0,0.0,0.0,0.0,0.0,0.0,0.0,0.0,0.0,0.0,0.0,0.0,0.0,0.0,0.0,0.0,0.0,0.0,0.0,0.0,0.0,0.0,0.0,0.0,0.0,0.0,0.0,0.0,0.0,0.0,0.0,0.0,0.0,0.0,0.0,0.0,0.0,0.0,0.0,0.0,0.0,0.0,0.0,0.0,0.0,0.0,0.0,0.0,0.0,0.0,0.0,0.0,0.0,0.0,0.0,0.0,0.0,0.0,0.0,0.0,0.0,0.0,0.0,0.0,0.0,0.0,0.0,0.0,0.0,0.0,0.0,0.0,0.0,0.0,0.0,0.0,0.0,0.0,0.0,0.0,0.0,0.0,0.0,0.0,0.0,0.0,0.0,0.0,0.0,0.0,0.0,0.0,0.0,0.0,0.0,0.0,0.0,0.0,0.0,0.0,0.0,0.0,0.0,0.0,0.0,0.0,0.0,0.0,0.0,0.0,0.0,0.0,0.0,0.0,0.0,0.0,0.0,0.0,0.0,0.0,0.0,0.0,0.0,0.0,0.0,0.0,0.0,0.0,0.0,0.0,0.0,0.0,0.0,0.0,0.0,0.0,0.0,0.0,0.0,0.0,0.0,0.0,0.0,0.0,0.0,0.0,0.0,0.0,0.0,0.0,0.0,0.0,0.0,0.0,0.0,0.0,0.0,0.0,0.0,0.0,0.0,0.0,0.0,0.0,0.0,0.0,0.0,0.0,0.0,0.0,0.0,0.0,0.0,0.0,0.0,0.0,0.0,0.0,0.0,0.0,0.0,0.0,0.0,0.0,0.0,0.0,0.0,0.0,0.0,0.0,0.0,0.0,0.0,0.0,0.0,0.0,0.0,0.0,0.0,0.0,0.0,0.0,0.0,0.0,0.0,0.0,0.0,0.0,0.0,0.0,0.0,0.0,0.0,0.0,0.0,0.0,0.0,0.0,0.0,0.0,0.0,0.0,0.0,0.0,0.0,0.0,0.0,0.0,0.0,0.0,0.0,0.0,0.0,0.0,0.0,0.0,0.0,0.0,0.0,0.0,0.0,0.0,0.0,0.0,0.0,0.0,0.0,0.0,0.0,0.0,0.0,0.0,0.0,0.0,0.0,0.0,0.0,0.0,0.0,0.0,0.0,0.0,0.0,0.0,0.0,0.0,0.0,0.0,0.0,0.0,0.0,0.0,0.0,0.0,0.0,0.0,0.0,0.0,0.0,0.0,0.0,0.0,0.0,0.0,0.0,0.0,0.0,0.0,0.0,0.0,0.0,0.0,0.0,0.0,0.0,0.0,0.0,0.0,0.0,0.0,0.0,0.0,0.0,0.0,0.0,0.0,0.0,0.0,0.0,0.0,0.0,0.0,0.0,0.0,0.0,0.0,0.0,0.0,0.0,0.0,0.0,0.0,0.0,0.0,0.0,0.0,0.0,0.0,0.0,0.0,0.0,0.0,0.0,0.0,0.0,0.0,0.0,0.0,0.0,0.0,0.0,0.0,0.0,0.0,0.0,0.0,0.0,0.0,0.0,0.0,0.0,0.0,0.0,0.0,0.0,0.0,0.0,0.0,0.0,0.0,0.0,0.0,0.0,0.0,0.0,0.0,0.0,0.0,0.0,0.0,0.0,0.0,0.0,0.0,0.0,0.0,0.0,0.0,0.0,0.0,0.0,0.0,0.0,0.0,0.0,0.0,0.0,0.0,0.0,0.0,0.0,0.0,0.0,0.0,0.0,0.0,0.0,0.0,0.0,0.0,0.0,0.0,0.0,0.0,0.0,0.0,0.0,0.0,0.0,0.0,0.0,0.0,0.0,0.0,0.0,0.0,0.0,0.0,0.0,0.0,0.0,0.0,0.0,0.0,0.0,0.0,0.0,0.0,0.0,0.0,0.0,0.0,0.0,0.0,0.0,0.0,0.0,0.0,0.0,0.0,0.0,0.0,0.0,0.0,0.0,0.0,0.0,0.0,0.0,0.0,0.0,0.0,0.0,0.0,0.0,0.0,0.0,0.0,0.0,0.0,0.0,0.0,0.0,0.0,0.0,0.0,0.0,0.0,0.0,0.0,0.0,0.0,0.0,0.0,0.0,0.0,0.0,0.0,0.0,0.0,0.0,0.0,0.0,0.0,0.0,0.0,0.0,0.0,0.0,0.0,0.0,0.0,0.0,0.0,0.0,0.0,0.0,0.0,0.0,0.0,0.0,0.0,0.0,0.0,0.0,0.0,0.0,0.0,0.0,0.0,0.0,0.0,0.0,0.0,0.0,0.0,0.0,0.0,0.0,0.0,0.0,0.0,0.0,0.0,0.0,0.0,0.0,0.0,0.0,0.0,0.0,0.0,0.0,0.0,0.0,0.0,0.0,0.0,0.0,0.0,0.0,0.0,0.0,0.0,0.0,0.0,0.0,0.0,0.0,0.0,0.0,0.0,0.0,0.0,0.0,0.0,0.0,0.0,0.0,0.0,0.0,0.0,0.0,0.0,0.0,0.0,0.0,0.0,0.0,0.0,0.0,0.0,0.0,0.0,0.0,0.0,0.0,0.0,0.0,0.0,0.0,0.0,0.0,0.0,0.0,0.0,0.0,0.0,0.0,0.0,0.0,0.0,0.0,0.0,0.0,0.0,0.0,0.0,0.0,0.0,0.0,0.0,0.0,0.0,0.0,0.0,0.0,0.0,0.0,0.0,0.0,0.0,0.0,0.0,0.0,0.0,0.0,0.0,0.0,0.0,0.0,0.0,0.0,0.0,0.0,0.0,0.0,0.0,0.0,0.0,0.0,0.0,0.0,0.0,0.0,0.0,0.0,0.0,0.0,0.0,0.0,0.0,0.0,0.0,0.0,0.0,0.0,0.0,0.0,0.0,0.0,0.0,0.0,0.0,0.0,0.0,0.0,0.0,0.0,0.0,0.0,0.0,0.0,0.0,0.0,0.0,0.0,0.0,0.0,0.0,0.0,0.0,0.0,0.0,0.0,0.0,0.0,0.0,0.0,0.0,0.0,0.0,0.0,0.0,0.0,0.0,0.0,0.0,0.0,0.0,0.0,0.0,0.0,0.0,0.0,0.0,0.0,0.0,0.0,0.0,0.0,0.0,0.0,0.0,0.0,0.0,0.0,0.0,0.0,0.0,0.0,0.0,0.0,0.0,0.0,0.0,0.0,0.0,0.0,0.0,0.0,0.0,0.0,0.0,0.0,0.0,0.0,0.0,0.0,0.0,0.0,0.0,0.0,0.0,0.0,0.0,0.0,0.0,0.0,0.0,0.0,0.0,0.0,0.0,0.0,0.0,0.0,0.0,0.0,0.0,0.0,0.0,0.0,0.0,0.0,0.0,0.0,0.0,0.0,0.0,0.0,0.0,0.0,0.0,0.0,0.0,0.0,0.0,0.0,0.0,0.0,0.0,0.0,0.0,0.0,0.0,0.0,0.0,0.0,0.0,0.0,0.0,0.0,0.0,0.0,0.0,0.0,0.0,0.0,0.0,0.0,0.0,0.0,0.0,0.0,0.0,0.0,0.0,0.0,0.0,0.0,0.0,0.0,0.0,0.0,0.0,0.0,0.0,0.0,0.0,0.0,0.0,0.0,0.0,0.0,0.0,0.0,0.0,0.0,0.0,0.0,0.0,0.0,0.0,0.0,0.0,0.0,0.0,0.0,0.0,0.0,0.0,0.0,0.0,0.0,0.0,0.0,0.0,0.0,0.0,0.0,0.0,0.0,0.0,0.0,0.0,0.0,0.0,0.0,-0.0336,0.0,0.0,0.0,0.0,0.0,0.0,0.0,0.0,0.0,0.0,0.0,0.0,0.0,0.0,0.0,0.0,0.0,0.0,0.0,0.0,0.0,0.0,0.0,0.0,0.0,0.0,0.0,0.0,0.0,0.0,0.0,0.0,0.0,0.0,0.0,0.0,0.0,0.0,0.0,0.0,0.0,0.0,0.0,0.0,0.0,0.0,0.0,0.0,0.0,0.0,0.0,0.0,0.0,0.0,0.0,0.0,0.0,0.0,0.0,0.0,0.0,0.0,0.0,0.0,0.0,0.0,0.0,0.0,0.0,0.0,0.0,0.0,0.0,0.0,0.0,0.0,0.0,0.0,0.0,0.0,0.0,0.0,0.0,0.0,0.0,0.0,0.0,0.0,0.0,0.0,0.0,0.0,0.0,0.0,0.0,0.0,0.0,0.0,0.0,0.0,0.0,0.0,0.0,0.0,0.0,0.0,0.0,0.0,0.0,0.0,-0.1795,-0.1907,-0.1907,-0.1795,-0.1683,0.0,0.0,0.0,0.0,0.0,0.0,0.0,0.0,0.0,0.0,0.0,0.0,0.0,0.0,0.0,0.0,0.0,0.0,0.0,0.0,0.0,0.0,0.0,0.0,0.0,0.0,0.0,0.0,0.0,0.0,0.0,0.0,0.0,0.0,0.0,0.0,0.0,0.0,0.0,0.0,0.0,0.0,0.0,0.0,0.0,0.0,0.0,0.0,0.0,0.0,0.0,0.0,0.0,0.0,0.0,0.0,0.0,0.0,0.0,0.0,0.0,0.0,0.0,0.0,0.0,0.0,0.0,0.0,0.0,0.0,0.0,0.0,0.0,0.0,0.0,0.0,0.0,0.0,0.0,0.0,0.0,0.0,0.0,0.0,0.0,0.0,0.0,0.0,0.0,0.0,0.0,0.0,0.0,0.0,0.0,0.0,0.0,0.0,0.0,0.0,0.0,0.0,0.0,0.0,0.0,0.0,0.0,0.0,0.0,0.0,0.0,0.0,-0.2693,-0.2693,-0.2693,0.0,0.0,0.0,0.0,0.0,0.0,0.0,0.0,0.0,0.0,0.0,0.0,0.0,0.0,0.0,0.0,0.0,0.0,0.0,0.0,0.0,0.0,0.0,0.0,0.0,0.0,0.0,0.0,0.0,0.0,0.0,0.0,0.0,0.0,0.0,0.0,0.0,0.0,0.0,0.0,0.0,0.0,0.0,0.0,0.0,0.0,0.0,0.0,0.0,0.0,0.0,0.0,0.0,0.0,0.0,0.0,0.0,0.0,0.0,0.0,0.0,0.0,0.0,0.0,0.0,0.0,0.0,0.0,0.0,0.0,0.0,0.0,0.0,0.0,0.0,0.0,0.0,0.0,0.0,0.0,0.0,0.0,0.0,0.0,0.0,0.0,0.0,0.0,0.0,0.0,0.0,0.0,0.0,0.0,0.0,0.0,0.0,0.0,0.0,0.0,0.0,0.0,0.0,0.0,0.0,0.0,0.0,0.0,0.0,0.0,-0.2468,-0.2693,-0.2693,0.0,-0.2693,0.0,0.0,0.0,0.0,0.0,0.0,0.0,0.0,0.0,0.0,0.0,0.0,0.0,0.0,0.0,0.0,0.0,0.0,0.0,0.0,0.0,0.0,0.0,0.0,0.0,0.0,0.0,0.0,0.0,0.0,0.0,0.0,0.0,0.0,0.0,0.0,0.0,0.0,0.0,0.0,0.0,0.0,0.0,0.0,0.0,0.0,0.0,0.0,0.0,0.0,0.0,0.0,0.0,0.0,0.0,0.0,0.0,0.0,0.0,0.0,0.0,0.0,0.0,0.0,0.0,0.0,0.0,0.0,0.0,0.0,0.0,0.0,0.0,0.0,0.0,0.0,0.0,0.0,0.0,0.0,0.0,0.0,0.0,0.0,0.0,0.0,0.0,0.0,0.0,0.0,0.0,0.0,0.0,0.0,0.0,0.0,0.0,0.0,0.0,0.0,0.0,0.0,0.0,0.0,0.0,0.0,0.0,0.0,0.0,0.0,-0.3059,-0.3478,-0.3701,-0.3701,0.0,0.0,0.0,0.0,0.0,0.0,0.0,0.0,0.0,0.0,0.0,0.0,0.0,0.0,0.0,0.0,0.0,0.0,0.0,0.0,0.0,0.0,0.0,0.0,0.0,0.0,0.0,0.0,0.0,0.0,0.0,0.0,0.0,0.0,0.0,0.0,0.0,0.0,0.0,0.0,0.0,0.0,0.0,0.0,0.0,0.0,0.0,0.0,0.0,0.0,0.0,0.0,0.0,0.0,0.0,0.0,0.0,0.0,0.0,0.0,0.0,0.0,0.0,0.0,0.0,0.0,0.0,0.0,0.0,0.0,0.0,0.0,0.0,0.0,0.0,0.0,0.0,0.0,0.0,0.0,0.0,0.0,0.0,0.0,0.0,0.0,0.0,0.0,0.0,0.0,0.0,0.0,0.0,0.0,0.0,0.0,0.0,0.0,0.0,0.0,0.0,0.0,0.0,0.0,0.0,0.0,0.0,0.0,0.0,0.0,-0.3403,-0.3857,-0.4374,-0.4592,-0.4592,-0.437,0.0,0.0,0.0,0.0,0.0,0.0,0.0,0.0,0.0,0.0,0.0,0.0,0.0,0.0,0.0,0.0,0.0,0.0,0.0,0.0,0.0,0.0,0.0,0.0,0.0,0.0,0.0,0.0,0.0,0.0,0.0,0.0,0.0,0.0,0.0,0.0,0.0,0.0,0.0,0.0,0.0,0.0,0.0,0.0,0.0,0.0,0.0,0.0,0.0,0.0,0.0,0.0,0.0,0.0,0.0,0.0,0.0,0.0,0.0,0.0,0.0,0.0,0.0,0.0,0.0,0.0,0.0,0.0,0.0,0.0,0.0,0.0,0.0,0.0,0.0,0.0,0.0,0.0,0.0,0.0,0.0,0.0,0.0,0.0,0.0,0.0,0.0,0.0,0.0,0.0,0.0,0.0,0.0,0.0,0.0,0.0,0.0,0.0,0.0,0.0,0.0,0.0,0.0,0.0,0.0,0.0,0.0,0.0,-0.3587,-0.4148,-0.4707,-0.5373,-0.5373,-0.5371,0.0,0.0,0.0,0.0,0.0,0.0,0.0,0.0,0.0,0.0,0.0,0.0,0.0,0.0,0.0,0.0,0.0,0.0,0.0,0.0,0.0,0.0,0.0,0.0,0.0,0.0,0.0,0.0,0.0,0.0,0.0,0.0,0.0,0.0,0.0,0.0,0.0,0.0,0.0,0.0,0.0,0.0,0.0,0.0,0.0,0.0,0.0,0.0,0.0,0.0,0.0,0.0,0.0,0.0,0.0,0.0,0.0,0.0,0.0,0.0,0.0,0.0,0.0,0.0,0.0,0.0,0.0,0.0,0.0,0.0,0.0,0.0,0.0,0.0,0.0,0.0,0.0,0.0,0.0,0.0,0.0,0.0,0.0,0.0,0.0,0.0,0.0,0.0,0.0,0.0,0.0,0.0,0.0,0.0,0.0,0.0,0.0,0.0,0.0,0.0,0.0,0.0,0.0,0.0,0.0,0.0,0.0,0.0,0.0,-0.4482,-0.5373,-0.6074,-0.6584,-0.6522,-0.6596,0.0,0.0,0.0,0.0,0.0,0.0,0.0,0.0,0.0,0.0,0.0,0.0,0.0,0.0,0.0,0.0,0.0,0.0,0.0,0.0,0.0,0.0,0.0,0.0,0.0,0.0,0.0,0.0,0.0,0.0,0.0,0.0,0.0,0.0,0.0,0.0,0.0,0.0,0.0,0.0,0.0,0.0,0.0,0.0,0.0,0.0,0.0,0.0,0.0,0.0,0.0,0.0,0.0,0.0,0.0,0.0,0.0,0.0,0.0,0.0,0.0,0.0,0.0,0.0,0.0,0.0,0.0,0.0,0.0,0.0,0.0,0.0,0.0,0.0,0.0,0.0,0.0,0.0,0.0,0.0,0.0,0.0,0.0,0.0,0.0,0.0,0.0,0.0,0.0,0.0,0.0,0.0,0.0,0.0,0.0,0.0,0.0,0.0,0.0,0.0,0.0,0.0,0.0,0.0,0.0,0.0,0.0,0.0,0.0,-0.5596,0.0,-0.7307,-0.772,-0.7753,-0.7709,0.0,0.0,0.0,0.0,0.0,0.0,0.0,0.0,0.0,0.0,0.0,0.0,0.0,0.0,0.0,0.0,0.0,0.0,0.0,0.0,0.0,0.0,0.0,0.0,0.0,0.0,0.0,0.0,0.0,0.0,0.0,0.0,0.0,0.0,0.0,0.0,0.0,0.0,0.0,0.0,0.0,0.0,0.0,0.0,0.0,0.0,0.0,0.0,0.0,0.0,0.0,0.0,0.0,0.0,0.0,0.0,0.0,0.0,0.0,0.0,0.0,0.0,0.0,0.0,0.0,0.0,0.0,0.0,0.0,0.0,0.0,0.0,0.0,0.0,0.0,0.0,0.0,0.0,0.0,0.0,0.0,0.0,0.0,0.0,0.0,0.0,0.0,0.0,0.0,0.0,0.0,0.0,0.0,0.0,0.0,0.0,0.0,0.0,0.0,0.0,0.0,0.0,0.0,0.0,0.0,0.0,0.0,0.0,-0.604,-0.7154,-0.7709,-0.8156,-0.8488,-0.8816,-0.8923,0.0,0.0,0.0,0.0,0.0,0.0,0.0,0.0,0.0,0.0,0.0,0.0,0.0,0.0,0.0,0.0,0.0,0.0,0.0,0.0,0.0,0.0,0.0,0.0,0.0,0.0,0.0,0.0,0.0,0.0,0.0,0.0,0.0,0.0,0.0,0.0,0.0,0.0,0.0,0.0,0.0,0.0,0.0,0.0,0.0,0.0,0.0,0.0,0.0,0.0,0.0,0.0,0.0,0.0,0.0,0.0,0.0,0.0,0.0,0.0,0.0,0.0,0.0,0.0,0.0,0.0,0.0,0.0,0.0,0.0,0.0,0.0,0.0,0.0,0.0,0.0,0.0,0.0,0.0,0.0,0.0,0.0,0.0,0.0,0.0,0.0,0.0,0.0,0.0,0.0,0.0,0.0,0.0,0.0,0.0,0.0,0.0,0.0,0.0,0.0,0.0,0.0,0.0,0.0,0.0,0.0,0.0,0.0,0.0,-0.8367,-0.8927,-0.9372,-0.9702,-1.0029,-1.0139,0.0,0.0,0.0,0.0,0.0,0.0,0.0,0.0,0.0,0.0,0.0,0.0,0.0,0.0,0.0,0.0,0.0,0.0,0.0,0.0,0.0,0.0,0.0,0.0,0.0,0.0,0.0,0.0,0.0,0.0,0.0,0.0,0.0,0.0,0.0,0.0,0.0,0.0,0.0,0.0,0.0,0.0,0.0,0.0,0.0,0.0,0.0,0.0,0.0,0.0,0.0,0.0,0.0,0.0,0.0,0.0,0.0,0.0,0.0,0.0,0.0,0.0,0.0,0.0,0.0,0.0,0.0,0.0,0.0,0.0,0.0,0.0,0.0,0.0,0.0,0.0,0.0,0.0,0.0,0.0,0.0,0.0,0.0,0.0,0.0,0.0,0.0,0.0,0.0,0.0,0.0,0.0,0.0,0.0,0.0,0.0,0.0,0.0,0.0,0.0,0.0,0.0,0.0,0.0,0.0,0.0,0.0,0.0,0.0,-1.0021,-1.0359,-1.0582,-1.0806,-1.1131,-1.135,-1.135,0.0,0.0,0.0,0.0,0.0,0.0,0.0,0.0,0.0,0.0,0.0,0.0,0.0,0.0,0.0,0.0,0.0,0.0,0.0,0.0,0.0,0.0,0.0,0.0,0.0,0.0,0.0,0.0,0.0,0.0,0.0,0.0,0.0,0.0,0.0,0.0,0.0,0.0,0.0,0.0,0.0,0.0,0.0,0.0,0.0,0.0,0.0,0.0,0.0,0.0,0.0,0.0,0.0,0.0,0.0,0.0,0.0,0.0,0.0,0.0,0.0,0.0,0.0,0.0,0.0,0.0,0.0,0.0,0.0,0.0,0.0,0.0,0.0,0.0,0.0,0.0,0.0,0.0,0.0,0.0,0.0,0.0,0.0,0.0,0.0,0.0,0.0,0.0,0.0,0.0,0.0,0.0,0.0,0.0,0.0,0.0,0.0,0.0,0.0,0.0,0.0,0.0,0.0,0.0,0.0,0.0,0.0,0.0,-1.2114,-1.1891,-1.1782,-1.1787,-1.2223,-1.255,0.0,0.0,0.0,0.0,0.0,0.0,0.0,0.0,0.0,0.0,0.0,0.0,0.0,0.0,0.0,0.0,0.0,0.0,0.0,0.0,0.0,0.0,0.0,0.0,0.0,0.0,0.0,0.0,0.0,0.0,0.0,0.0,0.0,0.0,0.0,0.0,0.0,0.0,0.0,0.0,0.0,0.0,0.0,0.0,0.0,0.0,0.0,0.0,0.0,0.0,0.0,0.0,0.0,0.0,0.0,0.0,0.0,0.0,0.0,0.0,0.0,0.0,0.0,0.0,0.0,0.0,0.0,0.0,0.0,0.0,0.0,0.0,0.0,0.0,0.0,0.0,0.0,0.0,0.0,0.0,0.0,0.0,0.0,0.0,0.0,0.0,0.0,0.0,0.0,0.0,0.0,0.0,0.0,0.0,0.0,0.0,0.0,0.0,0.0,0.0,0.0,0.0,0.0,0.0,0.0,0.0,0.0,0.0,0.0,-1.33,-1.384,-1.384,-1.3186,-1.3516,-1.3738,0.0,0.0,0.0,0.0,0.0,0.0,0.0,0.0,0.0,0.0,0.0,0.0,0.0,0.0,0.0,0.0,0.0,0.0,0.0,0.0,0.0,0.0,0.0,0.0,0.0,0.0,0.0,0.0,0.0,0.0,0.0,0.0,0.0,0.0,0.0,0.0,0.0,0.0,0.0,0.0,0.0,0.0,0.0,0.0,0.0,0.0,0.0,0.0,0.0,0.0,0.0,0.0,0.0,0.0,0.0,0.0,0.0,0.0,0.0,0.0,0.0,0.0,0.0,0.0,0.0,0.0,0.0,0.0,0.0,0.0,0.0,0.0,0.0,0.0,0.0,0.0,0.0,0.0,0.0,0.0,0.0,0.0,0.0,0.0,0.0,0.0,0.0,0.0,0.0,0.0,0.0,0.0,0.0,0.0,0.0,0.0,0.0,0.0,0.0,0.0,0.0,0.0,0.0,0.0,0.0,0.0,0.0,0.0,-1.4051,-1.4798,-1.5452,-1.5559,-1.5328,-1.5024,-1.4922,0.0,0.0,0.0,0.0,0.0,0.0,0.0,0.0,0.0,0.0,0.0,0.0,0.0,0.0,0.0,0.0,0.0,0.0,0.0,0.0,0.0,0.0,0.0,0.0,0.0,0.0,0.0,0.0,0.0,0.0,0.0,0.0,0.0,0.0,0.0,0.0,0.0,0.0,0.0,0.0,0.0,0.0,0.0,0.0,0.0,0.0,0.0,0.0,0.0,0.0,0.0,0.0,0.0,0.0,0.0,0.0,0.0,0.0,0.0,0.0,0.0,0.0,0.0,0.0,0.0,0.0,0.0,0.0,0.0,0.0,0.0,0.0,0.0,0.0,0.0,0.0,0.0,0.0,0.0,0.0,0.0,0.0,0.0,0.0,0.0,0.0,0.0,0.0,0.0,0.0,0.0,0.0,0.0,0.0,0.0,0.0,0.0,0.0,0.0,0.0,0.0,0.0,0.0,0.0,0.0,0.0,0.0,0.0,-1.5345,-1.6405,-1.6723,-1.7153,-1.7687,-1.663,-1.6105,0.0,0.0,0.0,0.0,0.0,0.0,0.0,0.0,0.0,0.0,0.0,0.0,0.0,0.0,0.0,0.0,0.0,0.0,0.0,0.0,0.0,0.0,0.0,0.0,0.0,0.0,0.0,0.0,0.0,0.0,0.0,0.0,0.0,0.0,0.0,0.0,0.0,0.0,0.0,0.0,0.0,0.0,0.0,0.0,0.0,0.0,0.0,0.0,0.0,0.0,0.0,0.0,0.0,0.0,0.0,0.0,0.0,0.0,0.0,0.0,0.0,0.0,0.0,0.0,0.0,0.0,0.0,0.0,0.0,0.0,0.0,0.0,0.0,0.0,0.0,0.0,0.0,0.0,0.0,0.0,0.0,0.0,0.0,0.0,0.0,0.0,0.0,0.0,0.0,0.0,0.0,0.0,0.0,0.0,0.0,0.0,0.0,0.0,0.0,0.0,0.0,0.0,0.0,0.0,0.0,0.0,0.0,0.0,-1.6929,-1.7667,-1.8094,-1.852,-1.8959,-1.7793,-1.7265,0.0,0.0,0.0,0.0,0.0,0.0,0.0,0.0,0.0,0.0,0.0,0.0,0.0,0.0,0.0,0.0,0.0,0.0,0.0,0.0,0.0,0.0,0.0,0.0,0.0,0.0,0.0,0.0,0.0,0.0,0.0,0.0,0.0,0.0,0.0,0.0,0.0,0.0,0.0,0.0,0.0,0.0,0.0,0.0,0.0,0.0,0.0,0.0,-0.8114,0.0,0.0,0.0,0.0,0.0,0.0,0.0,0.0,0.0,0.0,0.0,0.0,0.0,0.0,0.0,0.0,0.0,0.0,0.0,0.0,0.0,0.0,0.0,0.0,0.0,0.0,0.0,0.0,0.0,0.0,0.0,0.0,0.0,0.0,0.0,0.0,0.0,0.0,0.0,0.0,0.0,0.0,0.0,0.0,0.0,0.0,0.0,0.0,0.0,0.0,0.0,0.0,0.0,0.0,0.0,0.0,0.0,0.0,0.0,-1.829,-1.893,-1.9346,-1.9768,-1.9998,-1.9457,-1.8945,0.0,0.0,0.0,0.0,0.0,0.0,0.0,0.0,0.0,0.0,0.0,0.0,0.0,0.0,0.0,0.0,0.0,0.0,0.0,0.0,0.0,0.0,0.0,0.0,0.0,0.0,0.0,0.0,0.0,0.0,0.0,0.0,0.0,0.0,0.0,0.0,0.0,0.0,0.0,0.0,0.0,0.0,0.0,0.0,0.0,0.0,0.0,0.0,0.0,0.0,0.0,0.0,0.0,0.0,0.0,0.0,0.0,0.0,0.0,0.0,0.0,0.0,0.0,0.0,0.0,0.0,0.0,0.0,0.0,0.0,0.0,0.0,0.0,0.0,0.0,0.0,0.0,0.0,0.0,0.0,0.0,0.0,0.0,0.0,0.0,0.0,0.0,0.0,0.0,0.0,0.0,0.0,0.0,0.0,0.0,0.0,0.0,0.0,0.0,0.0,0.0,0.0,0.0,0.0,0.0,0.0,0.0,-1.8715,-1.9554,-2.0285,-2.0696,-2.0901,-2.1113,-2.1121,-2.0712,-1.9783,0.0,0.0,0.0,0.0,0.0,0.0,0.0,0.0,0.0,0.0,0.0,0.0,0.0,0.0,0.0,0.0,0.0,0.0,0.0,0.0,0.0,0.0,0.0,0.0,0.0,0.0,0.0,0.0,0.0,0.0,0.0,0.0,0.0,0.0,0.0,0.0,0.0,0.0,-0.696,-0.7778,0.0,0.0,0.0,0.0,0.0,0.0,0.0,0.0,-1.2165,0.0,0.0,0.0,0.0,0.0,0.0,0.0,0.0,0.0,0.0,0.0,0.0,0.0,0.0,0.0,0.0,0.0,0.0,0.0,0.0,0.0,0.0,0.0,0.0,0.0,0.0,0.0,0.0,0.0,0.0,0.0,0.0,0.0,0.0,0.0,0.0,0.0,0.0,0.0,0.0,0.0,0.0,0.0,0.0,0.0,0.0,0.0,0.0,0.0,0.0,0.0,0.0,0.0,0.0,0.0,0.0,-1.8923,-2.0055,-2.0893,-2.1412,-2.192,-2.2224,-2.2224,-2.2224,-2.2123,-2.192,0.0,0.0,0.0,0.0,0.0,0.0,0.0,0.0,0.0,0.0,0.0,0.0,0.0,0.0,0.0,0.0,0.0,0.0,0.0,0.0,0.0,0.0,0.0,0.0,0.0,0.0,0.0,0.0,0.0,0.0,0.0,0.0,0.0,0.0,0.0,0.0,0.0,0.0,0.0,-0.978,-1.0422,0.0,0.0,0.0,0.0,0.0,0.0,0.0,0.0,-1.3528,0.0,0.0,0.0,0.0,0.0,0.0,0.0,0.0,0.0,0.0,0.0,0.0,0.0,0.0,0.0,0.0,0.0,0.0,0.0,0.0,0.0,0.0,0.0,0.0,0.0,0.0,0.0,0.0,0.0,0.0,0.0,0.0,0.0,0.0,0.0,0.0,0.0,0.0,0.0,0.0,0.0,0.0,0.0,0.0,0.0,0.0,0.0,0.0,0.0,0.0,0.0,0.0,0.0,0.0,0.0,-2.0055,-2.0987,-2.181,-2.2526,-2.2929,-2.3229,-2.332,-2.3229,-2.312,0.0,0.0,0.0,0.0,0.0,0.0,0.0,0.0,0.0,0.0,0.0,0.0,0.0,0.0,0.0,0.0,0.0,0.0,0.0,0.0,0.0,0.0,0.0,0.0,0.0,0.0,0.0,0.0,0.0,0.0,0.0,0.0,0.0,0.0,0.0,0.0,0.0,0.0,0.0,0.0,-1.1457,-1.2161,-1.2553,0.0,0.0,0.0,0.0,0.0,0.0,-1.6558,-1.5948,0.0,0.0,0.0,0.0,0.0,0.0,0.0,0.0,0.0,0.0,0.0,0.0,0.0,0.0,0.0,0.0,0.0,0.0,0.0,0.0,0.0,0.0,0.0,0.0,0.0,0.0,0.0,0.0,0.0,0.0,0.0,0.0,0.0,0.0,0.0,0.0,0.0,0.0,0.0,0.0,0.0,0.0,0.0,0.0,0.0,0.0,0.0,0.0,0.0,0.0,0.0,0.0,0.0,0.0,0.0,-2.1089,-2.1912,-2.2728,-2.3429,-2.3728,-2.4035,-2.4233,-2.4035,-2.3935,0.0,0.0,0.0,0.0,0.0,0.0,0.0,0.0,0.0,0.0,0.0,0.0,0.0,0.0,0.0,0.0,0.0,0.0,0.0,0.0,0.0,0.0,0.0,0.0,0.0,0.0,0.0,0.0,0.0,0.0,0.0,0.0,0.0,0.0,0.0,0.0,0.0,0.0,0.0,0.0,0.0,-1.3739,-1.4268,-1.3735,0.0,0.0,0.0,0.0,-1.9031,-1.8463,0.0,0.0,0.0,0.0,0.0,0.0,0.0,0.0,0.0,0.0,0.0,0.0,0.0,0.0,0.0,0.0,0.0,0.0,0.0,0.0,0.0,0.0,0.0,0.0,0.0,0.0,0.0,0.0,0.0,0.0,0.0,0.0,0.0,0.0,0.0,0.0,0.0,0.0,0.0,0.0,0.0,0.0,0.0,0.0,0.0,0.0,0.0,0.0,0.0,0.0,0.0,0.0,0.0,0.0,0.0,0.0,-2.192,-2.2728,-2.3438,-2.4026,-2.4529,-2.4735,-2.4833,-2.4735,-2.4735,0.0,0.0,0.0,0.0,0.0,0.0,0.0,0.0,0.0,0.0,0.0,0.0,0.0,0.0,0.0,0.0,0.0,0.0,0.0,0.0,0.0,0.0,0.0,0.0,0.0,0.0,0.0,0.0,0.0,0.0,0.0,0.0,0.0,0.0,0.0,0.0,0.0,0.0,0.0,0.0,0.0,-1.4931,-1.5714,-1.5162,-1.4974,0.0,0.0,-1.9837,-2.0416,-1.9539,0.0,0.0,0.0,0.0,0.0,0.0,0.0,0.0,0.0,0.0,0.0,0.0,0.0,0.0,0.0,0.0,0.0,0.0,0.0,0.0,0.0,0.0,0.0,0.0,0.0,0.0,0.0,0.0,0.0,0.0,0.0,0.0,0.0,0.0,0.0,0.0,0.0,0.0,0.0,0.0,0.0,0.0,0.0,0.0,0.0,0.0,0.0,0.0,0.0,0.0,0.0,0.0,0.0,0.0,0.0,-2.1615,-2.2535,-2.3651,-2.4382,-2.4992,-2.5519,-2.5944,-2.6045,-2.5944,-2.5843,0.0,0.0,0.0,0.0,0.0,0.0,0.0,0.0,0.0,0.0,0.0,0.0,0.0,0.0,0.0,0.0,0.0,0.0,0.0,0.0,0.0,0.0,0.0,0.0,0.0,0.0,0.0,0.0,0.0,0.0,0.0,0.0,0.0,0.0,0.0,0.0,0.0,0.0,0.0,0.0,0.0,0.0,-1.6944,-1.6817,0.0,0.0,0.0,-2.1025,-2.1295,0.0,0.0,0.0,0.0,0.0,0.0,0.0,0.0,0.0,0.0,0.0,0.0,0.0,0.0,0.0,0.0,0.0,0.0,0.0,0.0,0.0,0.0,0.0,0.0,0.0,0.0,0.0,0.0,0.0,0.0,0.0,0.0,0.0,0.0,0.0,0.0,0.0,0.0,0.0,0.0,0.0,0.0,0.0,0.0,0.0,0.0,0.0,0.0,0.0,0.0,0.0,0.0,0.0,0.0,0.0,0.0,0.0,-2.3379,-2.4472,-2.5302,-2.5828,-2.6429,-2.6807,-2.7012,-2.6807,0.0,0.0,0.0,0.0,0.0,0.0,0.0,0.0,0.0,0.0,0.0,0.0,0.0,0.0,0.0,0.0,0.0,0.0,0.0,0.0,0.0,0.0,0.0,0.0,0.0,0.0,0.0,-1.4065,0.0,0.0,0.0,0.0,0.0,0.0,0.0,0.0,0.0,0.0,0.0,0.0,0.0,0.0,-1.7978,-1.8381,-1.825,-1.8502,0.0,0.0,-2.2102,-2.2069,-2.1932,-2.1766,0.0,0.0,0.0,0.0,0.0,0.0,0.0,0.0,0.0,0.0,0.0,0.0,0.0,0.0,0.0,0.0,0.0,0.0,0.0,0.0,0.0,0.0,0.0,0.0,0.0,0.0,0.0,0.0,0.0,0.0,0.0,0.0,0.0,0.0,0.0,0.0,0.0,0.0,0.0,0.0,0.0,0.0,0.0,0.0,0.0,0.0,0.0,0.0,0.0,0.0,0.0,0.0,0.0,0.0,0.0,-2.461,-2.5405,-2.6022,-2.6554,-2.6788,-2.7012,-2.7021,-2.7021,-2.7021,0.0,0.0,0.0,0.0,0.0,0.0,0.0,0.0,0.0,0.0,0.0,0.0,0.0,0.0,0.0,0.0,0.0,0.0,0.0,0.0,0.0,0.0,0.0,0.0,0.0,0.0,0.0,0.0,0.0,0.0,0.0,0.0,0.0,0.0,0.0,0.0,0.0,0.0,0.0,0.0,0.0,-1.9439,-1.9699,-1.9154,-1.9275,0.0,0.0,-2.2822,-2.2815,-2.2212,-2.1766,-2.1766,0.0,0.0,0.0,0.0,0.0,0.0,0.0,0.0,0.0,0.0,0.0,0.0,0.0,0.0,0.0,0.0,0.0,0.0,0.0,0.0,0.0,0.0,0.0,0.0,0.0,0.0,0.0,0.0,0.0,0.0,0.0,0.0,0.0,0.0,0.0,0.0,0.0,0.0,0.0,0.0,0.0,0.0,0.0,0.0,0.0,0.0,0.0,0.0,0.0,0.0,0.0,0.0,0.0,-2.4589,-2.5133,-2.6144,-2.6883,-2.6997,-2.7552,-2.7793,-2.7803,-2.7803,-2.7688,0.0,0.0,0.0,0.0,0.0,0.0,0.0,0.0,0.0,0.0,0.0,0.0,0.0,0.0,0.0,0.0,0.0,0.0,0.0,0.0,0.0,0.0,0.0,0.0,0.0,0.0,0.0,0.0,-1.581,-1.6328,-1.8991,0.0,0.0,0.0,0.0,0.0,0.0,0.0,0.0,0.0,0.0,-2.0386,-2.0784,-2.0681,0.0,0.0,-2.2245,-2.2913,-2.2913,-2.2605,-2.2454,-2.2448,-2.2454,0.0,0.0,0.0,0.0,0.0,0.0,0.0,0.0,0.0,0.0,0.0,0.0,0.0,0.0,0.0,0.0,0.0,0.0,0.0,0.0,0.0,0.0,0.0,0.0,0.0,0.0,0.0,0.0,0.0,0.0,0.0,0.0,0.0,0.0,0.0,0.0,0.0,0.0,0.0,0.0,0.0,0.0,0.0,0.0,0.0,0.0,0.0,0.0,0.0,0.0,0.0,0.0,-2.5537,-2.586,-2.6902,-2.7516,-2.7631,-2.8038,-2.8301,-2.8301,-2.8184,-2.8077,0.0,0.0,0.0,0.0,0.0,0.0,0.0,0.0,0.0,0.0,0.0,0.0,0.0,0.0,0.0,0.0,0.0,0.0,0.0,0.0,0.0,0.0,0.0,0.0,0.0,0.0,0.0,0.0,-1.7733,-1.844,-2.0797,0.0,0.0,0.0,0.0,0.0,0.0,0.0,0.0,0.0,0.0,-2.1344,-2.1609,-2.1887,-2.2127,-2.2134,-2.2565,-2.3003,-2.3153,-2.3147,-2.3133,-2.327,0.0,0.0,0.0,0.0,0.0,0.0,0.0,0.0,0.0,0.0,0.0,0.0,0.0,0.0,0.0,0.0,0.0,0.0,0.0,0.0,0.0,0.0,0.0,0.0,0.0,0.0,0.0,0.0,0.0,0.0,-2.0702,0.0,0.0,0.0,0.0,0.0,0.0,0.0,0.0,0.0,0.0,0.0,0.0,0.0,0.0,0.0,0.0,0.0,0.0,0.0,0.0,0.0,0.0,-2.6268,-2.6807,-2.7515,-2.8048,-2.8271,-2.8281,-2.8301,-2.8291,-2.8077,-2.7853,-2.7853,0.0,0.0,0.0,0.0,0.0,0.0,0.0,0.0,0.0,0.0,0.0,0.0,0.0,0.0,0.0,0.0,0.0,0.0,0.0,0.0,0.0,0.0,0.0,0.0,0.0,0.0,-1.9311,-2.0239,-2.0965,0.0,0.0,0.0,0.0,0.0,0.0,0.0,0.0,0.0,0.0,-2.1848,-2.2297,-2.2297,-2.2585,-2.2859,-2.2859,-2.2866,-2.3153,-2.3878,-2.3577,-2.3543,0.0,0.0,0.0,0.0,0.0,0.0,0.0,0.0,0.0,0.0,0.0,0.0,0.0,0.0,0.0,0.0,0.0,0.0,0.0,0.0,0.0,0.0,0.0,0.0,0.0,0.0,0.0,-2.3929,-2.3232,0.0,0.0,0.0,0.0,0.0,0.0,0.0,0.0,0.0,0.0,0.0,-1.9482,-1.9931,0.0,0.0,0.0,0.0,0.0,0.0,0.0,0.0,0.0,0.0,0.0,0.0,-2.7116,-2.7554,-2.7999,-2.8184,-2.8301,-2.8301,-2.8184,-2.8077,-2.796,-2.7628,-2.7088,0.0,0.0,0.0,0.0,0.0,0.0,0.0,0.0,0.0,0.0,0.0,0.0,0.0,0.0,0.0,0.0,0.0,0.0,0.0,0.0,0.0,0.0,0.0,0.0,0.0,-2.0643,0.0,0.0,0.0,0.0,0.0,0.0,0.0,0.0,0.0,0.0,0.0,-2.19,-2.2037,-2.2389,-2.2722,-2.2722,-2.2866,-2.2866,0.0,0.0,0.0,0.0,0.0,0.0,0.0,0.0,0.0,0.0,0.0,0.0,0.0,0.0,-2.2454,-2.248,-2.2199,-2.191,-2.1766,0.0,0.0,0.0,0.0,0.0,0.0,0.0,0.0,0.0,0.0,0.0,0.0,0.0,0.0,-2.5211,0.0,-2.4156,0.0,0.0,0.0,0.0,0.0,0.0,0.0,0.0,-1.9753,-1.9666,-1.9673,-2.0365,-2.0709,0.0,-2.1873,-2.2682,0.0,0.0,0.0,0.0,0.0,0.0,0.0,0.0,-2.7606,-2.8074,-2.8408,-2.8476,-2.8622,-2.8622,-2.8414,-2.8186,-2.7958,-2.7399,-2.6532,-2.5518,-2.4955,0.0,0.0,0.0,0.0,0.0,0.0,0.0,0.0,0.0,0.0,0.0,0.0,0.0,0.0,0.0,0.0,0.0,0.0,0.0,0.0,0.0,0.0,0.0,-2.1842,0.0,0.0,0.0,0.0,0.0,0.0,0.0,0.0,0.0,-2.2042,-2.231,-2.2448,-2.2448,-2.2729,-2.2866,-2.2866,0.0,0.0,0.0,0.0,0.0,0.0,0.0,-2.3816,-2.4367,-2.4367,-2.4367,-2.4095,-2.3679,-2.327,-2.2996,0.0,0.0,-2.2899,-2.2618,-2.233,-2.2179,-2.231,-2.2585,-2.2585,-2.2715,-2.2866,0.0,0.0,0.0,0.0,0.0,0.0,0.0,0.0,-2.6548,-2.62,0.0,-2.4934,0.0,0.0,0.0,0.0,0.0,-2.0853,0.0,0.0,-2.0227,-2.0234,-2.0221,-2.0812,-2.1307,-2.1788,-2.2602,-2.3551,-2.4468,-2.4414,0.0,0.0,0.0,0.0,0.0,0.0,-2.7777,-2.8516,-2.8726,-2.893,-2.9093,-2.9,-2.8888,-2.855,-2.7965,-2.7158,-2.6273,-2.5668,-2.5094,-2.4509,-2.4126,0.0,0.0,0.0,0.0,0.0,0.0,0.0,0.0,0.0,0.0,0.0,0.0,0.0,0.0,0.0,0.0,0.0,0.0,0.0,0.0,-2.2147,0.0,0.0,0.0,0.0,0.0,0.0,0.0,0.0,0.0,0.0,-2.231,-2.2585,-2.2866,-2.2866,0.0,0.0,0.0,0.0,-2.2866,-2.2866,-2.2866,-2.3133,-2.3823,-2.3959,-2.4231,-2.4916,0.0,0.0,-2.4095,-2.3686,-2.327,-2.2996,-2.2866,-2.2866,-2.2866,-2.2866,-2.2866,-2.2866,-2.2859,-2.2866,-2.2866,-2.2859,-2.2866,-2.9652,0.0,0.0,0.0,0.0,-2.9212,-2.8861,-2.8283,-2.8274,-2.7683,-2.6619,-2.6508,0.0,0.0,0.0,0.0,0.0,0.0,-2.1162,-2.0535,-2.0327,-2.0234,-2.0227,-2.0832,-2.1307,-2.1428,-2.2498,-2.3448,-2.4148,-2.4787,-2.56,-2.6408,0.0,0.0,0.0,0.0,-2.8164,-2.8614,-2.8614,-2.8671,-2.8681,-2.8568,-2.8106,-2.7299,-2.6734,-2.6041,-2.5336,-2.4743,-2.4047,-2.3464,-2.3326,0.0,0.0,0.0,0.0,0.0,0.0,0.0,0.0,0.0,0.0,0.0,0.0,0.0,0.0,0.0,0.0,0.0,0.0,0.0,-2.2563,-2.2676,-2.2729,0.0,0.0,0.0,0.0,0.0,0.0,0.0,0.0,0.0,-2.2722,-2.2859,-2.2866,0.0,0.0,-2.2866,-2.2866,-2.2866,-2.2866,-2.2866,-2.2866,0.0,-2.3959,-2.3959,-2.4231,-2.5059,-2.5059,-2.4916,-2.4102,-2.3952,-2.3679,-2.2996,-2.2866,-2.2866,-2.2866,-2.2866,-2.2866,-2.2866,-2.2866,-2.2866,-2.2866,-2.2866,-2.2866,-2.9502,-2.9795,-2.9939,-2.9995,-3.003,-2.9922,-2.9686,-2.9213,-2.9103,-2.8388,-2.7435,-2.7185,-2.6457,-2.5472,-2.4726,0.0,0.0,0.0,-2.1465,-2.0842,-2.0668,-2.0581,-2.0581,-2.1183,-2.168,-2.1796,-2.2892,-2.3851,-2.4452,-2.5423,-2.6261,-2.6959,0.0,0.0,-2.8229,-2.8229,-2.8303,-2.869,-2.869,-2.866,-2.8589,-2.8126,-2.7418,-2.6598,-2.6135,-2.5661,-2.4819,-2.422,-2.3618,-2.3021,-2.2837,-2.2637,0.0,0.0,0.0,0.0,0.0,0.0,0.0,0.0,0.0,0.0,0.0,-2.1156,-2.1276,0.0,0.0,0.0,-2.2318,-2.2665,-2.2846,-2.2866,0.0,0.0,0.0,0.0,0.0,0.0,0.0,-2.2866,-2.2866,-2.2866,-2.2866,-2.2866,-2.2866,-2.2866,-2.2866,-2.2866,-2.2866,0.0,-2.2866,-2.2866,-2.2866,-2.2989,-2.3522,-2.3809,-2.4231,-2.4924,-2.5059,-2.4781,-2.4095,-2.3959,-2.3686,-2.3133,-2.2866,-2.2866,-2.2866,-2.2866,-2.2866,-2.2866,-2.2866,-2.2866,-2.2866,-2.2866,-2.2866,-2.9121,-2.956,-2.9932,-3.0141,-3.0334,-3.002,-2.9804,-2.945,-2.9094,-2.8618,-2.7891,-2.7297,-2.6692,-2.5953,-2.4602,0.0,-2.2104,-2.2111,-2.1734,-2.1102,-2.1102,-2.1102,-2.1102,-2.1727,-2.2237,-2.2606,-2.3611,-2.4355,-2.4972,-2.5953,-2.6692,-2.7056,-2.7193,-2.7522,-2.8094,-2.8208,-2.8384,-2.863,-2.863,-2.8581,-2.8352,-2.7753,-2.6918,-2.6067,-2.5953,-2.5456,-2.4479,-2.386,-2.3362,-2.2988,-2.2362,-2.2006,-2.2041,0.0,0.0,0.0,0.0,0.0,0.0,0.0,0.0,0.0,0.0,0.0,0.0,0.0,0.0,0.0,-2.2686,0.0,-2.2866,-2.2866,0.0,0.0,0.0,-2.2866,-2.2866,-2.2866,-2.2866,-2.2866,0.0,0.0,-2.2866,-2.2866,-2.2866,-2.2866,-2.2866,-2.2866,-2.2866,-2.2866,-2.2866,-2.2866,-2.2866,-2.2846,-2.2949,-2.3522,-2.4238,-2.4781,-2.5052,-2.4781,-2.4095,-2.3959,-2.3686,-2.2996,-2.2866,-2.2866,-2.2866,-2.2866,-2.2866,-2.2866,-2.2866,-2.2866,-2.2866,-2.2866,-2.2866,-2.8593,-2.8771,-2.8877,-2.935,-2.994,-3.0131,-3.0039,-2.944,-2.9094,-2.8618,-2.802,-2.7306,-2.6336,-2.4849,-2.386,-2.2863,-2.2111,-2.1866,-2.1481,-2.1102,-2.1102,-2.1102,-2.1109,-2.1481,-2.1859,-2.2237,-2.2981,-2.3736,-2.4355,-2.5103,-2.5717,-2.6311,-2.6635,-2.7149,-2.7982,-2.8101,-2.8018,-2.786,-2.786,-2.7554,-2.7047,-2.6684,-2.6067,-2.5349,-2.5095,-2.4479,-2.3479,-2.3355,-2.2856,-2.1985,-2.202,-2.1894,-2.1375,-2.1229,0.0,0.0,0.0,0.0,0.0,0.0,0.0,0.0,0.0,-2.1236,-2.153,0.0,-2.2017,0.0,-2.2692,-2.2866,-2.2866,-2.2866,0.0,0.0,-2.2866,-2.2866,-2.2866,-2.2866,-2.2866,-2.2866,-2.2866,-2.2866,-2.2866,-2.2866,-2.2866,-2.2866,-2.2866,-2.2866,-2.2866,-2.2866,-2.2866,-2.2866,-2.2866,-2.2846,-2.2942,-2.3515,-2.4095,-2.4231,-2.4238,-2.4095,-2.3686,-2.3543,-2.3406,-2.3003,-2.2866,-2.2866,-2.2866,-2.2866,-2.2866,-2.2866,-2.2866,-2.2866,-2.2866,-2.2866,-2.2866,-2.7898,-2.8019,-2.8201,-2.8442,-2.8663,-2.9193,-2.9132,-2.8793,-2.8627,-2.811,-2.7295,-2.6503,-2.5472,-2.4363,-2.3487,-2.2731,-2.2111,-2.1734,-2.1362,-2.1102,-2.1102,-2.1102,-2.1109,-2.1488,-2.1734,-2.1859,-2.2731,-2.323,-2.3736,-2.4487,-2.5103,-2.5464,-2.5709,-2.6205,-2.6684,-2.7289,-2.7297,-2.6918,-2.6554,-2.6197,-2.5717,-2.5472,-2.5087,-2.4232,-2.3984,-2.3479,-2.2738,-2.2487,-2.2111,-2.1607,-2.1635,-2.1509,-2.1109,-2.1102,-2.1102,0.0,0.0,0.0,0.0,0.0,0.0,0.0,0.0,0.0,0.0,0.0,-2.2151,-2.2585,-2.2766,-2.2866,-2.2866,-2.2866,-2.2866,-2.2866,-2.2866,-2.2866,-2.2866,-2.2866,-2.2866,-2.2866,-2.2866,-2.2866,-2.2866,-2.2866,-2.2866,-2.2866,-2.2866,-2.2866,-2.2866,-2.2866,-2.2866,-2.2866,-2.2866,-2.2989,-2.3099,-2.3529,-2.3823,-2.3959,-2.3959,-2.3823,-2.3536,-2.3406,-2.327,-2.2996,-2.2866,-2.2866,-2.2866,-2.2866,-2.2866,-2.2866,-2.2866,-2.2866,-2.2866,-2.2866,-2.2866,-2.7333,-2.7361,-2.771,-2.7539,-2.7012,-2.7575,-2.7777,-2.7678,-2.7678,-2.7147,-2.6151,-2.5432,-2.4602,-2.3984,-2.3238,-2.2606,-2.1978,-2.174,-2.1355,-2.1102,-2.1102,-2.1102,-2.1109,-2.1355,-2.1607,-2.1614,-2.2487,-2.2981,-2.2981,-2.386,-2.4355,-2.4479,-2.4741,-2.4857,-2.4988,-2.5961,-2.6319,-2.5945,-2.5226,-2.4734,-2.4479,-2.4355,-2.3984,-2.3106,-2.2988,-2.2738,-2.2104,-2.1734,-2.1607,-2.1488,-2.1229,-2.1102,-2.1102,-2.1102,-2.1102,0.0,-2.1102,0.0,0.0,0.0,0.0,0.0,0.0,0.0,0.0,-2.2125,-2.2281,-2.2839,-2.2866,-2.2866,-2.2866,-2.2866,-2.2866,-2.2866,-2.2866,-2.2866,-2.2866,-2.2866,-2.2866,-2.2866,-2.2866,-2.2866,-2.2866,-2.2866,-2.2866,-2.2866,-2.2866,-2.2866,-2.2866,-2.2866,-2.2866,-2.2866,-2.2866,-2.2996,-2.3263,-2.3263,-2.3413,-2.3816,-2.3823,-2.3679,-2.3406,-2.327,-2.327,-2.3003,-2.2866,-2.2866,-2.2866,-2.2866,-2.2866,-2.2866,-2.2866,-2.2866,-2.2866,-2.2866,-2.2866,-2.7098,-2.6772,-2.6846,-2.6555,-2.6024,-2.5856,-2.6264,-2.7097,-2.6574,-2.5847,-2.4956,-2.4822,-2.4108,-2.323,-2.2613,-2.2111,-2.1734,-2.1355,-2.1109,-2.1102,-2.1102,-2.1102,-2.1102,-2.1116,-2.1362,-2.1614,-2.1859,-2.1985,-2.2355,-2.2738,-2.3106,-2.3362,-2.3736,-2.386,-2.3852,0.0,0.0,0.0,-2.4232,-2.3852,-2.3736,-2.323,-2.2856,-2.2731,-2.248,0.0,-2.174,-2.1607,-2.1481,-2.1235,-2.1109,0.0,0.0,0.0,0.0,0.0,0.0,0.0,0.0,0.0,0.0,0.0,-2.1737,-2.1931,-2.1991,-2.2465,-2.2799,-2.2853,-2.2866,-2.2866,-2.2866,-2.2866,-2.2866,-2.2866,-2.2866,-2.2866,-2.2866,-2.2866,-2.2866,-2.2866,-2.2866,-2.2866,-2.2866,-2.2866,-2.2866,-2.2866,-2.2866,-2.2866,-2.2866,-2.2866,-2.2866,-2.2866,-2.2866,-2.2866,-2.3003,-2.2996,-2.2996,-2.3133,-2.3133,-2.3133,-2.2996,-2.2996,-2.2996,-2.2866,-2.2866,-2.2866,-2.2866,-2.2866,-2.2866,-2.2866,-2.2866,-2.2866,-2.2866,-2.2866,-2.2866,-2.6445,0.0,-2.5999,-2.5661,0.0,-2.4906,-2.5018,-2.5272,-2.5222,-2.491,-2.4346,-2.378,-2.3454,-2.3113,-2.2237,-2.1734,-2.1607,-2.1235,-2.1102,-2.1102,-2.1102,-2.1102,-2.1102,-2.1102,-2.1229,-2.1362,-2.1481,-2.174,-2.1859,-2.2237,-2.248,-2.2613,-2.2738,-2.2856,-2.2863,-2.2863,-2.3113,-2.3604,-2.3106,-2.2856,-2.2856,-2.248,-2.2314,-2.2328,0.0,0.0,0.0,0.0,0.0,0.0,0.0,0.0,0.0,0.0,0.0,-2.1109,-2.139,-2.1471,-2.1336,-2.1463,-2.161,-2.1757,-2.2031,-2.2265,-2.2405,-2.2686,-2.2866,-2.2866,-2.2866,-2.2866,-2.2866,-2.2866,-2.2866,-2.2866,-2.2866,-2.2866,-2.2866,-2.2866,-2.2866,-2.2866,-2.2866,-2.2866,-2.2866,-2.2866,-2.2866,-2.2866,-2.2866,-2.2866,-2.2866,-2.2866,-2.2866,-2.2866,-2.2866,-2.2866,-2.2866,-2.2866,-2.2866,-2.2866,-2.2866,-2.2866,-2.2866,-2.2866,-2.2866,-2.2866,-2.2866,-2.2866,-2.2866,-2.2866,-2.2866,-2.2866,-2.2866,-2.2866,-2.2866,-2.2866,-2.2866,-2.5569,-2.5467,-2.5229,-2.4906,-2.4565,-2.4256,-2.3809,-2.3279,0.0,0.0,0.0,-2.2929,-2.2646,-2.2776,-2.1957,-2.1607,-2.1481,-2.1235,-2.1102,-2.1102,-2.1102,-2.1102,-2.1102,-2.1102,-2.1102,-2.1102,-2.1355,-2.1481,-2.1481,-2.1734,-2.1985,-2.1985,-2.1985,-2.1985,-2.1978,-2.1985,-2.2139,-2.244,-2.2132,-2.2006,-2.2062,-2.2069,-2.2081,-2.2134,-2.2141,-2.1889,-2.163,-2.163,-2.1516,-2.1276,-2.1256,-2.1263,-2.1263,-2.1122,-2.1122,-2.1276,-2.1774,-2.1916,-2.1637,-2.185,-2.2011,-2.1925,-2.2198,-2.2463,-2.2839,-2.2859,-2.2722,-2.2715,-2.2722,-2.2722,-2.2722,-2.2729,-2.2729,-2.2729,-2.2866,-2.2873,-2.2859,-2.2859,-2.2866,-2.2866,-2.2866,-2.2866,-2.2866,-2.2866,-2.2866,-2.2866,-2.2866,-2.2893,-2.2913,-2.2899,-2.2866,-2.2866,-2.307,-2.3104,-2.2959,-2.3033,-2.3013,-2.308,-2.306,-2.302,-2.302,-2.3026,-2.302,-2.3073,-2.302,-2.2895,-2.3033,-2.3066,-2.302,-2.302,-2.2979,-2.2939,-2.2939,-2.2899,-2.2866,-2.5026,-2.4599,-2.4487,-2.4144,-2.3697,-2.3352,-2.2675,-2.204,-2.2912,-2.2759,-2.2068,-2.2381,-2.2162,-2.1486,-2.1498,-2.1481,-2.1109,-2.1109,-2.1102,0.0,-2.1102,-2.1102,-2.1102,-2.1102,-2.1102,-2.1102,-2.1109,-2.1235,-2.1235,-2.1235,-2.1355,-2.1607,-2.1607,-2.1607,-2.1607,-2.1362,-2.1363,-2.1734,-2.1744,-2.1864,-2.2119,-2.1876,-2.176,-2.2035,-2.2055,-2.2055,-2.1924,-2.1924,-2.1904,-2.1864,-2.1713,-2.1713,-2.1857,-2.1405,-2.1274,-2.1857,-2.1904,-2.1924,-2.1931,-2.1964,-2.1959,-2.1949,-2.2218,-2.2408,-2.2859,-2.2585,-2.2297,-2.199,-2.2022,-2.1904,-2.2042,-2.2199,-2.2199,-2.2042,-2.2487,-2.2762,-2.2448,-2.2578,-2.2859,-2.2859,-2.2866,-2.2859,-2.2859,-2.2866,-2.2859,-2.2859,-2.2899,-2.2959,-2.2988,-2.2868,-2.2879,-2.2906,-2.3403,-2.3545,-2.3287,-2.3487,-2.3567,-2.3647,-2.3607,-2.3567,-2.3567,-2.3561,-2.3574,-2.3627,-2.3252,-2.3117,-2.3446,-2.3641,-2.3594,-2.3567,-2.3407,-2.3267,-2.326,-2.3073,-2.2886,-2.4248,-2.3929,-2.3697,-2.336,-2.2909,-2.2335,-2.1774,-2.1447,-2.1573,-2.1503,-2.1452,-2.1384,-2.1341,-2.1163,-2.1182,-2.1081,-2.1102,-2.1102,-2.1102,-2.1102,-2.1102,-2.1102,-2.1102,-2.1102,-2.1102,-2.1102,-2.1102,-2.1102,-2.1102,-2.1102,-2.1242,-2.1362,-2.1362,-2.1355,-2.1369,-2.1397,-2.1416,-2.1543,-2.1545,-2.1747,-2.2038,-2.1921,-2.1924,-2.2218,-2.2218,-2.2218,-2.2218,-2.2225,-2.2151,-2.1991,-2.1984,-2.1984,-2.1984,-2.1991,-2.1991,-2.1991,-2.2284,-2.2378,-2.1958,-2.1969,-2.1842,-2.1842,-2.1964,-2.2035,-2.231,-2.2179,-2.1741,-2.1271,-2.159,-2.191,-2.1917,-2.1766,-2.1615,-2.1609,-2.1741,-2.1741,-2.1891,-2.1859,-2.1853,-2.2166,-2.216,-2.216,-2.2317,-2.231,-2.2448,-2.2598,-2.2848,-2.3081,-2.3199,-2.3293,-2.3354,-2.3367,-2.3628,-2.3715,-2.3574,-2.3674,-2.3768,-2.3774,-2.3774,-2.3774,-2.3774,-2.3781,-2.3781,-2.3774,-2.3605,-2.3456,-2.3781,-2.4086,-2.4093,-2.3768,-2.3681,-2.3574,-2.3534,-2.3327,-2.3073,-2.3472,-2.3135,-2.2909,-2.257,-2.223,-2.1318,-2.0974,-2.0974,-2.0392,-2.0403,-2.073,-2.0462,-2.0561,-2.0924,-2.0758,-2.0835,-2.1082,-2.1102,-2.1102,-2.1102,-2.1102,-2.1102,-2.1102,-2.1102,-2.1102,-2.1102,-2.1102,-2.1102,-2.1102,-2.1102,-2.1102,-2.1102,-2.1102,-2.1142,-2.1209,-2.1436,-2.1617,-2.1737,-2.175,-2.1857,-2.2071,-2.2078,-2.2225,-2.2492,-2.2519,-2.2519,-2.2519,-2.2519,-2.2412,-2.2205,-2.2338,-2.2338,-2.2184,-2.2637,-2.2637,-2.2211,-2.2412,-2.241,-2.1997,-2.1776,-2.1766,-2.1634,-2.149,-2.1496,-2.1509,-2.1358,-2.1038,-2.0569,-2.0894,-2.1352,-2.1364,-2.1201,-2.1038,-2.1044,-2.0882,-2.0894,-2.1339,-2.102,-2.1001,-2.1471,-2.1603,-2.1603,-2.1772,-2.1823,-2.2038,-2.2419,-2.2861,-2.3245,-2.3353,-2.3582,-2.3751,-2.3791,-2.3915,-2.4018,-2.3875,-2.3948,-2.3988,-2.3968,-2.3988,-2.4022,-2.4015,-2.3988,-2.3975,-2.4015,-2.3995,-2.4015,-2.3988,-2.4309,-2.4336,-2.4179,-2.3948,-2.3841,-2.3748,-2.3587,-2.3333,-2.257,-2.2222,-2.2222,-2.1888,-2.1318,-2.0622,-2.0392,-2.0392,-2.0046,-1.9822,-2.0007,-2.0144,-2.0325,-2.0281,-2.0555,-2.0822,-2.1096,-2.1102,-2.1102,-2.1102,-2.1102,-2.1102,-2.1102,-2.1102,-2.1102,-2.1102,-2.1102,-2.1102,-2.1102,-2.1102,-2.1102,-2.1102,-2.1102,-2.1249,-2.1483,-2.1537,-2.181,-2.2318,-2.2338,-2.2352,-2.2372,-2.2378,-2.2519,-2.2812,-2.2819,-2.2826,-2.2806,-2.2819,-2.2806,-2.2786,-2.2766,-2.2779,-2.2772,-2.2916,-2.2779,-2.2356,-2.2089,-2.1827,-2.1853,-2.1747,-2.1496,-2.0943,-2.0804,-2.0822,-2.0732,-2.0121,-1.9652,-1.9611,-1.9785,-1.997,-2.0121,-1.982,-1.9814,-2.0104,-2.04,-2.0563,-2.0388,-2.0491,-2.0894,-2.1201,-2.1364,-2.1766,-2.1679,-2.1855,-2.2237,-2.2465,-2.2678,-2.2825,-2.3239,-2.3621,-2.3686,-2.365,-2.4037,-2.4347,-2.4195,-2.4396,-2.4449,-2.4502,-2.4529,-2.4489,-2.4456,-2.4476,-2.4543,-2.4389,-2.4482,-2.4469,-2.4489,-2.4556,-2.4523,-2.4422,-2.4282,-2.4095,-2.3861,-2.3754,-2.3614,-2.1888,-2.1554,-2.1303,-2.1074,-2.063,-2.0162,-2.0046,-1.9931,-1.97,-1.9591,-1.9604,-1.9726,-1.9912,-2.0234,-2.0361,-2.0661,-2.1096,-2.1102,-2.1102,-2.1102,-2.1102,-2.1102,-2.1102,-2.1102,-2.1102,-2.1102,-2.1102,-2.1102,-2.1102,-2.1102,-2.1102,-2.1102,-2.1102,-2.1256,-2.1543,-2.1724,-2.2011,-2.2405,-2.2592,-2.2679,-2.2679,-2.2679,-2.2739,-2.2846,-2.2866,-2.2866,-2.2866,-2.2866,-2.2866,-2.2866,-2.2866,-2.2859,-2.2578,-2.2749,-2.2611,-2.2042,-2.1477,-2.1195,-2.122,-2.0798,-2.0376,-2.0098,-1.9825,-1.9843,-2.0023,-1.9145,-1.8541,-1.8374,-1.8815,-1.9279,-1.9587,-1.9424,-1.9122,-1.9111,-1.9547,-1.9976,-1.9831,-1.9501,-1.9617,-2.0098,-2.0519,-2.0754,-2.079,-2.1118,-2.1527,-2.2073,-2.2286,-2.2683,-2.3228,-2.3446,-2.3639,-2.3703,-2.3793,-2.4042,-2.4316,-2.4543,-2.4623,-2.4636,-2.4629,-2.4629,-2.4636,-2.4629,-2.4629,-2.4629,-2.4629,-2.4629,-2.4603,-2.4629,-2.4629,-2.4609,-2.4596,-2.4416,-2.4295,-2.4142,-2.3981,-2.1123,-2.0845,-2.0608,-2.0378,-2.0162,-1.9815,-1.97,-1.9707,-1.9475,-1.9366,-1.9366,-1.9366,-1.9646,-2.008,-2.0194,-2.0555,-2.1062,-2.1102,-2.1102,-2.1102,-2.1102,-2.1102,-2.1102,-2.1102,-2.1102,-2.1102,-2.1102,-2.1102,-2.1102,-2.1102,-2.1102,-2.1116,-2.1189,-2.1376,-2.167,-2.1957,-2.2245,-2.2532,-2.2759,-2.2866,-2.2859,-2.2866,-2.2866,-2.2866,-2.2866,-2.2866,-2.2866,-2.2866,-2.2866,-2.2722,-2.2722,-2.2585,-2.2173,-2.248,-2.2199,-2.1333,-2.0653,-2.0388,-2.0249,-1.9686,-1.9401,-1.9122,-1.8843,-1.8719,-1.8735,-1.8158,-1.7288,-1.6836,-1.7564,-1.8153,-1.8746,-1.873,-1.8417,-1.8121,-1.8703,-1.9139,-1.8988,-1.8422,-1.8476,-1.9093,-1.9446,-1.9774,-1.9997,-2.0289,-2.0933,-2.1473,-2.1828,-2.2165,-2.2651,-2.2862,-2.3185,-2.334,-2.3166,-2.3445,-2.4199,-2.4186,-2.4341,-2.4341,-2.4341,-2.4341,-2.4488,-2.4488,-2.4629,-2.4629,-2.4629,-2.4629,-2.4629,-2.4629,-2.4629,-2.4629,-2.4629,-2.4623,-2.4556,-2.4429,-2.4349,-2.0111,-2.0256,-1.9931,-1.9815,-1.9809,-1.9597,-1.9488,-1.9482,-1.9366,-1.9366,-1.9366,-1.9366,-1.9533,-1.9853,-2.012,-2.0548,-2.1042,-2.1096,-2.1102,-2.1102,-2.1102,-2.1102,-2.1102,-2.1102,-2.1102,-2.1102,-2.1102,-2.1102,-2.1102,-2.1102,-2.1102,-2.1116,-2.1376,-2.1663,-2.1944,-2.2225,-2.2539,-2.2786,-2.2846,-2.2866,-2.2866,-2.2866,-2.2866,-2.2859,-2.2866,-2.2866,-2.2866,-2.2866,-2.2729,-2.231,-2.231,-2.2179,-2.1897,-2.1772,-2.1189,-1.9889,-1.9652,-1.9541,-1.9128,-1.8988,-1.8708,-1.8142,-1.7861,-1.7731,-1.7616,-1.7031,-1.6296,-1.5292,-1.573,-1.6315,-1.7168,-1.7314,-1.7303,-1.7303,-1.8054,-1.8059,-1.7465,-1.7612,-1.8026,-1.8226,-1.8677,-1.9182,-1.9845,-2.0047,-2.0312,-2.0796,-2.1181,-2.1193,-2.1354,-2.1869,-2.2343,-2.2313,-2.2433,-2.2713,-2.347,-2.3754,-2.36,-2.3593,-2.389,-2.4038,-2.4186,-2.4334,-2.4482,-2.4636,-2.4649,-2.4649,-2.4636,-2.4629,-2.4482,-2.4488,-2.4636,-2.4636,-2.4636,-2.4629,-2.4569,-1.9248,-1.9435,-1.951,-1.9591,-1.9482,-1.9488,-1.9366,-1.9366,-1.9366,-1.9366,-1.9366,-1.9366,-1.9526,-1.982,-2.01,-2.0448,-2.0835,-2.1022,-2.1102,-2.1102,-2.1102,-2.1102,-2.1102,-2.1102,-2.1102,-2.1102,-2.1102,-2.1102,-2.1102,-2.1102,-2.1102,-2.1156,-2.141,-2.1697,-2.1984,-2.2271,-2.2565,-2.2832,-2.2866,-2.2866,-2.2866,-2.2866,-2.2729,-2.2585,-2.2722,-2.2722,-2.2448,-2.2454,-2.231,-2.2035,-2.2035,-2.176,-2.1075,-2.0659,-1.964,-1.8331,-1.853,-1.8708,-1.8282,-1.7856,-1.7434,-1.7152,-1.6734,-1.6759,-1.6935,-1.6344,-1.5314,-1.4583,-1.4884,-1.5465,-1.5603,-1.6028,-1.6169,-1.6018,-1.6915,-1.7425,-1.6925,-1.6563,-1.6644,-1.7253,-1.7748,-1.8264,-1.8731,-1.8963,-1.9306,-1.9833,-1.9854,-2.0,-2.0307,-2.0944,-2.1418,-2.1401,-2.1199,-2.1014,-2.1972,-2.3005,-2.3445,-2.3445,-2.3593,-2.3593,-2.3735,-2.3742,-2.3742,-2.4044,-2.4212,-2.4212,-2.4044,-2.4186,-2.4186,-2.4186,-2.4341,-2.4488,-2.4629,-2.4482,-2.4482,-1.8874,-1.8931,-1.9138,-1.9285,-1.9366,-1.9366,-1.9366,-1.9366,-1.9366,-1.9366,-1.9366,-1.9366,-1.9479,-1.9693,-1.9967,-2.0254,-2.0561,-2.0922,-2.1102,-2.1102,-2.1102,-2.1102,-2.1102,-2.1102,-2.1102,-2.1102,-2.1102,-2.1102,-2.1102,-2.1102,-2.1102,-2.1122,-2.149,-2.179,-2.2011,-2.2365,-2.2672,-2.2832,-2.2866,-2.2866,-2.2866,-2.2722,-2.2585,-2.231,-2.2448,-2.2448,-2.2173,-2.2173,-2.1897,-2.149,-2.149,-2.1081,-2.0394,-1.9686,-1.8675,-1.7503,-1.7689,-1.7726,-1.7303,-1.6739,-1.631,-1.6169,-1.5749,-1.5776,-1.6387,-1.5355,-1.4324,-1.3884,-1.3888,-1.4185,-1.4328,-1.4466,-1.4746,-1.4888,-1.5965,-1.6501,-1.6039,-1.5699,-1.5869,-1.6526,-1.6974,-1.727,-1.7535,-1.7868,-1.8172,-1.8633,-1.8779,-1.8936,-1.9239,-1.986,-2.0491,-2.0653,-1.9989,-1.9811,-2.0285,-2.1187,-2.2097,-2.2253,-2.2694,-2.2843,-2.2999,-2.3147,-2.3147,-2.3451,-2.3457,-2.3606,-2.36,-2.3587,-2.3735,-2.3742,-2.389,-2.4044,-2.4038,-2.4186,-2.4186,-1.8637,-1.8865,-1.8925,-1.9105,-1.9312,-1.9359,-1.9366,-1.9366,-1.9366,-1.9366,-1.9366,-1.9366,-1.9386,-1.9452,-1.9726,-1.998,-2.0287,-2.0802,-2.1076,-2.1102,-2.1102,-2.1102,-2.1102,-2.1102,-2.1102,-2.1102,-2.1102,-2.1102,-2.1102,-2.1102,-2.1102,-2.1209,-2.165,-2.1911,-2.1984,-2.2492,-2.2819,-2.2859,-2.2859,-2.2866,-2.2866,-2.2448,-2.2304,-2.2173,-2.1897,-2.1766,-2.176,-2.1766,-2.1352,-2.0804,-2.0671,-2.0266,-1.9587,-1.8724,-1.7996,-1.7258,-1.6861,-1.6593,-1.6183,-1.5753,-1.5323,-1.5044,-1.4906,-1.4914,-1.4936,-1.4344,-1.3611,-1.3035,-1.2896,-1.3043,-1.319,-1.3186,-1.3476,-1.4483,-1.4914,-1.5162,-1.5125,-1.5066,-1.5337,-1.5807,-1.6168,-1.6343,-1.6653,-1.6963,-1.7111,-1.7407,-1.7716,-1.7873,-1.8025,-1.8491,-1.8977,-1.9453,-1.8946,-1.8582,-1.89,-1.9369,-2.014,-2.091,-2.1349,-2.1798,-2.2103,-2.2408,-2.2551,-2.2707,-2.2707,-2.2707,-2.2539,-2.2682,-2.2992,-2.3147,-2.3296,-2.3445,-2.3742,-2.3742,-2.3593,-1.8243,-1.837,-1.8758,-1.8971,-1.9092,-1.9279,-1.9366,-1.9366,-1.9366,-1.9366,-1.9366,-1.9366,-1.9366,-1.9432,-1.9673,-1.9853,-1.998,-2.0535,-2.0915,-2.1069,-2.1102,-2.1102,-2.1102,-2.1102,-2.1102,-2.1102,-2.1102,-2.1102,-2.1102,-2.1102,-2.1102,-2.1189,-2.1496,-2.179,-2.1997,-2.2358,-2.2639,-2.2839,-2.2585,-2.2448,-2.2448,-2.2173,-2.1897,-2.149,-2.122,-2.0943,-2.0671,-2.0943,-2.0659,-1.9965,-1.9686,-1.9581,-1.92,-1.7882,-1.6564,-1.5844,-1.5867,-1.5749,-1.5332,-1.4759,-1.4328,-1.4189,-1.3757,-1.3622,-1.363,-1.3337,-1.3035,-1.2602,-1.261,-1.29,-1.29,-1.29,-1.2945,-1.3336,-1.3853,-1.4147,-1.4199,-1.4119,-1.4271,-1.4491,-1.4972,-1.5429,-1.5582,-1.5893,-1.6352,-1.6501,-1.6658,-1.6811,-1.6815,-1.7431,-1.775,-1.8069,-1.755,-1.7208,-1.7678,-1.8153,-1.8779,-1.9547,-2.0145,-2.0748,-2.1204,-2.151,-2.1654,-2.196,-2.196,-2.1798,-2.1631,-2.178,-2.2247,-2.2551,-2.2701,-2.2999,-2.329,-2.329,-2.2999,-1.7943,-1.809,-1.8444,-1.8738,-1.8925,-1.9132,-1.9265,-1.9352,-1.9366,-1.9366,-1.9366,-1.9366,-1.9366,-1.9406,-1.9566,-1.97,-1.9846,-2.0301,-2.0668,-2.0942,-2.1082,-2.1102,-2.1102,-2.1102,-2.1102,-2.1102,-2.1102,-2.1102,-2.1102,-2.1102,-2.1102,-2.1156,-2.141,-2.1704,-2.1984,-2.2278,-2.2565,-2.2676,-2.2448,-2.231,-2.2035,-2.1622,-2.1214,-2.0937,-2.0382,-1.9831,-1.9558,-1.9552,-1.9541,-1.9133,-1.8719,-1.8622,-1.8666,-1.7193,-1.5726,-1.4858,-1.4733,-1.4897,-1.4474,-1.3904,-1.3472,-1.3472,-1.3039,-1.2757,-1.2764,-1.2621,-1.2466,-1.218,-1.2183,-1.233,-1.2327,-1.2327,-1.2424,-1.2482,-1.3107,-1.3401,-1.321,-1.3516,-1.3733,-1.3895,-1.4203,-1.4507,-1.4661,-1.4818,-1.5279,-1.5279,-1.5433,-1.5586,-1.5897,-1.6523,-1.6834,-1.6824,-1.6321,-1.6303,-1.646,-1.6936,-1.7416,-1.8177,-1.8936,-1.9542,-2.0151,-2.0302,-2.0452,-2.0927,-2.1239,-2.0887,-2.072,-2.1031,-2.1349,-2.1654,-2.196,-2.2109,-2.2259,-2.2259,-2.2109,-1.7756,-1.8009,-1.805,-1.8377,-1.8818,-1.8911,-1.9085,-1.9299,-1.9359,-1.9366,-1.9366,-1.9366,-1.9366,-1.9366,-1.9412,-1.9533,-1.9786,-2.006,-2.0368,-2.0661,-2.0902,-2.1056,-2.1102,-2.1102,-2.1102,-2.1102,-2.1102,-2.1102,-2.1102,-2.1102,-2.1102,-2.1136,-2.1363,-2.1663,-2.1917,-2.2245,-2.2235,-2.2206,-2.2147,-2.1897,-2.1622,-2.1081,-2.0665,-2.0521,-1.9552,-1.8848,-1.8428,-1.8002,-1.8007,-1.8158,-1.7908,-1.7647,-1.7091,-1.65,-1.5172,-1.3859,-1.3884,-1.3896,-1.3757,-1.3186,-1.2757,-1.2757,-1.2757,-1.2613,-1.2341,-1.2194,-1.2047,-1.176,-1.176,-1.1616,-1.176,-1.176,-1.1894,-1.2144,-1.2831,-1.2979,-1.2577,-1.3109,-1.3428,-1.3586,-1.3586,-1.3586,-1.3737,-1.3895,-1.3895,-1.3895,-1.4199,-1.4661,-1.4972,-1.5441,-1.6063,-1.5897,-1.5416,-1.5242,-1.5395,-1.5871,-1.6501,-1.6959,-1.7721,-1.8329,-1.8941,-1.9093,-1.9401,-1.9876,-2.0184,-1.9838,-1.9817,-1.9978,-2.0291,-2.0753,-2.091,-2.0915,-2.1066,-2.121,-2.1204,-1.7629,-1.7729,-1.7949,-1.8136,-1.8343,-1.8718,-1.8958,-1.9065,-1.9279,-1.9345,-1.9366,-1.9366,-1.9366,-1.9366,-1.9366,-1.9419,-1.9559,-1.98,-2.0074,-2.0354,-2.0648,-2.0915,-2.1069,-2.1102,-2.1102,-2.1102,-2.1102,-2.1102,-2.1102,-2.1102,-2.1102,-2.1109,-2.1196,-2.1255,-2.1273,-2.1575,-2.171,-2.159,-2.1264,-2.1075,-2.0937,-2.0243,-1.9686,-1.9407,-1.8854,-1.8142,-1.7575,-1.6729,-1.6452,-1.6749,-1.7223,-1.6808,-1.5776,-1.4604,-1.3587,-1.3294,-1.3167,-1.3039,-1.3039,-1.2617,-1.2334,-1.2334,-1.2191,-1.1903,-1.1763,-1.1763,-1.1763,-1.1616,-1.1616,-1.1616,-1.1616,-1.163,-1.1772,-1.2023,-1.2532,-1.2699,-1.2618,-1.2652,-1.2811,-1.2811,-1.2807,-1.2962,-1.3274,-1.3432,-1.359,-1.3586,-1.3737,-1.3891,-1.4203,-1.4676,-1.515,-1.5,-1.4676,-1.4341,-1.433,-1.4956,-1.5429,-1.5893,-1.6501,-1.6963,-1.7569,-1.7868,-1.8339,-1.8967,-1.881,-1.8628,-1.8461,-1.8608,-1.9072,-1.9542,-1.9698,-1.9698,-1.9995,-2.014,-2.014,-1.7589,-1.7595,-1.7776,-1.7929,-1.8076,-1.841,-1.8691,-1.8925,-1.9098,-1.9259,-1.9339,-1.9366,-1.9366,-1.9366,-1.9366,-1.9366,-1.9406,-1.9666,-1.9893,-2.0094,-2.0494,-2.0828,-2.1042,-2.1102,-2.1102,-2.1102,-2.1102,-2.1102,-2.1102,-2.1102,-2.0982,-2.0862,-2.0856,-2.0886,-2.0786,-2.1056,-2.1067,-2.0953,-2.0802,-2.0527,-1.997,-1.9407,-1.8982,-1.8428,-1.7866,-1.7163,-1.631,-1.5461,-1.5186,-1.5625,-1.6084,-1.5951,-1.507,-1.3603,-1.2727,-1.243,-1.2456,-1.2617,-1.2474,-1.2194,-1.191,-1.1907,-1.1763,-1.1619,-1.1616,-1.1616,-1.1616,-1.1616,-1.1616,-1.1616,-1.1643,-1.1725,-1.1877,-1.206,-1.2328,-1.2494,-1.2501,-1.2501,-1.2501,-1.2501,-1.2498,-1.2494,-1.2811,-1.312,-1.312,-1.312,-1.3123,-1.3278,-1.3432,-1.391,-1.4075,-1.4072,-1.3906,-1.3414,-1.356,-1.4034,-1.4507,-1.4972,-1.5279,-1.5739,-1.6348,-1.6802,-1.7116,-1.7435,-1.7431,-1.7421,-1.7402,-1.7388,-1.7859,-1.8168,-1.8324,-1.8476,-1.8774,-1.8931,-1.8926,-1.7589,-1.7589,-1.7589,-1.7742,-1.7969,-1.805,-1.8357,-1.8764,-1.8911,-1.9078,-1.9265,-1.9345,-1.9366,-1.9366,-1.9366,-1.9366,-1.9379,-1.9599,-1.9786,-2.004,-2.0421,-2.0828,-2.1076,-2.1102,-2.1102,-2.1102,-2.1102,-2.1102,-2.1102,-2.1109,-2.0856,-2.0736,-2.0609,-2.0477,-2.0301,-2.0585,-2.0495,-2.0201,-2.0167,-1.9773,-1.9117,-1.8428,-1.8002,-1.7585,-1.6593,-1.5753,-1.5044,-1.4328,-1.4185,-1.4763,-1.4794,-1.4802,-1.4508,-1.3337,-1.2456,-1.1872,-1.2033,-1.2194,-1.2051,-1.1907,-1.1619,-1.1619,-1.1619,-1.1616,-1.1616,-1.1616,-1.1616,-1.1616,-1.1616,-1.1616,-1.165,-1.186,-1.1993,-1.2237,-1.2318,-1.2457,-1.2498,-1.2501,-1.2501,-1.2501,-1.2501,-1.2501,-1.2501,-1.2501,-1.2501,-1.2811,-1.2814,-1.2814,-1.2965,-1.3123,-1.3285,-1.3436,-1.3112,-1.2632,-1.2947,-1.3263,-1.3583,-1.4049,-1.4203,-1.4511,-1.5279,-1.5735,-1.5897,-1.6055,-1.6199,-1.6343,-1.6173,-1.6478,-1.6793,-1.7107,-1.7412,-1.7407,-1.7402,-1.7564,-1.7564,-1.7589,-1.7589,-1.7589,-1.7622,-1.7716,-1.7936,-1.8123,-1.8283,-1.8724,-1.8931,-1.9065,-1.9252,-1.9352,-1.9366,-1.9366,-1.9366,-1.9366,-1.9479,-1.9679,-2.018,-2.0488,-2.0828,-2.1049,-2.1096,-2.1102,-2.1102,-2.1102,-2.1109,-2.1109,-2.0862,-2.0609,-2.0609,-2.0227,-2.0004,-1.9585,-1.9719,-1.9555,-1.9148,-1.8851,-1.8666,-1.839,-1.7575,-1.6875,-1.6461,-1.547,-1.4759,-1.4185,-1.3757,-1.3329,-1.348,-1.3777,-1.3789,-1.334,-1.247,-1.1886,-1.1743,-1.1606,-1.1763,-1.1763,-1.1619,-1.1616,-1.1616,-1.1616,-1.1616,-1.1616,-1.1616,-1.1616,-1.1616,-1.1616,-1.1616,-1.164,-1.1772,-1.1932,-1.222,-1.223,-1.2393,-1.2471,-1.2501,-1.2501,-1.2501,-1.2501,-1.2501,-1.2501,-1.2501,-1.2501,-1.2501,-1.2501,-1.2501,-1.2501,-1.2498,-1.2807,-1.2965,-1.2807,-1.2484,-1.2642,-1.2962,-1.312,-1.3432,-1.3432,-1.3432,-1.4203,-1.4511,-1.4665,-1.4972,-1.5279,-1.5267,-1.5259,-1.5565,-1.588,-1.619,-1.6352,-1.6195,-1.619,-1.6348,-1.6348,-1.7589,-1.7589,-1.7589,-1.7589,-1.7609,-1.7756,-1.7909,-1.8083,-1.8357,-1.8671,-1.8911,-1.9105,-1.9232,-1.9366,-1.9366,-1.9366,-1.9366,-1.9372,-1.9599,-2.0013,-2.0327,-2.0621,-2.0902,-2.1042,-2.1102,-2.1102,-2.1102,-2.0982,-2.0862,-2.0609,-2.0475,-2.0094,-1.9839,-1.934,-1.8857,-1.8806,-1.8479,-1.8278,-1.79,-1.7728,-1.7132,-1.6831,-1.5886,-1.5323,-1.4474,-1.4043,-1.3468,-1.3043,-1.276,-1.2621,-1.2775,-1.2922,-1.2772,-1.2043,-1.1609,-1.1609,-1.1613,-1.1616,-1.1616,-1.1616,-1.1616,-1.1616,-1.1616,-1.1616,-1.1616,-1.1616,-1.1616,-1.1616,-1.1616,-1.1619,-1.163,-1.1748,-1.1894,-1.2047,-1.2196,-1.2342,-1.2461,-1.2501,-1.2501,-1.2501,-1.2501,-1.2501,-1.2501,-1.2501,-1.2501,-1.2501,-1.2501,-1.2501,-1.2501,-1.2501,-1.2501,-1.2656,-1.2656,-1.2498,-1.2498,-1.2656,-1.2811,-1.2965,-1.2965,-1.2965,-1.3274,-1.3428,-1.3432,-1.3891,-1.4353,-1.4357,-1.4503,-1.481,-1.496,-1.4968,-1.4972,-1.4972,-1.4972,-1.4972,-1.4968,-1.7589,-1.7589,-1.7589,-1.7589,-1.7589,-1.7595,-1.7729,-1.7949,-1.8036,-1.839,-1.8798,-1.8891,-1.9118,-1.9319,-1.9366,-1.9366,-1.9366,-1.9386,-1.9566,-1.9853,-2.006,-2.0381,-2.0675,-2.0902,-2.0923,-2.0969,-2.0982,-2.0862,-2.0609,-2.0348,-1.9966,-1.9577,-1.9072,-1.8559,-1.8231,-1.7973,-1.7461,-1.7188,-1.7042,-1.6756,-1.602,-1.5892,-1.5119,-1.4185,-1.3757,-1.3329,-1.2904,-1.2477,-1.2194,-1.2054,-1.1763,-1.2058,-1.2205,-1.2058,-1.1616,-1.1616,-1.1616,-1.1616,-1.1616,-1.1616,-1.1616,-1.1616,-1.1616,-1.1616,-1.1616,-1.1616,-1.1616,-1.1616,-1.1616,-1.1616,-1.163,-1.1708,-1.185,-1.1993,-1.2142,-1.2288,-1.2423,-1.2467,-1.2461,-1.2501,-1.2501,-1.2501,-1.2501,-1.2501,-1.2501,-1.2501,-1.2501,-1.2501,-1.2501,-1.2501,-1.2501,-1.2501,-1.2501,-1.2501,-1.2501,-1.2501,-1.2656,-1.2656,-1.2656,-1.2656,-1.2656,-1.2811,-1.2965,-1.3278,-1.3583,-1.3583,-1.3579,-1.3722,-1.3726,-1.3583,-1.3898,-1.4203,-1.4049,-1.3744,-1.374,-1.7589,-1.7589,-1.7589,-1.7589,-1.7589,-1.7589,-1.7622,-1.7702,-1.7929,-1.8237,-1.8564,-1.8818,-1.9065,-1.9292,-1.9366,-1.9366,-1.9366,-1.9386,-1.9506,-1.9733,-1.99,-2.0154,-2.0458,-2.0499,-2.0526,-2.069,-2.0609,-2.0482,-2.0354,-1.9839,-1.9328,-1.8944,-1.8302,-1.7658,-1.7276,-1.6941,-1.654,-1.6125,-1.5888,-1.5526,-1.5197,-1.478,-1.4198,-1.3448,-1.3186,-1.2757,-1.2477,-1.2194,-1.2051,-1.1763,-1.1619,-1.1619,-1.1763,-1.1619,-1.1616,-1.1616,-1.1616,-1.1616,-1.1616,-1.1616,-1.1616,-1.1616,-1.1616,-1.1616,-1.1616,-1.1616,-1.1616,-1.1616,-1.1616,-1.1616,-1.1616,-1.166,-1.1728,-1.184,-1.1932,-1.2047,-1.225,-1.2498,-1.2539,-1.2454,-1.2478,-1.2501,-1.2501,-1.2501,-1.2501,-1.2501,-1.2501,-1.2501,-1.2501,-1.2501,-1.2501,-1.2501,-1.2501,-1.2501,-1.2501,-1.2501,-1.2501,-1.2501,-1.2501,-1.2501,-1.2501,-1.2501,-1.2656,-1.2965,-1.2962,-1.2958,-1.2797,-1.2793,-1.2951,-1.327,-1.3432,-1.359,-1.359,-1.3432,-1.3432,-1.7589,-1.7589,-1.7589,-1.7589,-1.7589,-1.7589,-1.7589,-1.7602,-1.7749,-1.7983,-1.8283,-1.8571,-1.8865,-1.9118,-1.9319,-1.9366,-1.9366,-1.9366,-1.9452,-1.9586,-1.9746,-1.9893,-2.0209,-2.0094,-2.0222,-2.0157,-1.9973,-1.9845,-1.9839,-1.9334,-1.8816,-1.8173,-1.7529,-1.7007,-1.6488,-1.5984,-1.5512,-1.5092,-1.4787,-1.4517,-1.4194,-1.3649,-1.3157,-1.2858,-1.2617,-1.2334,-1.1903,-1.1907,-1.1763,-1.1619,-1.1616,-1.1616,-1.1616,-1.1616,-1.1616,-1.1616,-1.1616,-1.1616,-1.1616,-1.1616,-1.1616,-1.1616,-1.1616,-1.1616,-1.1616,-1.1616,-1.1616,-1.1616,-1.1616,-1.1616,-1.1616,-1.1616,-1.1687,-1.1792,-1.183,-1.1938,-1.2115,-1.2381,-1.2464,-1.2386,-1.2437,-1.2467,-1.2501,-1.2501,-1.2501,-1.2501,-1.2501,-1.2501,-1.2501,-1.2501,-1.2501,-1.2501,-1.2501,-1.2501,-1.2501,-1.2501,-1.2501,-1.2501,-1.2501,-1.2501,-1.2501,-1.2501,-1.2501,-1.2656,-1.2498,-1.2494,-1.2494,-1.2649,-1.2804,-1.2962,-1.2965,-1.3123,-1.3123,-1.3123,-1.3105,-1.7589,-1.7589,-1.7589,-1.7589,-1.7589,-1.7589,-1.7589,-1.7589,-1.7595,-1.7776,-1.8056,-1.8303,-1.8604,-1.8931,-1.9205,-1.9366,-1.9366,-1.9366,-1.9379,-1.9426,-1.9462,-1.9615,-1.967,-1.9717,-1.9843,-1.9562,-1.9322,-1.9078,-1.9072,-1.8688,-1.8173,-1.7529,-1.7007,-1.6359,-1.5714,-1.5062,-1.4534,-1.4191,-1.402,-1.3591,-1.2938,-1.2631,-1.2313,-1.2176,-1.2194,-1.1907,-1.1619,-1.1619,-1.1616,-1.1616,-1.1616,-1.1616,-1.1616,-1.1616,-1.1616,-1.1616,-1.1616,-1.1616,-1.1616,-1.1616,-1.1616,-1.1616,-1.1616,-1.1616,-1.1616,-1.1616,-1.1616,-1.1616,-1.1616,-1.1616,-1.1616,-1.1616,-1.167,-1.1738,-1.1786,-1.1843,-1.1979,-1.2088,-1.2162,-1.225,-1.2359,-1.2427,-1.2457,-1.2501,-1.2501,-1.2501,-1.2501,-1.2501,-1.2501,-1.2501,-1.2501,-1.2501,-1.2501,-1.2501,-1.2501,-1.2501,-1.2501,-1.2501,-1.2501,-1.2501,-1.2501,-1.2501,-1.2501,-1.2501,-1.2501,-1.2498,-1.2501,-1.2498,-1.2652,-1.2652,-1.2501,-1.2656,-1.2656,-1.2765,-1.2717,-1.7589,-1.7589,-1.7589,-1.7589,-1.7589,-1.7589,-1.7589,-1.7589,-1.7589,-1.7762,-1.8009,-1.8116,-1.8424,-1.8885,-1.9212,-1.9345,-1.9366,-1.9366,-1.9366,-1.9379,-1.9199,-1.9129,-1.9257,-1.8928,-1.8989,-1.8884,-1.8715,-1.881,-1.8688,-1.7781,-1.726,-1.6748,-1.5839,-1.5062,-1.4931,-1.4272,-1.3748,-1.3099,-1.2997,-1.2751,-1.2467,-1.2124,-1.2154,-1.1994,-1.1903,-1.1619,-1.1619,-1.1616,-1.1616,-1.1616,-1.1616,-1.1616,-1.1616,-1.1616,-1.1616,-1.1616,-1.1616,-1.1616,-1.1616,-1.1616,-1.1616,-1.1616,-1.1616,-1.1616,-1.1616,-1.1616,-1.1616,-1.1616,-1.1616,-1.1616,-1.1616,-1.1616,-1.1633,-1.1647,-1.1677,-1.1735,-1.1843,-1.1948,-1.2023,-1.2084,-1.2179,-1.2315,-1.2403,-1.2457,-1.2501,-1.2501,-1.2501,-1.2498,-1.2501,-1.2501,-1.2501,-1.2501,-1.2501,-1.2501,-1.2501,-1.2501,-1.2501,-1.2501,-1.2501,-1.2501,-1.2501,-1.2501,-1.2501,-1.2501,-1.2501,-1.2481,-1.2457,-1.2461,-1.2488,-1.2478,-1.2447,-1.2467,-1.2501,-1.243,-1.2315,-1.7589,-1.7589,-1.7589,-1.7589,-1.7589,-1.7589,-1.7589,-1.7589,-1.7589,-1.7655,-1.7802,-1.7989,-1.837,-1.8858,-1.9078,-1.9212,-1.9332,-1.9366,-1.9243,-1.912,-1.9023,-1.8914,-1.8684,-1.8499,-1.8239,-1.8238,-1.7915,-1.7535,-1.7591,-1.726,-1.6742,-1.5839,-1.5192,-1.4543,-1.415,-1.349,-1.3099,-1.2572,-1.2192,-1.1899,-1.184,-1.1739,-1.1615,-1.1771,-1.1569,-1.1606,-1.1616,-1.1616,-1.1616,-1.1616,-1.1616,-1.1616,-1.1616,-1.1616,-1.1616,-1.1616,-1.1616,-1.1616,-1.1616,-1.1616,-1.1616,-1.1616,-1.1616,-1.1616,-1.1616,-1.1616,-1.1616,-1.1616,-1.1616,-1.1616,-1.1616,-1.1616,-1.1616,-1.1616,-1.1616,-1.1647,-1.1721,-1.1653,-1.1737,-1.1791,-1.1854,-1.2132,-1.225,-1.2305,-1.2369,-1.244,-1.245,-1.2457,-1.2478,-1.2501,-1.2501,-1.2501,-1.2501,-1.2501,-1.2501,-1.2501,-1.2501,-1.2501,-1.2501,-1.2501,-1.2501,-1.2501,-1.2474,-1.2481,-1.2488,-1.2461,-1.2413,-1.2427,-1.2454,-1.242,-1.2379,-1.2362,-1.2338,-1.2254,-1.2155,-1.7589,-1.7589,-1.7589,-1.7589,-1.7589,-1.7589,-1.7589,-1.7589,-1.7589,-1.7589,-1.7669,-1.7909,-1.8337,-1.8751,-1.8911,-1.9105,-1.9359,-1.9366,-1.912,-1.8997,-1.8674,-1.8418,-1.822,-1.7859,-1.7765,-1.7702,-1.7163,-1.6674,-1.6436,-1.6359,-1.5834,-1.4931,-1.4543,-1.4024,-1.3367,-1.2836,-1.2441,-1.1912,-1.138,-1.1206,-1.1354,-1.1193,-1.1351,-1.1365,-1.1494,-1.1579,-1.1613,-1.1616,-1.1616,-1.1616,-1.1616,-1.1616,-1.1616,-1.1616,-1.1616,-1.1616,-1.1616,-1.1616,-1.1616,-1.1616,-1.1616,-1.1616,-1.1616,-1.1616,-1.1616,-1.1616,-1.1616,-1.1616,-1.1616,-1.1616,-1.1616,-1.1616,-1.1616,-1.1616,-1.1616,-1.1616,-1.163,-1.1566,-1.1606,-1.1633,-1.1693,-1.1767,-1.2023,-1.2108,-1.2213,-1.2345,-1.2393,-1.2403,-1.2406,-1.2413,-1.2416,-1.24,-1.242,-1.2437,-1.2488,-1.2491,-1.2494,-1.2478,-1.2474,-1.2457,-1.243,-1.241,-1.2386,-1.2406,-1.242,-1.2342,-1.2237,-1.2328,-1.2406,-1.2308,-1.222,-1.2179,-1.2132,-1.2054,-1.1976,-1.7589,-1.7589,-1.7589,-1.7589,-1.7589,-1.7589,-1.7589,-1.7589,-1.7589,-1.7589,-1.7622,-1.7896,-1.819,-1.8517,-1.8784,-1.9038,-1.9345,-1.9113,-1.8881,-1.8655,-1.8317,-1.7991,-1.7618,-1.7422,-1.7028,-1.6577,-1.6249,-1.5844,-1.5269,-1.5047,-1.4922,-1.4805,-1.4019,-1.3367,-1.284,-1.2441,-1.1912,-1.1383,-1.0982,-1.0919,-1.089,-1.0985,-1.1104,-1.1307,-1.1399,-1.1467,-1.1603,-1.1613,-1.1616,-1.1616,-1.1616,-1.1616,-1.1616,-1.1616,-1.1616,-1.1616,-1.1616,-1.1616,-1.1616,-1.1616,-1.1616,-1.1616,-1.1616,-1.1616,-1.1616,-1.1616,-1.1616,-1.1616,-1.1616,-1.1616,-1.1616,-1.1616,-1.1616,-1.1616,-1.1616,-1.1616,-1.1616,-1.1623,-1.1657,-1.164,-1.1687,-1.1633,-1.167,-1.1904,-1.2054,-1.2189,-1.222,-1.223,-1.2354,-1.2361,-1.2395,-1.2409,-1.2443,-1.2498,-1.245,-1.2447,-1.2379,-1.2369,-1.2372,-1.2342,-1.2308,-1.2291,-1.2271,-1.2227,-1.221,-1.2289,-1.224,-1.2155,-1.2179,-1.2118,-1.206,-1.2023,-1.1969,-1.1901,-1.1809,-1.7589,-1.7589,-1.7589,-1.7589,-1.7589,-1.7589,-1.7589,-1.7589,-1.7589,-1.7589,-1.7589,-1.7722,-1.7929,-1.823,-1.8524,-1.8698,-1.8856,-1.8938,-1.8629,-1.8311,-1.7843,-1.7491,-1.7191,-1.6663,-1.6096,-1.5729,-1.5457,-1.5037,-1.4451,-1.4061,-1.3613,-1.3363,-1.3231,-1.2836,-1.2441,-1.1912,-1.1383,-1.1118,-1.085,-1.0761,-1.0802,-1.0911,-1.1006,-1.1097,-1.1341,-1.1399,-1.1484,-1.1572,-1.1603,-1.1616,-1.1616,-1.1616,-1.1616,-1.1616,-1.1616,-1.1616,-1.1616,-1.1616,-1.1616,-1.1616,-1.1616,-1.1616,-1.1616,-1.1616,-1.1616,-1.1616,-1.1616,-1.1616,-1.1616,-1.1616,-1.1616,-1.1616,-1.1616,-1.1616,-1.1616,-1.1616,-1.1616,-1.1616,-1.1619,-1.1626,-1.163,-1.1667,-1.1684,-1.1704,-1.187,-1.2026,-1.2043,-1.205,-1.2175,-1.2172,-1.2213,-1.2104,-1.2138,-1.2326,-1.2274,-1.2267,-1.2244,-1.2257,-1.2264,-1.2216,-1.2172,-1.2155,-1.2125,-1.222,-1.2172,-1.1993,-1.1976,-1.1831,-1.1814,-1.1935,-1.1904,-1.1874,-1.1813,-1.1759,-1.1697,-1.7589,-1.7589,-1.7589,-1.7589,-1.7589,-1.7589,-1.7589,-1.7589,-1.7589,-1.7589,-1.7589,-1.7595,-1.7756,-1.8043,-1.8141,-1.8368,-1.8431,-1.8416,-1.8216,-1.7929,-1.7491,-1.702,-1.6554,-1.6131,-1.5648,-1.509,-1.4375,-1.3824,-1.3607,-1.2959,-1.2771,-1.2549,-1.2437,-1.2177,-1.1912,-1.1383,-1.0982,-1.0717,-1.0721,-1.0721,-1.0744,-1.0812,-1.0921,-1.0965,-1.1151,-1.1301,-1.1389,-1.1491,-1.1565,-1.1596,-1.1616,-1.1616,-1.1616,-1.1616,-1.1616,-1.1616,-1.1616,-1.1616,-1.1616,-1.1616,-1.1616,-1.1616,-1.1616,-1.1616,-1.1616,-1.1616,-1.1616,-1.1616,-1.1616,-1.1616,-1.1616,-1.1616,-1.1616,-1.1616,-1.1616,-1.1616,-1.1616,-1.1616,-1.1616,-1.1619,-1.1623,-1.1623,-1.1633,-1.165,-1.1714,-1.1837,-1.1833,-1.1847,-1.185,-1.186,-1.1901,-1.1797,-1.1834,-1.2023,-1.2064,-1.2101,-1.2138,-1.2149,-1.2142,-1.2071,-1.2033,-1.201,-1.1952,-1.187,-1.184,-1.1853,-1.184,-1.1667,-1.1792,-1.1772,-1.1755,-1.1752,-1.1725,-1.1681,-1.1664,-1.7589,-1.7589,-1.7589,-1.7589,-1.7589,-1.7589,-1.7589,-1.7589,-1.7589,-1.7589,-1.7589,-1.7589,-1.7729,-1.7862,-1.7751,-1.7916,-1.8043,-1.7875,-1.7578,-1.7388,-1.7003,-1.6419,-1.6087,-1.5655,-1.5116,-1.4061,-1.3432,-1.2862,-1.2636,-1.2459,-1.2157,-1.186,-1.1626,-1.138,-1.1251,-1.0853,-1.0721,-1.0721,-1.0721,-1.0721,-1.0724,-1.0748,-1.0822,-1.09,-1.0989,-1.1138,-1.1311,-1.1406,-1.1494,-1.1599,-1.1616,-1.1616,-1.1616,-1.1616,-1.1616,-1.1616,-1.1616,-1.1616,-1.1616,-1.1616,-1.1616,-1.1616,-1.1616,-1.1616,-1.1616,-1.1616,-1.1616,-1.1616,-1.1616,-1.1616,-1.1616,-1.1616,-1.1616,-1.1616,-1.1616,-1.1616,-1.1616,-1.1616,-1.1616,-1.1616,-1.1616,-1.1619,-1.1619,-1.1619,-1.1623,-1.165,-1.163,-1.1647,-1.1691,-1.1721,-1.1626,-1.165,-1.169,-1.1717,-1.1911,-1.1993,-1.2033,-1.2043,-1.2003,-1.1918,-1.1874,-1.185,-1.1775,-1.1684,-1.1691,-1.1735,-1.1691,-1.1636,-1.166,-1.1691,-1.166,-1.1647,-1.1623,-1.1616,-1.1616,-1.7589,-1.7589,-1.7589,-1.7589,-1.7589,-1.7589,-1.7589,-1.7589,-1.7589,-1.7589,-1.7589,-1.7589,-1.7523,-1.7456,-1.7525,-1.7495,-1.7246,-1.7356,-1.7189,-1.6872,-1.644,-1.5941,-1.5612,-1.5038,-1.4475,-1.3448,-1.2686,-1.2048,-1.1819,-1.1772,-1.1531,-1.1225,-1.108,-1.0846,-1.0853,-1.0721,-1.0721,-1.0721,-1.0721,-1.0721,-1.0721,-1.0721,-1.0748,-1.0812,-1.089,-1.1036,-1.1229,-1.1307,-1.1447,-1.1579,-1.1603,-1.1616,-1.1616,-1.1616,-1.1616,-1.1616,-1.1616,-1.1616,-1.1616,-1.1616,-1.1616,-1.1616,-1.1616,-1.1616,-1.1616,-1.1616,-1.1616,-1.1616,-1.1616,-1.1616,-1.1616,-1.1616,-1.1616,-1.1616,-1.1616,-1.1616,-1.1616,-1.1616,-1.1616,-1.1616,-1.1616,-1.1616,-1.1616,-1.1616,-1.1616,-1.1616,-1.1616,-1.1616,-1.165,-1.1647,-1.1674,-1.1674,-1.1694,-1.1714,-1.1759,-1.1833,-1.1847,-1.183,-1.1792,-1.1728,-1.1697,-1.1714,-1.1691,-1.1647,-1.163,-1.1616,-1.1616,-1.1616,-1.1616,-1.1619,-1.1616,-1.1616,-1.1616,-1.1616,-1.1616,-1.7589,-1.7589,-1.7589,-1.7589,-1.7589,-1.7589,-1.7589,-1.7589,-1.7589,-1.7589,-1.7589,-1.7483,-1.7384,-1.7238,-1.7141,-1.7003,-1.6533,-1.6622,-1.6448,-1.6132,-1.5731,-1.5258,-1.4862,-1.455,-1.3842,-1.2893,-1.1975,-1.1341,-1.1204,-1.1064,-1.0987,-1.0854,-1.0798,-1.0707,-1.0721,-1.0721,-1.0721,-1.0721,-1.0721,-1.0721,-1.0721,-1.0721,-1.0721,-1.0755,-1.0822,-1.0941,-1.1087,-1.1233,-1.1382,-1.1501,-1.1582,-1.1609,-1.1616,-1.1616,-1.1616,-1.1616,-1.1616,-1.1616,-1.1616,-1.1616,-1.1616,-1.1616,-1.1616,-1.1616,-1.1616,-1.1616,-1.1616,-1.1616,-1.1616,-1.1616,-1.1616,-1.1616,-1.1616,-1.1616,-1.1616,-1.1616,-1.1616,-1.1616,-1.1616,-1.1616,-1.1616,-1.1616,-1.1616,-1.1616,-1.1616,-1.1616,-1.1616,-1.1616,-1.1616,-1.1616,-1.1616,-1.1623,-1.1626,-1.1653,-1.1664,-1.167,-1.1667,-1.1626,-1.1619,-1.1623,-1.1626,-1.166,-1.1633,-1.1616,-1.1616,-1.1616,-1.1616,-1.1616,-1.1616,-1.1616,-1.1616,-1.1616,-1.1616,-1.1616,-1.1616,-1.7589,-1.7589,-1.7589,-1.7589,-1.7589,-1.7589,-1.7589,-1.7589,-1.7589,-1.7589,-1.7582,-1.7279,-1.7173,-1.7073,-1.6555,-1.6359,-1.612,-1.6003,-1.5597,-1.5314,-1.4993,-1.4437,-1.4217,-1.4072,-1.3232,-1.2122,-1.1175,-1.0771,-1.0539,-1.0612,-1.0701,-1.0757,-1.069,-1.0714,-1.0721,-1.0721,-1.0721,-1.0721,-1.0721,-1.0721,-1.0721,-1.0721,-1.0721,-1.0734,-1.0761,-1.0846,-1.0972,-1.1101,-1.1246,-1.1385,-1.1521,-1.1582,-1.1613,-1.1616,-1.1616,-1.1616,-1.1616,-1.1616,-1.1616,-1.1616,-1.1616,-1.1616,-1.1616,-1.1616,-1.1616,-1.1616,-1.1616,-1.1616,-1.1616,-1.1616,-1.1616,-1.1616,-1.1616,-1.1616,-1.1616,-1.1616,-1.1616,-1.1616,-1.1616,-1.1616,-1.1616,-1.1616,-1.1616,-1.1616,-1.1616,-1.1616,-1.1616,-1.1616,-1.1616,-1.1616,-1.1616,-1.1616,-1.1619,-1.1619,-1.1616,-1.1616,-1.1616,-1.1616,-1.1616,-1.1619,-1.1616,-1.1616,-1.1616,-1.1616,-1.1616,-1.1616,-1.1616,-1.1616,-1.1616,-1.1616,-1.1616,-1.1616,-1.1616,-1.1616,-1.1616,-1.7589,-1.7589,-1.7589,-1.7589,-1.7589,-1.7589,-1.7589,-1.7589,-1.7589,-1.7483,-1.7285,-1.7279,-1.6961,-1.6537,-1.6217,-1.5958,-1.552,-1.5212,-1.4911,-1.4569,-1.4239,-1.3825,-1.3504,-1.3269,-1.2595,-1.176,-1.0789,-1.0204,-1.0306,-1.0503,-1.0476,-1.0531,-1.0653,-1.0694,-1.0714,-1.0721,-1.0721,-1.0721,-1.0721,-1.0721,-1.0721,-1.0721,-1.0721,-1.0721,-1.0721,-1.0802,-1.0914,-1.0985,-1.1138,-1.1355,-1.1423,-1.1491,-1.1616,-1.1616,-1.1616,-1.1616,-1.1616,-1.1616,-1.1616,-1.1616,-1.1616,-1.1616,-1.1616,-1.1616,-1.1616,-1.1616,-1.1616,-1.1616,-1.1616,-1.1616,-1.1616,-1.1616,-1.1616,-1.1616,-1.1616,-1.1616,-1.1616,-1.1616,-1.1616,-1.1616,-1.1616,-1.1616,-1.1616,-1.1616,-1.1616,-1.1616,-1.1616,-1.1616,-1.1616,-1.1616,-1.1616,-1.1616,-1.1616,-1.1616,-1.1616,-1.1616,-1.1616,-1.1616,-1.1616,-1.1616,-1.1616,-1.1616,-1.1616,-1.1616,-1.1616,-1.1616,-1.1616,-1.1616,-1.1616,-1.1616,-1.1616,-1.1616,-1.1616,-1.1616,-1.1616,-1.7482,-1.7575,-1.7589,-1.7589,-1.7589,-1.7589,-1.7582,-1.7483,-1.7483,-1.7384,-1.7179,-1.6967,-1.6537,-1.6217,-1.5897,-1.5482,-1.4956,-1.463,-1.4219,-1.3628,-1.3359,-1.2971,-1.2664,-1.2579,-1.2063,-1.1246,-1.0418,-0.994,-1.0131,-1.0177,-1.0273,-1.0497,-1.0602,-1.066,-1.07,-1.0721,-1.0721,-1.0721,-1.0721,-1.0721,-1.0721,-1.0721,-1.0721,-1.0721,-1.0721,-1.0785,-1.0856,-1.0897,-1.1077,-1.1284,-1.1331,-1.1463,-1.1586,-1.1616,-1.1616,-1.1616,-1.1616,-1.1616,-1.1616,-1.1616,-1.1616,-1.1616,-1.1616,-1.1616,-1.1616,-1.1616,-1.1616,-1.1616,-1.1616,-1.1616,-1.1616,-1.1616,-1.1616,-1.1616,-1.1616,-1.1616,-1.1616,-1.1616,-1.1616,-1.1616,-1.1616,-1.1616,-1.1616,-1.1616,-1.1616,-1.1616,-1.1616,-1.1616,-1.1616,-1.1616,-1.1616,-1.1616,-1.1616,-1.1616,-1.1616,-1.1616,-1.1616,-1.1616,-1.1616,-1.1616,-1.1616,-1.1616,-1.1616,-1.1616,-1.1616,-1.1616,-1.1616,-1.1616,-1.1616,-1.1616,-1.1616,-1.1616,-1.1616,-1.1616,-1.1616,-1.7301,-1.7549,-1.7575,-1.7582,-1.7582,-1.7589,-1.7378,-1.7173,-1.7067,-1.7073,-1.6967,-1.6537,-1.6105,-1.5791,-1.547,-1.4928,-1.439,-1.4007,-1.3546,-1.2724,-1.2581,-1.2183,-1.2043,-1.1997,-1.1499,-1.0612,-1.0051,-0.9815,-0.9863,-1.0005,-1.0212,-1.0453,-1.0504,-1.0561,-1.0649,-1.0707,-1.0717,-1.0721,-1.0721,-1.0721,-1.0721,-1.0721,-1.0721,-1.0721,-1.0721,-1.0734,-1.0765,-1.0856,-1.0999,-1.1141,-1.1284,-1.1426,-1.1562,-1.1616,-1.1616,-1.1616,-1.1616,-1.1616,-1.1616,-1.1616,-1.1616,-1.1616,-1.1616,-1.1616,-1.1616,-1.1616,-1.1616,-1.1616,-1.1616,-1.1616,-1.1616,-1.1616,-1.1616,-1.1616,-1.1616,-1.1616,-1.1616,-1.1616,-1.1616,-1.1616,-1.1616,-1.1616,-1.1616,-1.1616,-1.1616,-1.1616,-1.1616,-1.1616,-1.1616,-1.1616,-1.1616,-1.1616,-1.1616,-1.1616,-1.1616,-1.1616,-1.1616,-1.1616,-1.1616,-1.1616,-1.1616,-1.1616,-1.1616,-1.1616,-1.1616,-1.1616,-1.1616,-1.1616,-1.1616,-1.1616,-1.1616,-1.1616,-1.1616,-1.1616,-1.1616,-1.7188,-1.7275,-1.7488,-1.7483,-1.7279,-1.7279,-1.706,-1.6842,-1.6643,-1.6543,-1.643,-1.6105,-1.5791,-1.547,-1.4821,-1.4385,-1.4062,-1.3305,-1.2796,-1.2243,-1.1882,-1.1435,-1.1048,-1.1153,-1.0684,-1.0281,-0.9981,-0.9819,-0.9849,-0.9968,-1.0073,-1.0185,-1.0321,-1.0487,-1.0571,-1.0639,-1.0697,-1.0714,-1.0721,-1.0721,-1.0721,-1.0721,-1.0721,-1.0721,-1.0721,-1.0721,-1.0738,-1.0755,-1.087,-1.0992,-1.1138,-1.1345,-1.1592,-1.1609,-1.1616,-1.1616,-1.1616,-1.1616,-1.1616,-1.1616,-1.1616,-1.1616,-1.1616,-1.1616,-1.1616,-1.1616,-1.1616,-1.1616,-1.1616,-1.1616,-1.1616,-1.1616,-1.1616,-1.1616,-1.1616,-1.1616,-1.1616,-1.1616,-1.1616,-1.1616,-1.1616,-1.1616,-1.1616,-1.1616,-1.1616,-1.1616,-1.1616,-1.1616,-1.1616,-1.1616,-1.1616,-1.1616,-1.1616,-1.1616,-1.1616,-1.1616,-1.1616,-1.1616,-1.1616,-1.1616,-1.1616,-1.1616,-1.1616,-1.1616,-1.1616,-1.1616,-1.1616,-1.1616,-1.1616,-1.1616,-1.1616,-1.1616,-1.1616,-1.1616,-1.1616,-1.6914,-1.7174,-1.7357,-1.7272,-1.7067,-1.6955,-1.6736,-1.6418,-1.6211,-1.6004,-1.5791,-1.5684,-1.547,-1.5041,-1.4385,-1.3738,-1.3413,-1.2762,-1.2119,-1.1511,-1.1236,-1.0767,-1.0486,-1.0323,-1.0116,-0.9853,-0.9864,-0.9825,-0.9839,-0.9886,-0.9968,-1.0053,-1.0246,-1.0365,-1.0456,-1.0582,-1.066,-1.0714,-1.0714,-1.0721,-1.0721,-1.0721,-1.0721,-1.0721,-1.0721,-1.0721,-1.0721,-1.0727,-1.0812,-1.0975,-1.1162,-1.1451,-1.1504,-1.1575,-1.1613,-1.1616,-1.1616,-1.1616,-1.1616,-1.1616,-1.1616,-1.1616,-1.1616,-1.1616,-1.1616,-1.1616,-1.1616,-1.1616,-1.1616,-1.1616,-1.1616,-1.1616,-1.1616,-1.1616,-1.1616,-1.1616,-1.1616,-1.1616,-1.1616,-1.1616,-1.1616,-1.1616,-1.1616,-1.1616,-1.1616,-1.1616,-1.1616,-1.1616,-1.1616,-1.1616,-1.1616,-1.1616,-1.1616,-1.1616,-1.1616,-1.1616,-1.1616,-1.1616,-1.1616,-1.1616,-1.1616,-1.1616,-1.1616,-1.1616,-1.1616,-1.1616,-1.1616,-1.1616,-1.1616,-1.1616,-1.1616,-1.1616,-1.1616,-1.1616,-1.1616,-1.6627,-1.7052,-1.7115,-1.6922,-1.6624,-1.6624,-1.6311,-1.5779,-1.5785,-1.5458,-1.4928,-1.5154,-1.4826,-1.4385,-1.3954,-1.3197,-1.2545,-1.211,-1.1459,-1.1021,-1.0594,-1.0231,-0.9912,-0.9731,-0.9665,-0.9724,-0.9751,-0.9798,-0.9825,-0.9859,-0.991,-1.0008,-1.009,-1.0175,-1.0368,-1.0497,-1.0558,-1.0646,-1.0683,-1.0714,-1.0721,-1.0721,-1.0721,-1.0721,-1.0721,-1.0721,-1.0721,-1.0741,-1.0809,-1.0951,-1.1151,-1.1454,-1.1585,-1.1545,-1.1599,-1.1616,-1.1616,-1.1616,-1.1616,-1.1616,-1.1616,-1.1616,-1.1616,-1.1616,-1.1616,-1.1616,-1.1616,-1.1616,-1.1616,-1.1616,-1.1616,-1.1616,-1.1616,-1.1616,-1.1616,-1.1616,-1.1616,-1.1616,-1.1616,-1.1616,-1.1616,-1.1616,-1.1616,-1.1616,-1.1616,-1.1616,-1.1616,-1.1616,-1.1616,-1.1616,-1.1616,-1.1616,-1.1616,-1.1616,-1.1616,-1.1616,-1.1616,-1.1616,-1.1616,-1.1616,-1.1616,-1.1616,-1.1616,-1.1616,-1.1616,-1.1616,-1.1616,-1.1616,-1.1616,-1.1616,-1.1616,-1.1616,-1.1616,-1.1616,-1.1616,-1.6208,-1.6426,-1.6484,-1.6317,-1.608,-1.5998,-1.5678,-1.525,-1.4928,-1.46,-1.4385,-1.4067,-1.3964,-1.4169,-1.3088,-1.2441,-1.2114,-1.1568,-1.1131,-1.0692,-1.0036,-0.9732,-0.9471,-0.9405,-0.948,-0.9557,-0.973,-0.9802,-0.9819,-0.9822,-0.9832,-0.988,-1.0012,-1.0086,-1.0144,-1.0297,-1.048,-1.0565,-1.0656,-1.07,-1.0717,-1.0721,-1.0721,-1.0721,-1.0721,-1.0721,-1.0721,-1.0721,-1.0734,-1.0839,-1.09,-1.124,-1.1389,-1.1514,-1.1596,-1.1616,-1.1616,-1.1616,-1.1616,-1.1616,-1.1616,-1.1616,-1.1616,-1.1616,-1.1616,-1.1616,-1.1616,-1.1616,-1.1616,-1.1616,-1.1616,-1.1616,-1.1616,-1.1616,-1.1616,-1.1616,-1.1616,-1.1616,-1.1616,-1.1616,-1.1616,-1.1616,-1.1616,-1.1616,-1.1616,-1.1616,-1.1616,-1.1616,-1.1616,-1.1616,-1.1616,-1.1616,-1.1616,-1.1616,-1.1616,-1.1616,-1.1616,-1.1616,-1.1616,-1.1616,-1.1616,-1.1616,-1.1616,-1.1616,-1.1616,-1.1616,-1.1616,-1.1616,-1.1616,-1.1616,-1.1616,-1.1616,-1.1616,-1.1616,-1.1616]},{"header":{"parameterUnit":"m.s-1","parameterCategory":1,"la1":31.0,"la2":29.5877,"lo1":-88.7671,"lo2":-86.6584,"dy":0.0162,"dx":0.0185,"nx":115,"ny":88,"refTime":"2023-06-24T00:00:00:Z","depth":0,"parameterNumber":3,"parameterNumberName":"V-component_of_WINDS"},"data":[0.0,0.0,0.0,0.0,0.0,0.0,0.0,0.0,0.0,0.0,0.0,0.0,0.0,0.0,0.0,0.0,0.0,0.0,0.0,0.0,0.0,0.0,0.0,0.0,0.0,0.0,0.0,0.0,0.0,0.0,0.0,0.0,0.0,0.0,0.0,0.0,0.0,0.0,0.0,0.0,0.0,0.0,0.0,0.0,0.0,0.0,0.0,0.0,0.0,0.0,0.0,0.0,0.0,0.0,0.0,0.0,0.0,0.0,0.0,0.0,0.0,0.0,0.0,0.0,0.0,0.0,0.0,0.0,0.0,0.0,0.0,0.0,0.0,0.0,0.0,0.0,0.0,0.0,0.0,0.0,0.0,0.0,0.0,0.0,0.0,0.0,0.0,0.0,0.0,0.0,0.0,0.0,0.0,0.0,0.0,0.0,0.0,0.0,0.0,0.0,0.0,0.0,0.0,0.0,0.0,0.0,0.0,0.0,0.0,0.0,0.0,0.0,0.0,0.0,0.0,0.0,0.0,0.0,0.0,0.0,0.0,0.0,0.0,0.0,0.0,0.0,0.0,0.0,0.0,0.0,0.0,0.0,0.0,0.0,0.0,0.0,0.0,0.0,0.0,0.0,0.0,0.0,0.0,0.0,0.0,0.0,0.0,0.0,0.0,0.0,0.0,0.0,0.0,0.0,0.0,0.0,0.0,0.0,0.0,0.0,0.0,0.0,0.0,0.0,0.0,0.0,0.0,0.0,0.0,0.0,0.0,0.0,0.0,0.0,0.0,0.0,0.0,0.0,0.0,0.0,0.0,0.0,0.0,0.0,0.0,0.0,0.0,0.0,0.0,0.0,0.0,0.0,0.0,0.0,0.0,0.0,0.0,0.0,0.0,0.0,0.0,0.0,0.0,0.0,0.0,0.0,0.0,0.0,0.0,0.0,0.0,0.0,0.0,0.0,0.0,0.0,0.0,0.0,0.0,0.0,0.0,0.0,0.0,0.0,0.0,0.0,0.0,0.0,0.0,0.0,0.0,0.0,0.0,0.0,0.0,0.0,0.0,0.0,0.0,0.0,0.0,0.0,0.0,0.0,0.0,0.0,0.0,0.0,0.0,0.0,0.0,0.0,0.0,0.0,0.0,0.0,0.0,0.0,0.0,0.0,0.0,0.0,0.0,0.0,0.0,0.0,0.0,0.0,0.0,0.0,0.0,0.0,0.0,0.0,0.0,0.0,0.0,0.0,0.0,0.0,0.0,0.0,0.0,0.0,0.0,0.0,0.0,0.0,0.0,0.0,0.0,0.0,0.0,0.0,0.0,0.0,0.0,0.0,0.0,0.0,0.0,0.0,0.0,0.0,0.0,0.0,0.0,0.0,0.0,0.0,0.0,0.0,0.0,0.0,0.0,0.0,0.0,0.0,0.0,0.0,0.0,0.0,0.0,0.0,0.0,0.0,0.0,0.0,0.0,0.0,0.0,0.0,0.0,0.0,0.0,0.0,0.0,0.0,0.0,0.0,0.0,0.0,0.0,0.0,0.0,0.0,0.0,0.0,0.0,0.0,0.0,0.0,0.0,0.0,0.0,0.0,0.0,0.0,0.0,0.0,0.0,0.0,0.0,0.0,0.0,0.0,0.0,0.0,0.0,0.0,0.0,0.0,0.0,0.0,0.0,0.0,0.0,0.0,0.0,0.0,0.0,0.0,0.0,0.0,0.0,0.0,0.0,0.0,0.0,0.0,0.0,0.0,0.0,0.0,0.0,0.0,0.0,0.0,0.0,0.0,0.0,0.0,0.0,0.0,0.0,0.0,0.0,0.0,0.0,0.0,0.0,0.0,0.0,0.0,0.0,0.0,0.0,0.0,0.0,0.0,0.0,0.0,0.0,0.0,0.0,0.0,0.0,0.0,0.0,0.0,0.0,0.0,0.0,0.0,0.0,0.0,0.0,0.0,0.0,0.0,0.0,0.0,0.0,0.0,0.0,0.0,0.0,0.0,0.0,0.0,0.0,0.0,0.0,0.0,0.0,0.0,0.0,0.0,0.0,0.0,0.0,0.0,0.0,0.0,0.0,0.0,0.0,0.0,0.0,0.0,0.0,0.0,0.0,0.0,0.0,0.0,0.0,0.0,0.0,0.0,0.0,0.0,0.0,0.0,0.0,0.0,0.0,0.0,0.0,0.0,0.0,0.0,0.0,0.0,0.0,0.0,0.0,0.0,0.0,0.0,0.0,0.0,0.0,0.0,0.0,0.0,0.0,0.0,0.0,0.0,0.0,0.0,0.0,0.0,0.0,0.0,0.0,0.0,0.0,0.0,0.0,0.0,0.0,0.0,0.0,0.0,0.0,0.0,0.0,0.0,0.0,0.0,0.0,0.0,0.0,0.0,0.0,0.0,0.0,0.0,0.0,0.0,0.0,0.0,0.0,0.0,0.0,0.0,0.0,0.0,0.0,0.0,0.0,0.0,0.0,0.0,0.0,0.0,0.0,0.0,0.0,0.0,0.0,0.0,0.0,0.0,0.0,0.0,0.0,0.0,0.0,0.0,0.0,0.0,0.0,0.0,0.0,0.0,0.0,0.0,0.0,0.0,0.0,0.0,0.0,0.0,0.0,0.0,0.0,0.0,0.0,0.0,0.0,0.0,0.0,0.0,0.0,0.0,0.0,0.0,0.0,0.0,0.0,0.0,0.0,0.0,0.0,0.0,0.0,0.0,0.0,0.0,0.0,0.0,0.0,0.0,0.0,0.0,0.0,0.0,0.0,0.0,0.0,0.0,0.0,0.0,0.0,0.0,0.0,0.0,0.0,0.0,0.0,0.0,0.0,0.0,0.0,0.0,0.0,0.0,0.0,0.0,0.0,0.0,0.0,0.0,0.0,0.0,0.0,0.0,0.0,0.0,0.0,0.0,0.0,0.0,0.0,0.0,0.0,0.0,0.0,0.0,0.0,0.0,0.0,0.0,0.0,0.0,0.0,0.0,0.0,0.0,0.0,0.0,0.0,0.0,0.0,0.0,0.0,0.0,0.0,0.0,0.0,0.0,0.0,0.0,0.0,0.0,0.0,0.0,0.0,0.0,0.0,0.0,0.0,0.0,0.0,0.0,0.0,0.0,0.0,0.0,0.0,0.0,0.0,0.0,0.0,0.0,0.0,0.0,0.0,0.0,0.0,0.0,0.0,0.0,0.0,0.0,0.0,0.0,0.0,0.0,0.0,0.0,0.0,0.0,0.0,0.0,0.0,0.0,0.0,0.0,0.0,0.0,0.0,0.0,0.0,0.0,0.0,0.0,0.0,0.0,0.0,0.0,0.0,0.0,0.0,0.0,0.0,0.0,0.0,0.0,0.0,0.0,0.0,0.0,0.0,0.0,0.0,0.0,0.0,0.0,0.0,0.0,0.0,0.0,0.0,0.0,0.0,0.0,0.0,0.0,0.0,0.0,0.0,0.0,0.0,0.0,0.0,0.0,0.0,0.0,0.0,0.0,0.0,0.0,0.0,0.0,0.0,0.0,0.0,0.0,0.0,0.0,0.0,0.0,0.0,0.0,0.0,0.0,0.0,0.0,0.0,0.0,0.0,0.0,0.0,0.0,0.0,0.0,0.0,0.0,0.0,0.0,0.0,0.0,0.0,0.0,0.0,0.0,0.0,0.0,0.0,0.0,0.0,0.0,0.0,0.0,0.0,0.0,0.0,0.0,0.0,0.0,0.0,0.0,0.0,0.0,0.0,0.0,0.0,0.0,0.0,0.0,0.0,0.0,0.0,0.0,0.0,0.0,0.0,0.0,0.0,0.0,0.0,0.0,0.0,0.0,0.0,0.0,0.0,0.0,0.0,0.0,0.0,0.0,0.0,0.0,0.0,0.0,0.0,0.0,0.0,0.0,0.0,0.0,0.0,0.0,0.0,0.0,0.0,0.0,0.0,0.0,0.0,0.0,0.0,0.0,0.0,0.0,0.0,0.0,0.0,0.0,0.0,0.0,0.0,0.0,0.0,0.0,0.0,0.0,0.0,0.0,0.0,0.0,0.0,0.0,0.0,0.0,0.0,0.0,0.0,0.0,0.0,0.0,0.0,0.0,0.0,0.0,0.0,0.0,0.0,0.0,0.0,0.0,0.0,0.0,0.0,0.0,0.0,0.0,0.0,0.0,0.0,0.0,0.0,0.0,0.0,0.0,0.0,0.0,0.0,0.0,0.0,0.0,0.0,0.0,0.0,0.0,0.0,0.0,0.0,0.0,0.0,0.0,0.0,0.0,0.0,0.0,0.0,0.0,0.0,0.0,0.0,0.0,-5.1386,0.0,0.0,0.0,0.0,0.0,0.0,0.0,0.0,0.0,0.0,0.0,0.0,0.0,0.0,0.0,0.0,0.0,0.0,0.0,0.0,0.0,0.0,0.0,0.0,0.0,0.0,0.0,0.0,0.0,0.0,0.0,0.0,0.0,0.0,0.0,0.0,0.0,0.0,0.0,0.0,0.0,0.0,0.0,0.0,0.0,0.0,0.0,0.0,0.0,0.0,0.0,0.0,0.0,0.0,0.0,0.0,0.0,0.0,0.0,0.0,0.0,0.0,0.0,0.0,0.0,0.0,0.0,0.0,0.0,0.0,0.0,0.0,0.0,0.0,0.0,0.0,0.0,0.0,0.0,0.0,0.0,0.0,0.0,0.0,0.0,0.0,0.0,0.0,0.0,0.0,0.0,0.0,0.0,0.0,0.0,0.0,0.0,0.0,0.0,0.0,0.0,0.0,0.0,0.0,0.0,0.0,0.0,0.0,0.0,0.0,-5.1394,-5.139,-5.139,-5.1394,-5.1398,0.0,0.0,0.0,0.0,0.0,0.0,0.0,0.0,0.0,0.0,0.0,0.0,0.0,0.0,0.0,0.0,0.0,0.0,0.0,0.0,0.0,0.0,0.0,0.0,0.0,0.0,0.0,0.0,0.0,0.0,0.0,0.0,0.0,0.0,0.0,0.0,0.0,0.0,0.0,0.0,0.0,0.0,0.0,0.0,0.0,0.0,0.0,0.0,0.0,0.0,0.0,0.0,0.0,0.0,0.0,0.0,0.0,0.0,0.0,0.0,0.0,0.0,0.0,0.0,0.0,0.0,0.0,0.0,0.0,0.0,0.0,0.0,0.0,0.0,0.0,0.0,0.0,0.0,0.0,0.0,0.0,0.0,0.0,0.0,0.0,0.0,0.0,0.0,0.0,0.0,0.0,0.0,0.0,0.0,0.0,0.0,0.0,0.0,0.0,0.0,0.0,0.0,0.0,0.0,0.0,0.0,0.0,0.0,0.0,0.0,0.0,0.0,-5.1394,-5.1394,-5.1394,0.0,0.0,0.0,0.0,0.0,0.0,0.0,0.0,0.0,0.0,0.0,0.0,0.0,0.0,0.0,0.0,0.0,0.0,0.0,0.0,0.0,0.0,0.0,0.0,0.0,0.0,0.0,0.0,0.0,0.0,0.0,0.0,0.0,0.0,0.0,0.0,0.0,0.0,0.0,0.0,0.0,0.0,0.0,0.0,0.0,0.0,0.0,0.0,0.0,0.0,0.0,0.0,0.0,0.0,0.0,0.0,0.0,0.0,0.0,0.0,0.0,0.0,0.0,0.0,0.0,0.0,0.0,0.0,0.0,0.0,0.0,0.0,0.0,0.0,0.0,0.0,0.0,0.0,0.0,0.0,0.0,0.0,0.0,0.0,0.0,0.0,0.0,0.0,0.0,0.0,0.0,0.0,0.0,0.0,0.0,0.0,0.0,0.0,0.0,0.0,0.0,0.0,0.0,0.0,0.0,0.0,0.0,0.0,0.0,0.0,-5.1386,-5.1394,-5.1394,0.0,-5.1394,0.0,0.0,0.0,0.0,0.0,0.0,0.0,0.0,0.0,0.0,0.0,0.0,0.0,0.0,0.0,0.0,0.0,0.0,0.0,0.0,0.0,0.0,0.0,0.0,0.0,0.0,0.0,0.0,0.0,0.0,0.0,0.0,0.0,0.0,0.0,0.0,0.0,0.0,0.0,0.0,0.0,0.0,0.0,0.0,0.0,0.0,0.0,0.0,0.0,0.0,0.0,0.0,0.0,0.0,0.0,0.0,0.0,0.0,0.0,0.0,0.0,0.0,0.0,0.0,0.0,0.0,0.0,0.0,0.0,0.0,0.0,0.0,0.0,0.0,0.0,0.0,0.0,0.0,0.0,0.0,0.0,0.0,0.0,0.0,0.0,0.0,0.0,0.0,0.0,0.0,0.0,0.0,0.0,0.0,0.0,0.0,0.0,0.0,0.0,0.0,0.0,0.0,0.0,0.0,0.0,0.0,0.0,0.0,0.0,0.0,-5.1863,-5.1347,-5.1312,-5.1312,0.0,0.0,0.0,0.0,0.0,0.0,0.0,0.0,0.0,0.0,0.0,0.0,0.0,0.0,0.0,0.0,0.0,0.0,0.0,0.0,0.0,0.0,0.0,0.0,0.0,0.0,0.0,0.0,0.0,0.0,0.0,0.0,0.0,0.0,0.0,0.0,0.0,0.0,0.0,0.0,0.0,0.0,0.0,0.0,0.0,0.0,0.0,0.0,0.0,0.0,0.0,0.0,0.0,0.0,0.0,0.0,0.0,0.0,0.0,0.0,0.0,0.0,0.0,0.0,0.0,0.0,0.0,0.0,0.0,0.0,0.0,0.0,0.0,0.0,0.0,0.0,0.0,0.0,0.0,0.0,0.0,0.0,0.0,0.0,0.0,0.0,0.0,0.0,0.0,0.0,0.0,0.0,0.0,0.0,0.0,0.0,0.0,0.0,0.0,0.0,0.0,0.0,0.0,0.0,0.0,0.0,0.0,0.0,0.0,0.0,-5.192,-5.1908,-5.1279,-5.1201,-5.1201,-5.124,0.0,0.0,0.0,0.0,0.0,0.0,0.0,0.0,0.0,0.0,0.0,0.0,0.0,0.0,0.0,0.0,0.0,0.0,0.0,0.0,0.0,0.0,0.0,0.0,0.0,0.0,0.0,0.0,0.0,0.0,0.0,0.0,0.0,0.0,0.0,0.0,0.0,0.0,0.0,0.0,0.0,0.0,0.0,0.0,0.0,0.0,0.0,0.0,0.0,0.0,0.0,0.0,0.0,0.0,0.0,0.0,0.0,0.0,0.0,0.0,0.0,0.0,0.0,0.0,0.0,0.0,0.0,0.0,0.0,0.0,0.0,0.0,0.0,0.0,0.0,0.0,0.0,0.0,0.0,0.0,0.0,0.0,0.0,0.0,0.0,0.0,0.0,0.0,0.0,0.0,0.0,0.0,0.0,0.0,0.0,0.0,0.0,0.0,0.0,0.0,0.0,0.0,0.0,0.0,0.0,0.0,0.0,0.0,-5.13,-5.1278,-5.1229,-5.1125,-5.1125,-5.1105,0.0,0.0,0.0,0.0,0.0,0.0,0.0,0.0,0.0,0.0,0.0,0.0,0.0,0.0,0.0,0.0,0.0,0.0,0.0,0.0,0.0,0.0,0.0,0.0,0.0,0.0,0.0,0.0,0.0,0.0,0.0,0.0,0.0,0.0,0.0,0.0,0.0,0.0,0.0,0.0,0.0,0.0,0.0,0.0,0.0,0.0,0.0,0.0,0.0,0.0,0.0,0.0,0.0,0.0,0.0,0.0,0.0,0.0,0.0,0.0,0.0,0.0,0.0,0.0,0.0,0.0,0.0,0.0,0.0,0.0,0.0,0.0,0.0,0.0,0.0,0.0,0.0,0.0,0.0,0.0,0.0,0.0,0.0,0.0,0.0,0.0,0.0,0.0,0.0,0.0,0.0,0.0,0.0,0.0,0.0,0.0,0.0,0.0,0.0,0.0,0.0,0.0,0.0,0.0,0.0,0.0,0.0,0.0,0.0,-5.123,-5.1125,-5.1321,-5.1751,-5.1266,-5.0961,0.0,0.0,0.0,0.0,0.0,0.0,0.0,0.0,0.0,0.0,0.0,0.0,0.0,0.0,0.0,0.0,0.0,0.0,0.0,0.0,0.0,0.0,0.0,0.0,0.0,0.0,0.0,0.0,0.0,0.0,0.0,0.0,0.0,0.0,0.0,0.0,0.0,0.0,0.0,0.0,0.0,0.0,0.0,0.0,0.0,0.0,0.0,0.0,0.0,0.0,0.0,0.0,0.0,0.0,0.0,0.0,0.0,0.0,0.0,0.0,0.0,0.0,0.0,0.0,0.0,0.0,0.0,0.0,0.0,0.0,0.0,0.0,0.0,0.0,0.0,0.0,0.0,0.0,0.0,0.0,0.0,0.0,0.0,0.0,0.0,0.0,0.0,0.0,0.0,0.0,0.0,0.0,0.0,0.0,0.0,0.0,0.0,0.0,0.0,0.0,0.0,0.0,0.0,0.0,0.0,0.0,0.0,0.0,0.0,-5.1101,0.0,-5.118,-5.1653,-5.1114,-5.0825,0.0,0.0,0.0,0.0,0.0,0.0,0.0,0.0,0.0,0.0,0.0,0.0,0.0,0.0,0.0,0.0,0.0,0.0,0.0,0.0,0.0,0.0,0.0,0.0,0.0,0.0,0.0,0.0,0.0,0.0,0.0,0.0,0.0,0.0,0.0,0.0,0.0,0.0,0.0,0.0,0.0,0.0,0.0,0.0,0.0,0.0,0.0,0.0,0.0,0.0,0.0,0.0,0.0,0.0,0.0,0.0,0.0,0.0,0.0,0.0,0.0,0.0,0.0,0.0,0.0,0.0,0.0,0.0,0.0,0.0,0.0,0.0,0.0,0.0,0.0,0.0,0.0,0.0,0.0,0.0,0.0,0.0,0.0,0.0,0.0,0.0,0.0,0.0,0.0,0.0,0.0,0.0,0.0,0.0,0.0,0.0,0.0,0.0,0.0,0.0,0.0,0.0,0.0,0.0,0.0,0.0,0.0,0.0,-5.103,-5.0906,-5.0825,-5.0775,-5.072,-5.0645,-5.0606,0.0,0.0,0.0,0.0,0.0,0.0,0.0,0.0,0.0,0.0,0.0,0.0,0.0,0.0,0.0,0.0,0.0,0.0,0.0,0.0,0.0,0.0,0.0,0.0,0.0,0.0,0.0,0.0,0.0,0.0,0.0,0.0,0.0,0.0,0.0,0.0,0.0,0.0,0.0,0.0,0.0,0.0,0.0,0.0,0.0,0.0,0.0,0.0,0.0,0.0,0.0,0.0,0.0,0.0,0.0,0.0,0.0,0.0,0.0,0.0,0.0,0.0,0.0,0.0,0.0,0.0,0.0,0.0,0.0,0.0,0.0,0.0,0.0,0.0,0.0,0.0,0.0,0.0,0.0,0.0,0.0,0.0,0.0,0.0,0.0,0.0,0.0,0.0,0.0,0.0,0.0,0.0,0.0,0.0,0.0,0.0,0.0,0.0,0.0,0.0,0.0,0.0,0.0,0.0,0.0,0.0,0.0,0.0,0.0,-5.0681,-5.0625,-5.0565,-5.0502,-5.0418,-5.0396,0.0,0.0,0.0,0.0,0.0,0.0,0.0,0.0,0.0,0.0,0.0,0.0,0.0,0.0,0.0,0.0,0.0,0.0,0.0,0.0,0.0,0.0,0.0,0.0,0.0,0.0,0.0,0.0,0.0,0.0,0.0,0.0,0.0,0.0,0.0,0.0,0.0,0.0,0.0,0.0,0.0,0.0,0.0,0.0,0.0,0.0,0.0,0.0,0.0,0.0,0.0,0.0,0.0,0.0,0.0,0.0,0.0,0.0,0.0,0.0,0.0,0.0,0.0,0.0,0.0,0.0,0.0,0.0,0.0,0.0,0.0,0.0,0.0,0.0,0.0,0.0,0.0,0.0,0.0,0.0,0.0,0.0,0.0,0.0,0.0,0.0,0.0,0.0,0.0,0.0,0.0,0.0,0.0,0.0,0.0,0.0,0.0,0.0,0.0,0.0,0.0,0.0,0.0,0.0,0.0,0.0,0.0,0.0,0.0,-5.038,-5.0352,-5.0325,-5.0298,-5.0207,-5.0158,-5.0158,0.0,0.0,0.0,0.0,0.0,0.0,0.0,0.0,0.0,0.0,0.0,0.0,0.0,0.0,0.0,0.0,0.0,0.0,0.0,0.0,0.0,0.0,0.0,0.0,0.0,0.0,0.0,0.0,0.0,0.0,0.0,0.0,0.0,0.0,0.0,0.0,0.0,0.0,0.0,0.0,0.0,0.0,0.0,0.0,0.0,0.0,0.0,0.0,0.0,0.0,0.0,0.0,0.0,0.0,0.0,0.0,0.0,0.0,0.0,0.0,0.0,0.0,0.0,0.0,0.0,0.0,0.0,0.0,0.0,0.0,0.0,0.0,0.0,0.0,0.0,0.0,0.0,0.0,0.0,0.0,0.0,0.0,0.0,0.0,0.0,0.0,0.0,0.0,0.0,0.0,0.0,0.0,0.0,0.0,0.0,0.0,0.0,0.0,0.0,0.0,0.0,0.0,0.0,0.0,0.0,0.0,0.0,0.0,-4.9978,-5.0012,-5.0038,-5.0057,-4.9952,-4.9871,0.0,0.0,0.0,0.0,0.0,0.0,0.0,0.0,0.0,0.0,0.0,0.0,0.0,0.0,0.0,0.0,0.0,0.0,0.0,0.0,0.0,0.0,0.0,0.0,0.0,0.0,0.0,0.0,0.0,0.0,0.0,0.0,0.0,0.0,0.0,0.0,0.0,0.0,0.0,0.0,0.0,0.0,0.0,0.0,0.0,0.0,0.0,0.0,0.0,0.0,0.0,0.0,0.0,0.0,0.0,0.0,0.0,0.0,0.0,0.0,0.0,0.0,0.0,0.0,0.0,0.0,0.0,0.0,0.0,0.0,0.0,0.0,0.0,0.0,0.0,0.0,0.0,0.0,0.0,0.0,0.0,0.0,0.0,0.0,0.0,0.0,0.0,0.0,0.0,0.0,0.0,0.0,0.0,0.0,0.0,0.0,0.0,0.0,0.0,0.0,0.0,0.0,0.0,0.0,0.0,0.0,0.0,0.0,0.0,-4.9636,-4.9488,-4.9488,-4.9646,-4.9577,-4.9537,0.0,0.0,0.0,0.0,0.0,0.0,0.0,0.0,0.0,0.0,0.0,0.0,0.0,0.0,0.0,0.0,0.0,0.0,0.0,0.0,0.0,0.0,0.0,0.0,0.0,0.0,0.0,0.0,0.0,0.0,0.0,0.0,0.0,0.0,0.0,0.0,0.0,0.0,0.0,0.0,0.0,0.0,0.0,0.0,0.0,0.0,0.0,0.0,0.0,0.0,0.0,0.0,0.0,0.0,0.0,0.0,0.0,0.0,0.0,0.0,0.0,0.0,0.0,0.0,0.0,0.0,0.0,0.0,0.0,0.0,0.0,0.0,0.0,0.0,0.0,0.0,0.0,0.0,0.0,0.0,0.0,0.0,0.0,0.0,0.0,0.0,0.0,0.0,0.0,0.0,0.0,0.0,0.0,0.0,0.0,0.0,0.0,0.0,0.0,0.0,0.0,0.0,0.0,0.0,0.0,0.0,0.0,0.0,-4.9408,-4.9169,-4.9008,-4.8974,-4.8986,-4.9141,-4.9193,0.0,0.0,0.0,0.0,0.0,0.0,0.0,0.0,0.0,0.0,0.0,0.0,0.0,0.0,0.0,0.0,0.0,0.0,0.0,0.0,0.0,0.0,0.0,0.0,0.0,0.0,0.0,0.0,0.0,0.0,0.0,0.0,0.0,0.0,0.0,0.0,0.0,0.0,0.0,0.0,0.0,0.0,0.0,0.0,0.0,0.0,0.0,0.0,0.0,0.0,0.0,0.0,0.0,0.0,0.0,0.0,0.0,0.0,0.0,0.0,0.0,0.0,0.0,0.0,0.0,0.0,0.0,0.0,0.0,0.0,0.0,0.0,0.0,0.0,0.0,0.0,0.0,0.0,0.0,0.0,0.0,0.0,0.0,0.0,0.0,0.0,0.0,0.0,0.0,0.0,0.0,0.0,0.0,0.0,0.0,0.0,0.0,0.0,0.0,0.0,0.0,0.0,0.0,0.0,0.0,0.0,0.0,0.0,-4.9042,-4.8677,-4.8569,-4.8439,-4.8267,-4.8642,-4.8839,0.0,0.0,0.0,0.0,0.0,0.0,0.0,0.0,0.0,0.0,0.0,0.0,0.0,0.0,0.0,0.0,0.0,0.0,0.0,0.0,0.0,0.0,0.0,0.0,0.0,0.0,0.0,0.0,0.0,0.0,0.0,0.0,0.0,0.0,0.0,0.0,0.0,0.0,0.0,0.0,0.0,0.0,0.0,0.0,0.0,0.0,0.0,0.0,0.0,0.0,0.0,0.0,0.0,0.0,0.0,0.0,0.0,0.0,0.0,0.0,0.0,0.0,0.0,0.0,0.0,0.0,0.0,0.0,0.0,0.0,0.0,0.0,0.0,0.0,0.0,0.0,0.0,0.0,0.0,0.0,0.0,0.0,0.0,0.0,0.0,0.0,0.0,0.0,0.0,0.0,0.0,0.0,0.0,0.0,0.0,0.0,0.0,0.0,0.0,0.0,0.0,0.0,0.0,0.0,0.0,0.0,0.0,0.0,-4.8477,-4.8212,-4.8075,-4.7933,-4.7824,-4.8229,-4.842,0.0,0.0,0.0,0.0,0.0,0.0,0.0,0.0,0.0,0.0,0.0,0.0,0.0,0.0,0.0,0.0,0.0,0.0,0.0,0.0,0.0,0.0,0.0,0.0,0.0,0.0,0.0,0.0,0.0,0.0,0.0,0.0,0.0,0.0,0.0,0.0,0.0,0.0,0.0,0.0,0.0,0.0,0.0,0.0,0.0,0.0,0.0,0.0,-6.0611,0.0,0.0,0.0,0.0,0.0,0.0,0.0,0.0,0.0,0.0,0.0,0.0,0.0,0.0,0.0,0.0,0.0,0.0,0.0,0.0,0.0,0.0,0.0,0.0,0.0,0.0,0.0,0.0,0.0,0.0,0.0,0.0,0.0,0.0,0.0,0.0,0.0,0.0,0.0,0.0,0.0,0.0,0.0,0.0,0.0,0.0,0.0,0.0,0.0,0.0,0.0,0.0,0.0,0.0,0.0,0.0,0.0,0.0,0.0,-4.7959,-4.7752,-4.7585,-4.7432,-4.7399,-4.756,-4.7788,0.0,0.0,0.0,0.0,0.0,0.0,0.0,0.0,0.0,0.0,0.0,0.0,0.0,0.0,0.0,0.0,0.0,0.0,0.0,0.0,0.0,0.0,0.0,0.0,0.0,0.0,0.0,0.0,0.0,0.0,0.0,0.0,0.0,0.0,0.0,0.0,0.0,0.0,0.0,0.0,0.0,0.0,0.0,0.0,0.0,0.0,0.0,0.0,0.0,0.0,0.0,0.0,0.0,0.0,0.0,0.0,0.0,0.0,0.0,0.0,0.0,0.0,0.0,0.0,0.0,0.0,0.0,0.0,0.0,0.0,0.0,0.0,0.0,0.0,0.0,0.0,0.0,0.0,0.0,0.0,0.0,0.0,0.0,0.0,0.0,0.0,0.0,0.0,0.0,0.0,0.0,0.0,0.0,0.0,0.0,0.0,0.0,0.0,0.0,0.0,0.0,0.0,0.0,0.0,0.0,0.0,0.0,-4.7816,-4.75,-4.7214,-4.7035,-4.6944,-4.687,-4.6888,-4.707,-4.7468,0.0,0.0,0.0,0.0,0.0,0.0,0.0,0.0,0.0,0.0,0.0,0.0,0.0,0.0,0.0,0.0,0.0,0.0,0.0,0.0,0.0,0.0,0.0,0.0,0.0,0.0,0.0,0.0,0.0,0.0,0.0,0.0,0.0,0.0,0.0,0.0,0.0,0.0,-5.7726,-5.908,0.0,0.0,0.0,0.0,0.0,0.0,0.0,0.0,-6.0468,0.0,0.0,0.0,0.0,0.0,0.0,0.0,0.0,0.0,0.0,0.0,0.0,0.0,0.0,0.0,0.0,0.0,0.0,0.0,0.0,0.0,0.0,0.0,0.0,0.0,0.0,0.0,0.0,0.0,0.0,0.0,0.0,0.0,0.0,0.0,0.0,0.0,0.0,0.0,0.0,0.0,0.0,0.0,0.0,0.0,0.0,0.0,0.0,0.0,0.0,0.0,0.0,0.0,0.0,0.0,0.0,-4.7733,-4.7248,-4.6926,-4.6713,-4.6477,-4.6332,-4.6332,-4.6332,-4.6381,-4.6477,0.0,0.0,0.0,0.0,0.0,0.0,0.0,0.0,0.0,0.0,0.0,0.0,0.0,0.0,0.0,0.0,0.0,0.0,0.0,0.0,0.0,0.0,0.0,0.0,0.0,0.0,0.0,0.0,0.0,0.0,0.0,0.0,0.0,0.0,0.0,0.0,0.0,0.0,0.0,-6.0049,-6.0654,0.0,0.0,0.0,0.0,0.0,0.0,0.0,0.0,-6.0398,0.0,0.0,0.0,0.0,0.0,0.0,0.0,0.0,0.0,0.0,0.0,0.0,0.0,0.0,0.0,0.0,0.0,0.0,0.0,0.0,0.0,0.0,0.0,0.0,0.0,0.0,0.0,0.0,0.0,0.0,0.0,0.0,0.0,0.0,0.0,0.0,0.0,0.0,0.0,0.0,0.0,0.0,0.0,0.0,0.0,0.0,0.0,0.0,0.0,0.0,0.0,0.0,0.0,0.0,0.0,-4.7248,-4.6863,-4.6507,-4.6186,-4.5988,-4.5837,-4.5768,-4.5837,-4.587,0.0,0.0,0.0,0.0,0.0,0.0,0.0,0.0,0.0,0.0,0.0,0.0,0.0,0.0,0.0,0.0,0.0,0.0,0.0,0.0,0.0,0.0,0.0,0.0,0.0,0.0,0.0,0.0,0.0,0.0,0.0,0.0,0.0,0.0,0.0,0.0,0.0,0.0,0.0,0.0,-6.0348,-6.0449,-6.0349,0.0,0.0,0.0,0.0,0.0,0.0,-6.0732,-6.1117,0.0,0.0,0.0,0.0,0.0,0.0,0.0,0.0,0.0,0.0,0.0,0.0,0.0,0.0,0.0,0.0,0.0,0.0,0.0,0.0,0.0,0.0,0.0,0.0,0.0,0.0,0.0,0.0,0.0,0.0,0.0,0.0,0.0,0.0,0.0,0.0,0.0,0.0,0.0,0.0,0.0,0.0,0.0,0.0,0.0,0.0,0.0,0.0,0.0,0.0,0.0,0.0,0.0,0.0,0.0,-4.6817,-4.6459,-4.6087,-4.5735,-4.558,-4.5441,-4.5336,-4.5441,-4.5494,0.0,0.0,0.0,0.0,0.0,0.0,0.0,0.0,0.0,0.0,0.0,0.0,0.0,0.0,0.0,0.0,0.0,0.0,0.0,0.0,0.0,0.0,0.0,0.0,0.0,0.0,0.0,0.0,0.0,0.0,0.0,0.0,0.0,0.0,0.0,0.0,0.0,0.0,0.0,0.0,0.0,-6.011,-6.0007,-6.0091,0.0,0.0,0.0,0.0,-6.0822,-6.1344,0.0,0.0,0.0,0.0,0.0,0.0,0.0,0.0,0.0,0.0,0.0,0.0,0.0,0.0,0.0,0.0,0.0,0.0,0.0,0.0,0.0,0.0,0.0,0.0,0.0,0.0,0.0,0.0,0.0,0.0,0.0,0.0,0.0,0.0,0.0,0.0,0.0,0.0,0.0,0.0,0.0,0.0,0.0,0.0,0.0,0.0,0.0,0.0,0.0,0.0,0.0,0.0,0.0,0.0,0.0,0.0,-4.6477,-4.6087,-4.5752,-4.5424,-4.5177,-4.5086,-4.5032,-4.5086,-4.5086,0.0,0.0,0.0,0.0,0.0,0.0,0.0,0.0,0.0,0.0,0.0,0.0,0.0,0.0,0.0,0.0,0.0,0.0,0.0,0.0,0.0,0.0,0.0,0.0,0.0,0.0,0.0,0.0,0.0,0.0,0.0,0.0,0.0,0.0,0.0,0.0,0.0,0.0,0.0,0.0,0.0,-5.9885,-5.9685,-6.025,-6.0619,0.0,0.0,-6.1509,-6.1463,-6.1502,0.0,0.0,0.0,0.0,0.0,0.0,0.0,0.0,0.0,0.0,0.0,0.0,0.0,0.0,0.0,0.0,0.0,0.0,0.0,0.0,0.0,0.0,0.0,0.0,0.0,0.0,0.0,0.0,0.0,0.0,0.0,0.0,0.0,0.0,0.0,0.0,0.0,0.0,0.0,0.0,0.0,0.0,0.0,0.0,0.0,0.0,0.0,0.0,0.0,0.0,0.0,0.0,0.0,0.0,0.0,-4.6619,-4.6204,-4.6169,-4.6098,-4.5792,-4.6037,-4.609,-4.6034,-4.609,-4.6147,0.0,0.0,0.0,0.0,0.0,0.0,0.0,0.0,0.0,0.0,0.0,0.0,0.0,0.0,0.0,0.0,0.0,0.0,0.0,0.0,0.0,0.0,0.0,0.0,0.0,0.0,0.0,0.0,0.0,0.0,0.0,0.0,0.0,0.0,0.0,0.0,0.0,0.0,0.0,0.0,0.0,0.0,-6.0078,-6.0641,0.0,0.0,0.0,-6.1939,-6.1846,0.0,0.0,0.0,0.0,0.0,0.0,0.0,0.0,0.0,0.0,0.0,0.0,0.0,0.0,0.0,0.0,0.0,0.0,0.0,0.0,0.0,0.0,0.0,0.0,0.0,0.0,0.0,0.0,0.0,0.0,0.0,0.0,0.0,0.0,0.0,0.0,0.0,0.0,0.0,0.0,0.0,0.0,0.0,0.0,0.0,0.0,0.0,0.0,0.0,0.0,0.0,0.0,0.0,0.0,0.0,0.0,0.0,-4.6133,-4.6514,-4.6601,-4.6357,-4.6714,-4.6903,-4.6786,-4.6903,0.0,0.0,0.0,0.0,0.0,0.0,0.0,0.0,0.0,0.0,0.0,0.0,0.0,0.0,0.0,0.0,0.0,0.0,0.0,0.0,0.0,0.0,0.0,0.0,0.0,0.0,0.0,-5.9152,0.0,0.0,0.0,0.0,0.0,0.0,0.0,0.0,0.0,0.0,0.0,0.0,0.0,0.0,-6.0694,-6.0594,-6.1122,-6.1475,0.0,0.0,-6.2413,-6.2321,-6.2804,-6.3213,0.0,0.0,0.0,0.0,0.0,0.0,0.0,0.0,0.0,0.0,0.0,0.0,0.0,0.0,0.0,0.0,0.0,0.0,0.0,0.0,0.0,0.0,0.0,0.0,0.0,0.0,0.0,0.0,0.0,0.0,0.0,0.0,0.0,0.0,0.0,0.0,0.0,0.0,0.0,0.0,0.0,0.0,0.0,0.0,0.0,0.0,0.0,0.0,0.0,0.0,0.0,0.0,0.0,0.0,0.0,-4.6529,-4.7034,-4.7187,-4.6935,-4.6869,-4.6786,-4.6802,-4.6802,-4.6802,0.0,0.0,0.0,0.0,0.0,0.0,0.0,0.0,0.0,0.0,0.0,0.0,0.0,0.0,0.0,0.0,0.0,0.0,0.0,0.0,0.0,0.0,0.0,0.0,0.0,0.0,0.0,0.0,0.0,0.0,0.0,0.0,0.0,0.0,0.0,0.0,0.0,0.0,0.0,0.0,0.0,-6.1185,-6.1081,-6.1684,-6.2076,0.0,0.0,-6.313,-6.3112,-6.3161,-6.3213,-6.3213,0.0,0.0,0.0,0.0,0.0,0.0,0.0,0.0,0.0,0.0,0.0,0.0,0.0,0.0,0.0,0.0,0.0,0.0,0.0,0.0,0.0,0.0,0.0,0.0,0.0,0.0,0.0,0.0,0.0,0.0,0.0,0.0,0.0,0.0,0.0,0.0,0.0,0.0,0.0,0.0,0.0,0.0,0.0,0.0,0.0,0.0,0.0,0.0,0.0,0.0,0.0,0.0,0.0,-4.7488,-4.7269,-4.7655,-4.7758,-4.7716,-4.7962,-4.8139,-4.8156,-4.8156,-4.8199,0.0,0.0,0.0,0.0,0.0,0.0,0.0,0.0,0.0,0.0,0.0,0.0,0.0,0.0,0.0,0.0,0.0,0.0,0.0,0.0,0.0,0.0,0.0,0.0,0.0,0.0,0.0,0.0,-6.0588,-6.0936,-6.1162,0.0,0.0,0.0,0.0,0.0,0.0,0.0,0.0,0.0,0.0,-6.1823,-6.167,-6.226,0.0,0.0,-6.2818,-6.2952,-6.2952,-6.2959,-6.2972,-6.2953,-6.2972,0.0,0.0,0.0,0.0,0.0,0.0,0.0,0.0,0.0,0.0,0.0,0.0,0.0,0.0,0.0,0.0,0.0,0.0,0.0,0.0,0.0,0.0,0.0,0.0,0.0,0.0,0.0,0.0,0.0,0.0,0.0,0.0,0.0,0.0,0.0,0.0,0.0,0.0,0.0,0.0,0.0,0.0,0.0,0.0,0.0,0.0,0.0,0.0,0.0,0.0,0.0,0.0,-4.8027,-4.7876,-4.8285,-4.8388,-4.8344,-4.8809,-4.9018,-4.9018,-4.9063,-4.9124,0.0,0.0,0.0,0.0,0.0,0.0,0.0,0.0,0.0,0.0,0.0,0.0,0.0,0.0,0.0,0.0,0.0,0.0,0.0,0.0,0.0,0.0,0.0,0.0,0.0,0.0,0.0,0.0,-6.1336,-6.1759,-6.1707,0.0,0.0,0.0,0.0,0.0,0.0,0.0,0.0,0.0,0.0,-6.2429,-6.2316,-6.2675,-6.2922,-6.294,-6.2849,-6.2773,-6.276,-6.2741,-6.2705,-6.2654,0.0,0.0,0.0,0.0,0.0,0.0,0.0,0.0,0.0,0.0,0.0,0.0,0.0,0.0,0.0,0.0,0.0,0.0,0.0,0.0,0.0,0.0,0.0,0.0,0.0,0.0,0.0,0.0,0.0,0.0,-5.2554,0.0,0.0,0.0,0.0,0.0,0.0,0.0,0.0,0.0,0.0,0.0,0.0,0.0,0.0,0.0,0.0,0.0,0.0,0.0,0.0,0.0,0.0,-4.8633,-4.836,-4.8882,-4.9073,-4.8968,-4.8984,-4.9018,-4.9001,-4.9124,-4.9229,-4.9229,0.0,0.0,0.0,0.0,0.0,0.0,0.0,0.0,0.0,0.0,0.0,0.0,0.0,0.0,0.0,0.0,0.0,0.0,0.0,0.0,0.0,0.0,0.0,0.0,0.0,0.0,-6.1246,-6.183,-6.2207,0.0,0.0,0.0,0.0,0.0,0.0,0.0,0.0,0.0,0.0,-6.2564,-6.2965,-6.2965,-6.2904,-6.2805,-6.2805,-6.2823,-6.276,-6.2613,-6.2643,-6.2552,0.0,0.0,0.0,0.0,0.0,0.0,0.0,0.0,0.0,0.0,0.0,0.0,0.0,0.0,0.0,0.0,0.0,0.0,0.0,0.0,0.0,0.0,0.0,0.0,0.0,0.0,0.0,-5.3121,-5.3429,0.0,0.0,0.0,0.0,0.0,0.0,0.0,0.0,0.0,0.0,0.0,-5.3164,-5.2955,0.0,0.0,0.0,0.0,0.0,0.0,0.0,0.0,0.0,0.0,0.0,0.0,-4.9171,-4.895,-4.8989,-4.9063,-4.9018,-4.9018,-4.9063,-4.9124,-4.9168,-4.9333,-4.9632,0.0,0.0,0.0,0.0,0.0,0.0,0.0,0.0,0.0,0.0,0.0,0.0,0.0,0.0,0.0,0.0,0.0,0.0,0.0,0.0,0.0,0.0,0.0,0.0,0.0,-6.1696,0.0,0.0,0.0,0.0,0.0,0.0,0.0,0.0,0.0,0.0,0.0,-6.2712,-6.2664,-6.2788,-6.2855,-6.2855,-6.2823,-6.2823,0.0,0.0,0.0,0.0,0.0,0.0,0.0,0.0,0.0,0.0,0.0,0.0,0.0,0.0,-6.2972,-6.3045,-6.3124,-6.3184,-6.3213,0.0,0.0,0.0,0.0,0.0,0.0,0.0,0.0,0.0,0.0,0.0,0.0,0.0,0.0,-5.3455,0.0,-5.3939,0.0,0.0,0.0,0.0,0.0,0.0,0.0,0.0,-5.4271,-5.4032,-5.4051,-5.3752,-5.3599,0.0,-5.3135,-5.2794,0.0,0.0,0.0,0.0,0.0,0.0,0.0,0.0,-4.9547,-4.962,-4.9452,-4.9571,-4.9825,-4.9825,-4.9966,-5.0073,-5.0178,-5.0463,-5.0968,-5.1462,-5.1737,0.0,0.0,0.0,0.0,0.0,0.0,0.0,0.0,0.0,0.0,0.0,0.0,0.0,0.0,0.0,0.0,0.0,0.0,0.0,0.0,0.0,0.0,0.0,-6.2546,0.0,0.0,0.0,0.0,0.0,0.0,0.0,0.0,0.0,-6.3117,-6.3002,-6.2953,-6.2953,-6.2873,-6.2823,-6.2823,0.0,0.0,0.0,0.0,0.0,0.0,0.0,-6.2449,-6.2257,-6.2257,-6.2257,-6.2362,-6.25,-6.2654,-6.2755,0.0,0.0,-6.2915,-6.2996,-6.3057,-6.3069,-6.3002,-6.2904,-6.2904,-6.2836,-6.2823,0.0,0.0,0.0,0.0,0.0,0.0,0.0,0.0,-5.2956,-5.3129,0.0,-5.3778,0.0,0.0,0.0,0.0,0.0,-5.5405,0.0,0.0,-5.5574,-5.5592,-5.5556,-5.5295,-5.5148,-5.496,-5.4567,-5.4164,-5.3691,-5.2059,0.0,0.0,0.0,0.0,0.0,0.0,-4.9854,-5.0402,-5.026,-5.0617,-5.1422,-5.152,-5.1583,-5.1771,-5.2045,-5.2448,-5.2984,-5.3215,-5.3509,-5.378,-5.4188,0.0,0.0,0.0,0.0,0.0,0.0,0.0,0.0,0.0,0.0,0.0,0.0,0.0,0.0,0.0,0.0,0.0,0.0,0.0,0.0,-6.2542,0.0,0.0,0.0,0.0,0.0,0.0,0.0,0.0,0.0,0.0,-6.3002,-6.2904,-6.2823,-6.2823,0.0,0.0,0.0,0.0,-6.2823,-6.2823,-6.2823,-6.2705,-6.2467,-6.2415,-6.231,-6.206,0.0,0.0,-6.2362,-6.2519,-6.2654,-6.2755,-6.2823,-6.2823,-6.2823,-6.2823,-6.2823,-6.2823,-6.2805,-6.2823,-6.2823,-6.2805,-6.2823,-5.2677,0.0,0.0,0.0,0.0,-5.3524,-5.3714,-5.4042,-5.4025,-5.433,-5.4881,-5.4957,0.0,0.0,0.0,0.0,0.0,0.0,-5.6227,-5.6418,-5.5849,-5.5592,-5.5574,-5.535,-5.5148,-5.5101,-5.4652,-5.4251,-5.3921,-5.3157,-5.2488,-5.2108,0.0,0.0,0.0,0.0,-5.1336,-5.1356,-5.1356,-5.1458,-5.1743,-5.1805,-5.2035,-5.2441,-5.2753,-5.3098,-5.3417,-5.3673,-5.401,-5.4287,-5.4622,0.0,0.0,0.0,0.0,0.0,0.0,0.0,0.0,0.0,0.0,0.0,0.0,0.0,0.0,0.0,0.0,0.0,0.0,0.0,-6.2414,-6.2726,-6.2873,0.0,0.0,0.0,0.0,0.0,0.0,0.0,0.0,0.0,-6.2855,-6.2805,-6.2823,0.0,0.0,-6.2823,-6.2823,-6.2823,-6.2823,-6.2823,-6.2823,0.0,-6.2415,-6.2415,-6.231,-6.2023,-6.2023,-6.206,-6.2381,-6.2397,-6.25,-6.2755,-6.2823,-6.2823,-6.2823,-6.2823,-6.2823,-6.2823,-6.2823,-6.2823,-6.2823,-6.2823,-6.2823,-5.1617,-5.2932,-5.3188,-5.356,-5.3898,-5.398,-5.411,-5.4367,-5.4448,-5.4824,-5.5329,-5.5431,-5.5782,-5.6217,-5.6528,0.0,0.0,0.0,-5.7032,-5.7262,-5.6785,-5.6547,-5.6547,-5.6282,-5.6113,-5.6048,-5.5609,-5.5183,-5.492,-5.452,-5.4143,-5.3777,0.0,0.0,-5.1991,-5.1991,-5.2128,-5.2295,-5.2295,-5.2512,-5.2929,-5.3176,-5.3522,-5.3935,-5.4183,-5.4409,-5.4776,-5.5044,-5.5305,-5.5577,-5.5822,-5.6029,0.0,0.0,0.0,0.0,0.0,0.0,0.0,0.0,0.0,0.0,0.0,-5.8125,-5.8455,0.0,0.0,0.0,-6.1318,-6.2273,-6.2768,-6.2823,0.0,0.0,0.0,0.0,0.0,0.0,0.0,-6.2823,-6.2823,-6.2823,-6.2823,-6.2823,-6.2823,-6.2823,-6.2823,-6.2823,-6.2823,0.0,-6.2823,-6.2823,-6.2823,-6.2737,-6.2497,-6.243,-6.231,-6.2078,-6.2023,-6.2114,-6.2362,-6.2415,-6.2519,-6.2705,-6.2823,-6.2823,-6.2823,-6.2823,-6.2823,-6.2823,-6.2823,-6.2823,-6.2823,-6.2823,-6.2823,-5.0439,-5.12,-5.1843,-5.2736,-5.3615,-5.3881,-5.4045,-5.4239,-5.4431,-5.4683,-5.5035,-5.5354,-5.5648,-5.5975,-5.6582,0.0,-5.7583,-5.7601,-5.7745,-5.7978,-5.7978,-5.7978,-5.7978,-5.7726,-5.7553,-5.7388,-5.7003,-5.6689,-5.642,-5.5975,-5.5648,-5.5472,-5.3659,-5.2589,-5.2286,-5.2224,-5.2551,-5.3283,-5.3283,-5.3753,-5.4755,-5.5061,-5.5496,-5.5901,-5.5975,-5.6182,-5.6635,-5.6899,-5.7105,-5.7257,-5.7504,-5.7704,-5.7795,0.0,0.0,0.0,0.0,0.0,0.0,0.0,0.0,0.0,0.0,0.0,0.0,0.0,0.0,0.0,-6.2328,0.0,-6.2823,-6.2823,0.0,0.0,0.0,-6.2823,-6.2823,-6.2823,-6.2823,-6.2823,0.0,0.0,-6.2823,-6.2823,-6.2823,-6.2823,-6.2823,-6.2823,-6.2823,-6.2823,-6.2823,-6.2823,-6.2823,-6.2768,-6.2627,-6.2497,-6.2328,-6.2114,-6.2005,-6.2114,-6.2362,-6.2415,-6.2519,-6.2755,-6.2823,-6.2823,-6.2823,-6.2823,-6.2823,-6.2823,-6.2823,-6.2823,-6.2823,-6.2823,-6.2823,-4.9774,-5.0595,-5.0781,-5.1613,-5.2918,-5.3528,-5.3915,-5.4222,-5.4431,-5.4683,-5.4992,-5.5371,-5.5839,-5.6474,-5.6899,-5.7307,-5.7601,-5.7715,-5.7839,-5.7978,-5.7978,-5.7978,-5.7997,-5.7839,-5.7697,-5.7553,-5.7239,-5.6951,-5.6689,-5.6383,-5.6106,-5.5786,-5.522,-5.4752,-5.4331,-5.4269,-5.44,-5.4678,-5.4678,-5.4964,-5.5455,-5.5631,-5.5901,-5.6273,-5.6365,-5.6635,-5.7036,-5.7087,-5.7289,-5.7649,-5.774,-5.7788,-5.7941,-5.7932,0.0,0.0,0.0,0.0,0.0,0.0,0.0,0.0,0.0,-5.8345,-5.9153,0.0,-6.0493,0.0,-6.2346,-6.2823,-6.2823,-6.2823,0.0,0.0,-6.2823,-6.2823,-6.2823,-6.2823,-6.2823,-6.2823,-6.2823,-6.2823,-6.2823,-6.2823,-6.2823,-6.2823,-6.2823,-6.2823,-6.2823,-6.2823,-6.2823,-6.2823,-6.2823,-6.2768,-6.2608,-6.2479,-6.2362,-6.231,-6.2328,-6.2362,-6.2519,-6.2552,-6.2603,-6.2773,-6.2823,-6.2823,-6.2823,-6.2823,-6.2823,-6.2823,-6.2823,-6.2823,-6.2823,-6.2823,-6.2823,-4.9562,-5.0032,-5.0356,-5.1049,-5.1976,-5.2665,-5.31,-5.3307,-5.3839,-5.4287,-5.4745,-5.5565,-5.6217,-5.6707,-5.7054,-5.7338,-5.7601,-5.7745,-5.7904,-5.7978,-5.7978,-5.7978,-5.7997,-5.7857,-5.7745,-5.7697,-5.7338,-5.7138,-5.6951,-5.6653,-5.6383,-5.6199,-5.6088,-5.5879,-5.5631,-5.5336,-5.5354,-5.5496,-5.5671,-5.5861,-5.6106,-5.6217,-5.6347,-5.6742,-5.6847,-5.7036,-5.7356,-5.7455,-5.7601,-5.7792,-5.7865,-5.7912,-5.7997,-5.7978,-5.7978,0.0,0.0,0.0,0.0,0.0,0.0,0.0,0.0,0.0,0.0,0.0,-6.1275,-6.2053,-6.2548,-6.2823,-6.2823,-6.2823,-6.2823,-6.2823,-6.2823,-6.2823,-6.2823,-6.2823,-6.2823,-6.2823,-6.2823,-6.2823,-6.2823,-6.2823,-6.2823,-6.2823,-6.2823,-6.2823,-6.2823,-6.2823,-6.2823,-6.2823,-6.2823,-6.2737,-6.2613,-6.2515,-6.2467,-6.2415,-6.2415,-6.2467,-6.2534,-6.2603,-6.2654,-6.2755,-6.2823,-6.2823,-6.2823,-6.2823,-6.2823,-6.2823,-6.2823,-6.2823,-6.2823,-6.2823,-6.2823,-4.9564,-4.9616,-5.0249,-5.0721,-5.107,-5.1589,-5.1968,-5.233,-5.3169,-5.3858,-5.4521,-5.5806,-5.6582,-5.6847,-5.7156,-5.7388,-5.7631,-5.7763,-5.7886,-5.7978,-5.7978,-5.7978,-5.7997,-5.7886,-5.7792,-5.781,-5.7455,-5.7239,-5.7239,-5.6899,-5.6689,-5.6635,-5.6564,-5.6492,-5.6455,-5.5993,-5.5804,-5.5957,-5.6328,-5.6546,-5.6635,-5.6689,-5.6847,-5.7188,-5.7257,-5.7356,-5.7583,-5.7745,-5.7792,-5.7857,-5.7932,-5.7978,-5.7978,-5.7978,-5.7978,0.0,-5.7978,0.0,0.0,0.0,0.0,0.0,0.0,0.0,0.0,-6.1202,-6.2059,-6.275,-6.2823,-6.2823,-6.2823,-6.2823,-6.2823,-6.2823,-6.2823,-6.2823,-6.2823,-6.2823,-6.2823,-6.2823,-6.2823,-6.2823,-6.2823,-6.2823,-6.2823,-6.2823,-6.2823,-6.2823,-6.2823,-6.2823,-6.2823,-6.2823,-6.2823,-6.2755,-6.2636,-6.2636,-6.2622,-6.2449,-6.2467,-6.25,-6.2603,-6.2654,-6.2654,-6.2773,-6.2823,-6.2823,-6.2823,-6.2823,-6.2823,-6.2823,-6.2823,-6.2823,-6.2823,-6.2823,-6.2823,-4.9649,-4.9825,-4.9963,-5.0207,-5.0528,-5.0745,-5.1546,-5.2612,-5.3009,-5.3887,-5.5079,-5.608,-5.6794,-5.7138,-5.7406,-5.7601,-5.7745,-5.7886,-5.7997,-5.7978,-5.7978,-5.7978,-5.7978,-5.8015,-5.7904,-5.781,-5.7697,-5.7649,-5.7486,-5.7356,-5.7188,-5.7105,-5.6951,-5.6899,-5.6881,0.0,0.0,0.0,-5.6742,-5.6881,-5.6951,-5.7138,-5.7289,-5.7338,-5.7437,0.0,-5.7763,-5.7792,-5.7839,-5.795,-5.7997,0.0,0.0,0.0,0.0,0.0,0.0,0.0,0.0,0.0,0.0,0.0,-5.9722,-6.0254,-6.0419,-6.1722,-6.264,-6.2787,-6.2823,-6.2823,-6.2823,-6.2823,-6.2823,-6.2823,-6.2823,-6.2823,-6.2823,-6.2823,-6.2823,-6.2823,-6.2823,-6.2823,-6.2823,-6.2823,-6.2823,-6.2823,-6.2823,-6.2823,-6.2823,-6.2823,-6.2823,-6.2823,-6.2823,-6.2823,-6.2773,-6.2755,-6.2755,-6.2705,-6.2705,-6.2705,-6.2755,-6.2755,-6.2755,-6.2823,-6.2823,-6.2823,-6.2823,-6.2823,-6.2823,-6.2823,-6.2823,-6.2823,-6.2823,-6.2823,-6.2823,-4.9999,0.0,-5.0211,-5.0363,0.0,-5.0784,-5.1294,-5.2104,-5.2584,-5.3725,-5.533,-5.6021,-5.6624,-5.7206,-5.7553,-5.7745,-5.7792,-5.795,-5.7978,-5.7978,-5.7978,-5.7978,-5.7978,-5.7978,-5.7932,-5.7904,-5.7839,-5.7763,-5.7697,-5.7553,-5.7437,-5.7406,-5.7356,-5.7289,-5.7307,-5.7307,-5.7206,-5.6984,-5.7188,-5.7289,-5.7289,-5.7437,-5.7753,-5.8166,0.0,0.0,0.0,0.0,0.0,0.0,0.0,0.0,0.0,0.0,0.0,-5.7997,-5.8372,-5.8592,-5.8621,-5.8969,-5.9373,-5.9777,-6.0529,-6.1172,-6.1557,-6.2328,-6.2823,-6.2823,-6.2823,-6.2823,-6.2823,-6.2823,-6.2823,-6.2823,-6.2823,-6.2823,-6.2823,-6.2823,-6.2823,-6.2823,-6.2823,-6.2823,-6.2823,-6.2823,-6.2823,-6.2823,-6.2823,-6.2823,-6.2823,-6.2823,-6.2823,-6.2823,-6.2823,-6.2823,-6.2823,-6.2823,-6.2823,-6.2823,-6.2823,-6.2823,-6.2823,-6.2823,-6.2823,-6.2823,-6.2823,-6.2823,-6.2823,-6.2823,-6.2823,-6.2823,-6.2823,-6.2823,-6.2823,-6.2823,-6.2823,-5.0453,-5.0526,-5.0602,-5.0784,-5.0928,-5.1141,-5.135,-5.1678,0.0,0.0,0.0,-5.5699,-5.6405,-5.7089,-5.7576,-5.7792,-5.7839,-5.795,-5.7978,-5.7978,-5.7978,-5.7978,-5.7978,-5.7978,-5.7978,-5.7978,-5.7886,-5.7839,-5.7839,-5.7745,-5.7649,-5.7649,-5.7649,-5.7649,-5.7631,-5.7649,-5.7674,-5.7704,-5.7656,-5.7704,-5.785,-5.7868,-5.8281,-5.92,-5.9219,-5.9333,-5.9428,-5.9428,-5.9116,-5.8455,-5.84,-5.8419,-5.8419,-5.8428,-5.8428,-5.8455,-5.9022,-5.9406,-5.9446,-6.0034,-6.0474,-6.0651,-6.1404,-6.2138,-6.275,-6.2805,-6.2855,-6.2836,-6.2855,-6.2855,-6.2855,-6.2873,-6.2873,-6.2873,-6.2823,-6.2842,-6.2805,-6.2805,-6.2823,-6.2823,-6.2823,-6.2823,-6.2823,-6.2823,-6.2823,-6.2823,-6.2823,-6.2897,-6.2952,-6.2915,-6.2823,-6.2823,-6.2957,-6.3048,-6.308,-6.3282,-6.3227,-6.3411,-6.3356,-6.3246,-6.3246,-6.3264,-6.3246,-6.3392,-6.3246,-6.3332,-6.3282,-6.3374,-6.3246,-6.3246,-6.3135,-6.3025,-6.3025,-6.2915,-6.2823,-5.0747,-5.0998,-5.1052,-5.1193,-5.1402,-5.1538,-5.184,-5.224,-5.2695,-5.3293,-5.3942,-5.5395,-5.6261,-5.6711,-5.7499,-5.7839,-5.7997,-5.7997,-5.7978,0.0,-5.7978,-5.7978,-5.7978,-5.7978,-5.7978,-5.7978,-5.7997,-5.795,-5.795,-5.795,-5.7886,-5.7792,-5.7792,-5.7792,-5.7792,-5.7904,-5.8299,-5.8912,-5.8158,-5.8092,-5.8768,-5.8901,-5.9381,-6.0133,-6.0188,-6.0188,-6.0236,-6.0236,-6.0181,-6.007,-6.0063,-6.0063,-6.0052,-6.0028,-6.0075,-6.0052,-6.0181,-6.0236,-6.0254,-6.0346,-6.0743,-6.1555,-6.2309,-6.2843,-6.2805,-6.2904,-6.2965,-6.297,-6.3062,-6.3165,-6.3117,-6.3124,-6.3124,-6.3117,-6.3064,-6.2965,-6.2953,-6.2886,-6.2805,-6.2805,-6.2823,-6.2805,-6.2805,-6.2823,-6.2805,-6.2805,-6.2915,-6.308,-6.359,-6.3259,-6.286,-6.2934,-6.3438,-6.3823,-6.398,-6.453,-6.4751,-6.4971,-6.4861,-6.4751,-6.4751,-6.4732,-6.4769,-6.4916,-6.4761,-6.483,-6.4857,-6.4952,-6.4824,-6.4751,-6.431,-6.3925,-6.3906,-6.3392,-6.2879,-5.1123,-5.1316,-5.1402,-5.1556,-5.1758,-5.1987,-5.2246,-5.2423,-5.273,-5.3222,-5.3769,-5.4636,-5.5595,-5.6603,-5.7033,-5.7529,-5.7978,-5.7978,-5.7978,-5.7978,-5.7978,-5.7978,-5.7978,-5.7978,-5.7978,-5.7978,-5.7978,-5.7978,-5.7978,-5.7978,-5.7969,-5.7904,-5.7904,-5.7886,-5.7922,-5.839,-5.8841,-5.9189,-5.8794,-5.8948,-5.9736,-5.9821,-6.0236,-6.1043,-6.1043,-6.1043,-6.1043,-6.1062,-6.086,-6.0419,-6.0401,-6.0401,-6.0401,-6.0419,-6.0419,-6.0419,-6.0811,-6.1068,-6.1158,-6.161,-6.2111,-6.2546,-6.2896,-6.3099,-6.3002,-6.3069,-6.3139,-6.3113,-6.3149,-6.3184,-6.3202,-6.3213,-6.3223,-6.3205,-6.3139,-6.3139,-6.3128,-6.3036,-6.3018,-6.3032,-6.3014,-6.3014,-6.3021,-6.3002,-6.2953,-6.2941,-6.3204,-6.3847,-6.4614,-6.4434,-6.4163,-6.42,-6.4479,-6.4717,-6.4769,-6.5044,-6.5301,-6.5319,-6.5319,-6.5319,-6.5319,-6.5338,-6.5338,-6.5319,-6.5298,-6.5331,-6.5338,-6.5288,-6.5307,-6.5301,-6.5063,-6.4769,-6.4659,-6.409,-6.3392,-5.1505,-5.1658,-5.1758,-5.1907,-5.2054,-5.2434,-5.2572,-5.2572,-5.2779,-5.3152,-5.3654,-5.4008,-5.4993,-5.6337,-5.6648,-5.7244,-5.7923,-5.7978,-5.7978,-5.7978,-5.7978,-5.7978,-5.7978,-5.7978,-5.7978,-5.7978,-5.7978,-5.7978,-5.7978,-5.7978,-5.7978,-5.7978,-5.7978,-5.8088,-5.8272,-5.8896,-5.9391,-5.9722,-5.9758,-6.0052,-6.0639,-6.0658,-6.1062,-6.1796,-6.1869,-6.1869,-6.1869,-6.1869,-6.1575,-6.1006,-6.0958,-6.0958,-6.0951,-6.0951,-6.0951,-6.1025,-6.1575,-6.1992,-6.2118,-6.2796,-6.3213,-6.3279,-6.3307,-6.3326,-6.3363,-6.3373,-6.3335,-6.3305,-6.3363,-6.3354,-6.3391,-6.3363,-6.3335,-6.3354,-6.3325,-6.3363,-6.3317,-6.328,-6.3224,-6.3252,-6.3186,-6.3186,-6.3231,-6.3379,-6.3553,-6.3751,-6.4112,-6.4742,-6.5492,-6.568,-6.5702,-6.5812,-6.5705,-6.5543,-6.5595,-6.5797,-6.5907,-6.5852,-6.5907,-6.5999,-6.598,-6.5907,-6.587,-6.598,-6.5925,-6.598,-6.5907,-6.5893,-6.5966,-6.5983,-6.5797,-6.5503,-6.5246,-6.4806,-6.4108,-5.1907,-5.2036,-5.2036,-5.2198,-5.2434,-5.269,-5.2779,-5.2779,-5.2912,-5.3017,-5.3156,-5.3877,-5.4726,-5.5721,-5.6473,-5.7207,-5.796,-5.7978,-5.7978,-5.7978,-5.7978,-5.7978,-5.7978,-5.7978,-5.7978,-5.7978,-5.7978,-5.7978,-5.7978,-5.7978,-5.7978,-5.7978,-5.7978,-5.8382,-5.9024,-5.9171,-5.9924,-6.1318,-6.1374,-6.141,-6.1465,-6.1484,-6.1869,-6.2677,-6.2695,-6.2713,-6.2658,-6.2695,-6.2658,-6.2603,-6.2548,-6.2585,-6.2567,-6.2535,-6.2585,-6.2696,-6.2811,-6.2944,-6.3018,-6.3158,-6.3326,-6.3511,-6.3557,-6.3612,-6.3806,-6.3817,-6.3779,-6.3649,-6.3718,-6.3823,-6.3817,-6.383,-6.3811,-6.3761,-6.3729,-6.3758,-6.3691,-6.3535,-6.3363,-6.3363,-6.3391,-6.3213,-6.3408,-6.3926,-6.458,-6.5244,-6.5398,-6.5823,-6.6547,-6.6703,-6.6887,-6.7252,-6.6948,-6.6441,-6.6476,-6.7026,-6.7173,-6.732,-6.7393,-6.7283,-6.7192,-6.7247,-6.743,-6.7008,-6.7265,-6.7228,-6.7283,-6.7467,-6.7375,-6.71,-6.6714,-6.62,-6.5558,-6.5264,-6.4879,-5.2198,-5.2358,-5.2397,-5.249,-5.2708,-5.2868,-5.2912,-5.2955,-5.3042,-5.3103,-5.314,-5.3469,-5.4338,-5.5592,-5.5941,-5.6767,-5.796,-5.7978,-5.7978,-5.7978,-5.7978,-5.7978,-5.7978,-5.7978,-5.7978,-5.7978,-5.7978,-5.7978,-5.7978,-5.7978,-5.7978,-5.7978,-5.7978,-5.84,-5.9189,-5.9685,-6.0474,-6.1557,-6.2071,-6.231,-6.231,-6.231,-6.2475,-6.2768,-6.2823,-6.2823,-6.2823,-6.2823,-6.2823,-6.2823,-6.2823,-6.2805,-6.2886,-6.2928,-6.2978,-6.3117,-6.327,-6.3345,-6.3419,-6.3538,-6.3654,-6.3742,-6.3848,-6.3904,-6.3991,-6.4117,-6.4131,-6.4078,-6.4031,-6.4056,-6.4065,-6.4033,-6.4042,-6.4004,-6.3934,-6.3842,-6.3867,-6.3785,-6.3667,-6.3742,-6.4101,-6.4353,-6.4465,-6.4995,-6.5765,-6.6449,-6.6605,-6.6821,-6.746,-6.7613,-6.769,-6.7875,-6.7657,-6.7424,-6.7263,-6.743,-6.765,-6.7687,-6.7669,-6.7669,-6.7687,-6.7669,-6.7669,-6.7669,-6.7669,-6.7669,-6.7595,-6.7669,-6.7669,-6.7614,-6.7577,-6.7081,-6.6751,-6.6329,-6.5888,-5.2281,-5.2581,-5.2654,-5.2743,-5.2868,-5.2999,-5.3042,-5.306,-5.3146,-5.3206,-5.3206,-5.3206,-5.3977,-5.517,-5.5482,-5.6473,-5.7868,-5.7978,-5.7978,-5.7978,-5.7978,-5.7978,-5.7978,-5.7978,-5.7978,-5.7978,-5.7978,-5.7978,-5.7978,-5.7978,-5.7978,-5.8015,-5.8217,-5.8731,-5.9538,-6.0327,-6.1117,-6.1906,-6.253,-6.2823,-6.2805,-6.2823,-6.2823,-6.2823,-6.2823,-6.2823,-6.2823,-6.2823,-6.2823,-6.2855,-6.2855,-6.2904,-6.3051,-6.3045,-6.3124,-6.3299,-6.3565,-6.3691,-6.3736,-6.3891,-6.3958,-6.4042,-6.4125,-6.4222,-6.4278,-6.4383,-6.4521,-6.4519,-6.4426,-6.4364,-6.4316,-6.4259,-6.4228,-6.4251,-6.4166,-6.4098,-6.4102,-6.4247,-6.4434,-6.4458,-6.5127,-6.5702,-6.592,-6.6362,-6.6899,-6.7589,-6.768,-6.7714,-6.8192,-6.8327,-6.8301,-6.8269,-6.8245,-6.8088,-6.7865,-6.7828,-6.7794,-6.7794,-6.7794,-6.7794,-6.7741,-6.7741,-6.7669,-6.7669,-6.7669,-6.7669,-6.7669,-6.7669,-6.7669,-6.7669,-6.7669,-6.765,-6.7467,-6.7118,-6.6898,-5.2051,-5.2769,-5.2955,-5.2999,-5.298,-5.3121,-5.3182,-5.3164,-5.3206,-5.3206,-5.3206,-5.3206,-5.3665,-5.4546,-5.528,-5.6455,-5.7813,-5.796,-5.7978,-5.7978,-5.7978,-5.7978,-5.7978,-5.7978,-5.7978,-5.7978,-5.7978,-5.7978,-5.7978,-5.7978,-5.7978,-5.8015,-5.8731,-5.952,-6.0291,-6.1062,-6.1924,-6.2603,-6.2768,-6.2823,-6.2823,-6.2823,-6.2823,-6.2805,-6.2823,-6.2823,-6.2823,-6.2823,-6.2873,-6.3002,-6.3002,-6.3069,-6.3147,-6.3231,-6.3326,-6.3562,-6.3779,-6.3915,-6.4061,-6.4102,-6.4184,-6.4326,-6.4405,-6.4481,-6.4614,-6.469,-6.4758,-6.4942,-6.4898,-6.4834,-6.4634,-6.4615,-6.4577,-6.4577,-6.4554,-6.4573,-6.4615,-6.5162,-6.5555,-6.5722,-6.6225,-6.6894,-6.7535,-6.7679,-6.8028,-6.8556,-6.8744,-6.8782,-6.8772,-6.8836,-6.8766,-6.8673,-6.8531,-6.8377,-6.8162,-6.8022,-6.8055,-6.8037,-6.7933,-6.7881,-6.7828,-6.7776,-6.7722,-6.7687,-6.7724,-6.7724,-6.7687,-6.7669,-6.7722,-6.7741,-6.7687,-6.7687,-6.7687,-6.7669,-6.7504,-5.148,-5.2328,-5.2883,-5.3103,-5.3164,-5.3182,-5.3206,-5.3206,-5.3206,-5.3206,-5.3206,-5.3206,-5.3647,-5.4454,-5.5225,-5.618,-5.7244,-5.7758,-5.7978,-5.7978,-5.7978,-5.7978,-5.7978,-5.7978,-5.7978,-5.7978,-5.7978,-5.7978,-5.7978,-5.7978,-5.7978,-5.8125,-5.8822,-5.9612,-6.0401,-6.119,-6.1998,-6.2732,-6.2823,-6.2823,-6.2823,-6.2823,-6.2873,-6.2904,-6.2855,-6.2855,-6.2953,-6.2972,-6.3002,-6.3099,-6.3099,-6.3194,-6.3447,-6.3583,-6.3742,-6.3928,-6.4094,-6.4184,-6.4287,-6.4386,-6.4502,-6.4577,-6.4707,-6.4801,-6.4897,-6.4948,-6.5038,-6.5105,-6.5117,-6.5042,-6.4989,-6.4886,-6.485,-6.4848,-6.4821,-6.503,-6.5444,-6.5819,-6.6141,-6.6711,-6.741,-6.8162,-6.8703,-6.8964,-6.9031,-6.9166,-6.9241,-6.9178,-6.9109,-6.9042,-6.8978,-6.8922,-6.88,-6.8734,-6.8639,-6.8259,-6.8088,-6.8088,-6.8037,-6.8037,-6.7967,-6.7985,-6.7985,-6.7899,-6.7902,-6.7902,-6.7899,-6.7828,-6.7828,-6.7828,-6.7794,-6.7741,-6.7669,-6.7722,-6.7722,-5.1161,-5.2013,-5.2582,-5.2986,-5.3206,-5.3206,-5.3206,-5.3206,-5.3206,-5.3206,-5.3206,-5.3206,-5.3518,-5.4106,-5.4858,-5.5647,-5.6492,-5.7483,-5.7978,-5.7978,-5.7978,-5.7978,-5.7978,-5.7978,-5.7978,-5.7978,-5.7978,-5.7978,-5.7978,-5.7978,-5.7978,-5.8033,-5.9043,-5.9869,-6.0474,-6.1447,-6.2291,-6.2732,-6.2823,-6.2823,-6.2823,-6.2855,-6.2904,-6.3002,-6.2953,-6.2953,-6.3051,-6.3051,-6.3147,-6.3307,-6.3307,-6.3465,-6.371,-6.3891,-6.4072,-6.42,-6.4331,-6.4463,-6.4577,-6.4726,-6.4815,-6.485,-6.4974,-6.5088,-6.5118,-6.5209,-6.5283,-6.5318,-6.5337,-6.5333,-6.5302,-6.5252,-6.5169,-6.5136,-6.5243,-6.5573,-6.617,-6.6673,-6.7395,-6.8182,-6.8716,-6.9266,-6.9683,-6.9719,-6.9641,-6.9539,-6.9479,-6.9457,-6.9374,-6.9259,-6.9177,-6.917,-6.9141,-6.9091,-6.9034,-6.8763,-6.8517,-6.8487,-6.8321,-6.8272,-6.824,-6.819,-6.819,-6.8107,-6.8125,-6.8074,-6.8055,-6.8018,-6.7967,-6.7985,-6.7933,-6.7899,-6.7881,-6.7828,-6.7828,-5.1206,-5.183,-5.1995,-5.2491,-5.3059,-5.3188,-5.3206,-5.3206,-5.3206,-5.3206,-5.3206,-5.3206,-5.3261,-5.3445,-5.4197,-5.4895,-5.5739,-5.7152,-5.7905,-5.7978,-5.7978,-5.7978,-5.7978,-5.7978,-5.7978,-5.7978,-5.7978,-5.7978,-5.7978,-5.7978,-5.7978,-5.8272,-5.9483,-6.0199,-6.0401,-6.1796,-6.2695,-6.2805,-6.2805,-6.2823,-6.2823,-6.2953,-6.2984,-6.3051,-6.3147,-6.3213,-6.3194,-6.3213,-6.3354,-6.3557,-6.362,-6.3791,-6.4065,-6.4241,-6.4347,-6.4407,-6.4614,-6.4743,-6.4907,-6.4993,-6.5076,-6.5161,-6.5213,-6.5251,-6.5346,-6.5378,-6.5435,-6.5532,-6.558,-6.5571,-6.5561,-6.5542,-6.5503,-6.5328,-6.5912,-6.6336,-6.6845,-6.7959,-6.918,-6.9855,-7.0033,-7.0092,-7.0039,-6.9985,-6.9929,-6.9816,-6.9758,-6.9738,-6.9699,-6.9617,-6.9608,-6.9557,-6.9495,-6.935,-6.9325,-6.9256,-6.9097,-6.8929,-6.8754,-6.8613,-6.8535,-6.8457,-6.8389,-6.8358,-6.8358,-6.8358,-6.8352,-6.8284,-6.8222,-6.819,-6.8139,-6.8088,-6.7985,-6.7985,-6.8037,-5.0123,-5.0472,-5.1536,-5.2123,-5.2454,-5.2968,-5.3206,-5.3206,-5.3206,-5.3206,-5.3206,-5.3206,-5.3206,-5.339,-5.4051,-5.4546,-5.4895,-5.6418,-5.7464,-5.7886,-5.7978,-5.7978,-5.7978,-5.7978,-5.7978,-5.7978,-5.7978,-5.7978,-5.7978,-5.7978,-5.7978,-5.8217,-5.9061,-5.9869,-6.0438,-6.1429,-6.2199,-6.275,-6.2904,-6.2953,-6.2953,-6.3051,-6.3147,-6.3307,-6.3419,-6.3511,-6.362,-6.3511,-6.3583,-6.3805,-6.3891,-6.4046,-6.4304,-6.448,-6.463,-6.475,-6.4845,-6.4974,-6.5114,-6.5226,-6.5302,-6.5352,-6.5425,-6.5493,-6.5531,-6.5551,-6.5532,-6.5597,-6.5635,-6.5599,-6.5599,-6.5599,-6.5829,-6.6289,-6.6602,-6.7279,-6.8265,-6.9398,-7.0145,-7.0439,-7.0438,-7.0319,-7.0286,-7.0236,-7.013,-7.0076,-7.0058,-7.0022,-7.0041,-6.991,-6.989,-6.9869,-6.974,-6.9664,-6.9607,-6.9565,-6.9479,-6.9308,-6.9116,-6.8937,-6.8819,-6.8744,-6.8679,-6.8602,-6.8602,-6.8613,-6.8604,-6.8557,-6.8468,-6.8389,-6.834,-6.824,-6.8121,-6.8121,-6.824,-4.9297,-4.9701,-5.0674,-5.1481,-5.1995,-5.2564,-5.2931,-5.317,-5.3206,-5.3206,-5.3206,-5.3206,-5.3206,-5.3316,-5.3757,-5.4124,-5.4528,-5.5776,-5.6785,-5.7538,-5.7923,-5.7978,-5.7978,-5.7978,-5.7978,-5.7978,-5.7978,-5.7978,-5.7978,-5.7978,-5.7978,-5.8125,-5.8822,-5.963,-6.0401,-6.1208,-6.1998,-6.2726,-6.2953,-6.3002,-6.3099,-6.3242,-6.34,-6.3492,-6.3673,-6.3867,-6.3971,-6.3953,-6.3915,-6.4079,-6.4222,-6.4413,-6.4563,-6.4728,-6.4879,-6.5003,-6.5112,-6.5174,-6.529,-6.5413,-6.5484,-6.5484,-6.5552,-6.5627,-6.5665,-6.5693,-6.5663,-6.5717,-6.5736,-6.5728,-6.5709,-6.5709,-6.6227,-6.7349,-6.7429,-6.8148,-6.9577,-7.0354,-7.065,-7.0658,-7.0597,-7.0515,-7.0483,-7.047,-7.0372,-7.0372,-7.0338,-7.0305,-7.0255,-7.0171,-7.0117,-7.0079,-6.9997,-6.9921,-6.9904,-6.9871,-6.9854,-6.9659,-6.9457,-6.9289,-6.9135,-6.9091,-6.9046,-6.8986,-6.8931,-6.8855,-6.8844,-6.879,-6.8754,-6.8679,-6.8602,-6.8554,-6.8506,-6.8506,-6.8554,-4.8783,-4.9481,-4.9591,-5.049,-5.1701,-5.1958,-5.2435,-5.3023,-5.3188,-5.3206,-5.3206,-5.3206,-5.3206,-5.3206,-5.3335,-5.3665,-5.4363,-5.5115,-5.5959,-5.6767,-5.7428,-5.785,-5.7978,-5.7978,-5.7978,-5.7978,-5.7978,-5.7978,-5.7978,-5.7978,-5.7978,-5.807,-5.8694,-5.952,-6.0217,-6.1117,-6.193,-6.2708,-6.2977,-6.3147,-6.3242,-6.3465,-6.3602,-6.3628,-6.3953,-6.4143,-6.4265,-6.4366,-6.4385,-6.4383,-6.4574,-6.4727,-6.4917,-6.4969,-6.5071,-6.5203,-6.5318,-6.5375,-6.5425,-6.5542,-6.5627,-6.5627,-6.5627,-6.5655,-6.5786,-6.5793,-6.5801,-6.5853,-6.5853,-6.5878,-6.5853,-6.5853,-6.6602,-6.8006,-6.8397,-6.9184,-7.0429,-7.0729,-7.0729,-7.0718,-7.0718,-7.0718,-7.0669,-7.0658,-7.0658,-7.0658,-7.0578,-7.0483,-7.0438,-7.0377,-7.0277,-7.0255,-7.0262,-7.02,-7.0167,-7.0141,-7.0076,-6.9966,-6.9777,-6.962,-6.9476,-6.9434,-6.9369,-6.9316,-6.9247,-6.9184,-6.9109,-6.9103,-6.9053,-6.8956,-6.8929,-6.8948,-6.8902,-6.8838,-6.8819,-4.8434,-4.871,-4.9315,-4.9829,-5.0398,-5.1426,-5.2087,-5.238,-5.2968,-5.3151,-5.3206,-5.3206,-5.3206,-5.3206,-5.3206,-5.3353,-5.3739,-5.4399,-5.5152,-5.5923,-5.673,-5.7464,-5.7886,-5.7978,-5.7978,-5.7978,-5.7978,-5.7978,-5.7978,-5.7978,-5.7978,-5.7997,-5.8235,-5.8796,-5.966,-6.0507,-6.1308,-6.2261,-6.3095,-6.3447,-6.3492,-6.3717,-6.3891,-6.3977,-6.4162,-6.4326,-6.4463,-6.4688,-6.4779,-6.4764,-6.4841,-6.4991,-6.5088,-6.5201,-6.5321,-6.5341,-6.5446,-6.5552,-6.5552,-6.5674,-6.5747,-6.5747,-6.5774,-6.5827,-6.5872,-6.5872,-6.5872,-6.5878,-6.5878,-6.5878,-6.5878,-6.5955,-6.6763,-6.8186,-6.9306,-7.0228,-7.0659,-7.0852,-7.0843,-7.0843,-7.0824,-7.0796,-7.0758,-7.0748,-7.0737,-7.0718,-7.0669,-7.0639,-7.0597,-7.056,-7.052,-7.0572,-7.056,-7.0489,-7.0432,-7.0362,-7.0319,-7.0236,-7.0076,-6.9985,-6.9815,-6.9719,-6.9657,-6.957,-6.9592,-6.952,-6.9504,-6.9445,-6.9359,-6.9289,-6.9265,-6.9265,-6.916,-6.9097,-6.9097,-4.8324,-4.8343,-4.8838,-4.926,-4.9664,-5.0582,-5.1353,-5.1995,-5.2472,-5.2913,-5.3133,-5.3206,-5.3206,-5.3206,-5.3206,-5.3206,-5.3316,-5.4032,-5.4656,-5.5207,-5.6308,-5.7226,-5.7813,-5.7978,-5.7978,-5.7978,-5.7978,-5.7978,-5.7978,-5.7978,-5.8042,-5.8106,-5.8088,-5.8575,-5.9522,-6.0296,-6.1182,-6.217,-6.3084,-6.3647,-6.3823,-6.3977,-6.4083,-6.4265,-6.4424,-6.4615,-6.4815,-6.5023,-6.5128,-6.5084,-6.5113,-6.5186,-6.5275,-6.5397,-6.5474,-6.5471,-6.5605,-6.5674,-6.5701,-6.5793,-6.5865,-6.5846,-6.5872,-6.5897,-6.5878,-6.5878,-6.5878,-6.5878,-6.5878,-6.5878,-6.6032,-6.6494,-6.7359,-6.8398,-6.9917,-7.086,-7.0898,-7.0898,-7.0898,-7.0898,-7.0879,-7.086,-7.0843,-7.0787,-7.0787,-7.0787,-7.0806,-7.0777,-7.0748,-7.0735,-7.0762,-7.0743,-7.0716,-7.0652,-7.0584,-7.0551,-7.0515,-7.0438,-7.0372,-7.027,-7.0111,-6.9984,-6.9948,-6.9929,-6.991,-6.9873,-6.9797,-6.974,-6.9681,-6.9622,-6.9601,-6.9561,-6.946,-6.9438,-6.9419,-4.8324,-4.8324,-4.8324,-4.8746,-4.937,-4.9591,-5.0435,-5.1555,-5.1958,-5.2417,-5.2931,-5.3151,-5.3206,-5.3206,-5.3206,-5.3206,-5.3243,-5.3849,-5.4363,-5.506,-5.6106,-5.7226,-5.7905,-5.7978,-5.7978,-5.7978,-5.7978,-5.7978,-5.7978,-5.7997,-5.8088,-5.8152,-5.8197,-5.8637,-5.9379,-6.0211,-6.1252,-6.2171,-6.3003,-6.368,-6.4023,-6.4265,-6.4366,-6.4501,-6.4743,-6.4993,-6.5161,-6.5302,-6.5333,-6.5245,-6.5378,-6.5416,-6.5442,-6.5551,-6.5605,-6.5654,-6.5724,-6.5793,-6.582,-6.5846,-6.5897,-6.5897,-6.5897,-6.5878,-6.5878,-6.5878,-6.5878,-6.5878,-6.5878,-6.5878,-6.607,-6.7263,-6.8013,-6.8525,-6.986,-7.0648,-7.0879,-7.0898,-7.0898,-7.0898,-7.0898,-7.0898,-7.0898,-7.0898,-7.0898,-7.0843,-7.0862,-7.0862,-7.0815,-7.0806,-7.0815,-7.0767,-7.0748,-7.0736,-7.0719,-7.07,-7.0699,-7.0628,-7.0597,-7.0534,-7.0372,-7.0251,-7.0255,-7.0239,-7.0166,-7.0092,-7.0052,-6.998,-6.9946,-6.991,-6.9835,-6.9816,-6.9797,-6.9796,-6.9796,-4.8324,-4.8324,-4.8324,-4.8416,-4.8673,-4.9279,-4.9793,-5.0233,-5.1444,-5.2013,-5.238,-5.2894,-5.317,-5.3206,-5.3206,-5.3206,-5.3206,-5.3518,-5.4069,-5.5445,-5.629,-5.7226,-5.7831,-5.796,-5.7978,-5.7978,-5.7978,-5.7997,-5.7997,-5.8106,-5.8197,-5.8197,-5.8331,-5.8511,-5.8961,-5.9801,-6.0635,-6.1666,-6.2635,-6.3525,-6.4134,-6.4463,-6.467,-6.4817,-6.5061,-6.5226,-6.5333,-6.5425,-6.5513,-6.5522,-6.552,-6.5577,-6.5571,-6.5682,-6.5731,-6.5756,-6.582,-6.5872,-6.5872,-6.5897,-6.5878,-6.5878,-6.5878,-6.5878,-6.5878,-6.5878,-6.5878,-6.5878,-6.5878,-6.5878,-6.6013,-6.6763,-6.7667,-6.8429,-6.936,-7.0283,-7.0725,-7.0898,-7.0898,-7.0898,-7.0898,-7.0898,-7.0898,-7.0898,-7.0898,-7.0898,-7.0898,-7.0898,-7.0898,-7.0879,-7.0824,-7.0815,-7.0824,-7.0802,-7.0794,-7.0796,-7.0787,-7.0748,-7.0748,-7.0748,-7.0597,-7.0534,-7.0503,-7.0438,-7.0372,-7.0315,-7.0276,-7.0209,-7.0179,-7.0128,-7.013,-7.0147,-7.0128,-7.0111,-7.0111,-4.8324,-4.8324,-4.8324,-4.8324,-4.8379,-4.8783,-4.9205,-4.9682,-5.0435,-5.1298,-5.1958,-5.2491,-5.2839,-5.3206,-5.3206,-5.3206,-5.3206,-5.3225,-5.3849,-5.4987,-5.5849,-5.6657,-5.7428,-5.7813,-5.7978,-5.7978,-5.7978,-5.8042,-5.8106,-5.8197,-5.8223,-5.8356,-5.8443,-5.8651,-5.8911,-5.9644,-6.0441,-6.1216,-6.2426,-6.3388,-6.3936,-6.45,-6.492,-6.5076,-6.529,-6.5364,-6.5465,-6.5571,-6.5646,-6.5693,-6.5723,-6.5714,-6.5704,-6.5781,-6.584,-6.584,-6.5859,-6.5878,-6.5878,-6.5878,-6.5878,-6.5878,-6.5878,-6.5878,-6.5878,-6.5878,-6.5878,-6.5878,-6.5878,-6.5897,-6.5955,-6.6628,-6.7455,-6.8321,-6.9167,-6.9994,-7.0667,-7.0898,-7.0898,-7.0898,-7.0898,-7.0898,-7.0898,-7.0898,-7.0898,-7.0898,-7.0898,-7.0898,-7.0898,-7.0898,-7.0898,-7.0871,-7.0871,-7.0879,-7.0879,-7.0871,-7.0843,-7.0815,-7.0815,-7.0815,-7.0758,-7.0729,-7.0748,-7.0639,-7.0547,-7.0566,-7.0496,-7.0432,-7.0381,-7.0419,-7.0438,-7.0438,-7.0438,-7.0438,-7.0419,-4.8324,-4.8324,-4.8324,-4.8324,-4.8324,-4.8343,-4.871,-4.9315,-4.9554,-5.0527,-5.1646,-5.1903,-5.2527,-5.3078,-5.3206,-5.3206,-5.3206,-5.3261,-5.3757,-5.4546,-5.5115,-5.5996,-5.6804,-5.7428,-5.7877,-5.8006,-5.8042,-5.8106,-5.8197,-5.8268,-5.84,-5.8511,-5.8698,-5.8862,-5.9169,-5.9717,-6.0397,-6.0943,-6.1977,-6.3086,-6.366,-6.4336,-6.4843,-6.5333,-6.5425,-6.5513,-6.5618,-6.572,-6.5793,-6.5839,-6.5872,-6.5858,-6.5851,-6.5858,-6.5878,-6.5878,-6.5878,-6.5878,-6.5878,-6.5878,-6.5878,-6.5878,-6.5878,-6.5878,-6.5878,-6.5878,-6.5878,-6.5878,-6.5878,-6.5878,-6.5955,-6.6397,-6.7205,-6.8013,-6.8859,-6.9687,-7.0456,-7.0706,-7.0667,-7.0898,-7.0898,-7.0898,-7.0898,-7.0898,-7.0898,-7.0898,-7.0898,-7.0898,-7.0898,-7.0898,-7.0898,-7.0898,-7.0898,-7.0898,-7.0898,-7.0898,-7.0871,-7.0871,-7.0871,-7.0871,-7.0871,-7.0843,-7.0815,-7.0777,-7.0699,-7.0699,-7.068,-7.0593,-7.0612,-7.0699,-7.0678,-7.0597,-7.0628,-7.0708,-7.0688,-4.8324,-4.8324,-4.8324,-4.8324,-4.8324,-4.8324,-4.8416,-4.8636,-4.926,-5.0105,-5.1004,-5.1701,-5.238,-5.3004,-5.3206,-5.3206,-5.3206,-5.3261,-5.3592,-5.4216,-5.4675,-5.5372,-5.6591,-5.7095,-5.7563,-5.8023,-5.8197,-5.8242,-5.8286,-5.8443,-5.8614,-5.8739,-5.8942,-5.9139,-5.9272,-5.9571,-6.015,-6.0707,-6.1436,-6.2273,-6.3299,-6.4019,-6.4711,-6.5369,-6.5542,-6.5627,-6.572,-6.5793,-6.582,-6.5872,-6.5897,-6.5897,-6.5872,-6.5897,-6.5878,-6.5878,-6.5878,-6.5878,-6.5878,-6.5878,-6.5878,-6.5878,-6.5878,-6.5878,-6.5878,-6.5878,-6.5878,-6.5878,-6.5878,-6.5878,-6.5878,-6.6128,-6.6513,-6.7148,-6.7667,-6.8321,-6.9475,-6.9986,-7.0217,-7.0629,-7.0764,-7.0898,-7.0898,-7.0898,-7.0898,-7.0898,-7.0898,-7.0898,-7.0898,-7.0898,-7.0898,-7.0898,-7.0898,-7.0898,-7.0898,-7.0898,-7.0898,-7.0898,-7.0898,-7.0898,-7.0898,-7.0898,-7.0871,-7.0815,-7.0796,-7.0777,-7.0766,-7.0747,-7.0738,-7.0739,-7.0748,-7.0737,-7.0737,-7.0748,-7.0748,-4.8324,-4.8324,-4.8324,-4.8324,-4.8324,-4.8324,-4.8324,-4.8361,-4.8765,-4.9407,-5.0233,-5.1022,-5.183,-5.2527,-5.3078,-5.3206,-5.3206,-5.3206,-5.3445,-5.3812,-5.4252,-5.503,-5.6287,-5.6742,-5.7505,-5.8128,-5.8418,-5.8462,-5.8443,-5.8633,-5.8781,-5.8982,-5.9177,-5.9309,-5.9455,-5.9653,-5.998,-6.053,-6.1007,-6.1654,-6.273,-6.3531,-6.4671,-6.5388,-6.5674,-6.5747,-6.5827,-6.5846,-6.5872,-6.5897,-6.5878,-6.5878,-6.5878,-6.5878,-6.5878,-6.5878,-6.5878,-6.5878,-6.5878,-6.5878,-6.5878,-6.5878,-6.5878,-6.5878,-6.5878,-6.5878,-6.5878,-6.5878,-6.5878,-6.5878,-6.5878,-6.5878,-6.6282,-6.6878,-6.709,-6.7705,-6.8706,-6.9333,-6.9794,-7.0244,-7.0533,-7.0706,-7.0898,-7.0898,-7.0898,-7.0898,-7.0898,-7.0898,-7.0898,-7.0898,-7.0898,-7.0898,-7.0898,-7.0898,-7.0898,-7.0898,-7.0898,-7.0898,-7.0898,-7.0898,-7.0898,-7.0898,-7.0898,-7.0871,-7.0879,-7.086,-7.086,-7.0832,-7.0805,-7.0796,-7.0815,-7.0806,-7.0806,-7.0806,-7.071,-4.8324,-4.8324,-4.8324,-4.8324,-4.8324,-4.8324,-4.8324,-4.8324,-4.8343,-4.8838,-4.9609,-5.0288,-5.1114,-5.2013,-5.2766,-5.3206,-5.3206,-5.3206,-5.3243,-5.3371,-5.3836,-5.4632,-5.5546,-5.6461,-5.7223,-5.8042,-5.8596,-5.8716,-5.8698,-5.8821,-5.8982,-5.9177,-5.9309,-5.9491,-5.9685,-5.9853,-5.9963,-6.0266,-6.0727,-6.1304,-6.2204,-6.3502,-6.4857,-6.5697,-6.5793,-6.5846,-6.5897,-6.5897,-6.5878,-6.5878,-6.5878,-6.5878,-6.5878,-6.5878,-6.5878,-6.5878,-6.5878,-6.5878,-6.5878,-6.5878,-6.5878,-6.5878,-6.5878,-6.5878,-6.5878,-6.5878,-6.5878,-6.5878,-6.5878,-6.5878,-6.5878,-6.5878,-6.6186,-6.6571,-6.684,-6.7167,-6.7936,-6.8552,-6.8975,-6.9475,-7.009,-7.0475,-7.0648,-7.0898,-7.0898,-7.0898,-7.0898,-7.0898,-7.0898,-7.0898,-7.0898,-7.0898,-7.0898,-7.0898,-7.0898,-7.0898,-7.0898,-7.0898,-7.0898,-7.0898,-7.0898,-7.0898,-7.0898,-7.0898,-7.0898,-7.0879,-7.0898,-7.0879,-7.0852,-7.0852,-7.0898,-7.0871,-7.0871,-7.0593,-7.0324,-4.8324,-4.8324,-4.8324,-4.8324,-4.8324,-4.8324,-4.8324,-4.8324,-4.8324,-4.8802,-4.9481,-4.9774,-5.0618,-5.1885,-5.2784,-5.3151,-5.3206,-5.3206,-5.3206,-5.3243,-5.3474,-5.4018,-5.4759,-5.5761,-5.6751,-5.7691,-5.8464,-5.8762,-5.8821,-5.9081,-5.9215,-5.9383,-5.9631,-5.9853,-5.9885,-6.0026,-6.0148,-6.0332,-6.0495,-6.1305,-6.2678,-6.3859,-6.4788,-6.5512,-6.5827,-6.5897,-6.5897,-6.5878,-6.5878,-6.5878,-6.5878,-6.5878,-6.5878,-6.5878,-6.5878,-6.5878,-6.5878,-6.5878,-6.5878,-6.5878,-6.5878,-6.5878,-6.5878,-6.5878,-6.5878,-6.5878,-6.5878,-6.5878,-6.5878,-6.5878,-6.5878,-6.5878,-6.5974,-6.6051,-6.6224,-6.6551,-6.7167,-6.7763,-6.8186,-6.8532,-6.9071,-6.984,-7.0341,-7.0648,-7.0898,-7.0898,-7.0898,-7.0879,-7.0898,-7.0898,-7.0898,-7.0898,-7.0898,-7.0898,-7.0898,-7.0898,-7.0898,-7.0898,-7.0898,-7.0898,-7.0898,-7.0898,-7.0898,-7.0898,-7.0898,-7.0783,-7.0648,-7.0667,-7.0821,-7.0764,-7.0591,-7.0706,-7.0898,-7.0494,-6.984,-4.8324,-4.8324,-4.8324,-4.8324,-4.8324,-4.8324,-4.8324,-4.8324,-4.8324,-4.8508,-4.8912,-4.9426,-5.0472,-5.1811,-5.2417,-5.2784,-5.3115,-5.3206,-5.323,-5.3254,-5.335,-5.3783,-5.4648,-5.5288,-5.6134,-5.7407,-5.8142,-5.8727,-5.8914,-5.9215,-5.9364,-5.9631,-5.982,-6.0001,-6.0095,-6.0226,-6.0332,-6.0444,-6.0602,-6.1217,-6.2362,-6.3335,-6.4232,-6.5096,-6.5609,-6.582,-6.5878,-6.5878,-6.5878,-6.5878,-6.5878,-6.5878,-6.5878,-6.5878,-6.5878,-6.5878,-6.5878,-6.5878,-6.5878,-6.5878,-6.5878,-6.5878,-6.5878,-6.5878,-6.5878,-6.5878,-6.5878,-6.5878,-6.5878,-6.5878,-6.5878,-6.5878,-6.5878,-6.5878,-6.5878,-6.6051,-6.6474,-6.6942,-6.7423,-6.7731,-6.8097,-6.8802,-6.9475,-6.9783,-7.0148,-7.0552,-7.061,-7.0648,-7.0764,-7.0898,-7.0898,-7.0898,-7.0898,-7.0898,-7.0898,-7.0898,-7.0898,-7.0898,-7.0898,-7.0898,-7.0898,-7.0898,-7.0744,-7.0783,-7.0821,-7.0667,-7.0398,-7.0475,-7.0629,-7.0437,-7.0206,-7.011,-6.9975,-6.9494,-6.8936,-4.8324,-4.8324,-4.8324,-4.8324,-4.8324,-4.8324,-4.8324,-4.8324,-4.8324,-4.8324,-4.8545,-4.9205,-5.038,-5.1518,-5.1958,-5.2491,-5.3188,-5.3206,-5.3254,-5.3277,-5.3474,-5.3872,-5.4454,-5.4964,-5.5918,-5.7452,-5.7941,-5.8632,-5.9267,-5.9491,-5.9613,-5.9885,-6.0001,-6.0144,-6.0294,-6.0389,-6.0472,-6.0578,-6.066,-6.1209,-6.2016,-6.268,-6.3565,-6.4455,-6.5186,-6.5667,-6.5859,-6.5878,-6.5878,-6.5878,-6.5878,-6.5878,-6.5878,-6.5878,-6.5878,-6.5878,-6.5878,-6.5878,-6.5878,-6.5878,-6.5878,-6.5878,-6.5878,-6.5878,-6.5878,-6.5878,-6.5878,-6.5878,-6.5878,-6.5878,-6.5878,-6.5878,-6.5878,-6.5878,-6.5878,-6.5878,-6.5955,-6.6442,-6.6673,-6.6827,-6.7173,-6.7597,-6.8186,-6.8667,-6.9263,-7.0014,-7.0283,-7.0341,-7.036,-7.0398,-7.0417,-7.0321,-7.0437,-7.0533,-7.0821,-7.0841,-7.086,-7.0764,-7.0744,-7.0648,-7.0494,-7.0379,-7.0244,-7.036,-7.0437,-6.9994,-6.9398,-6.9917,-7.036,-6.9802,-6.9302,-6.9071,-6.8802,-6.8359,-6.7917,-4.8324,-4.8324,-4.8324,-4.8324,-4.8324,-4.8324,-4.8324,-4.8324,-4.8324,-4.8324,-4.8416,-4.9169,-4.9976,-5.0875,-5.161,-5.2307,-5.3151,-5.3235,-5.3318,-5.3418,-5.3576,-5.3769,-5.4221,-5.4838,-5.5697,-5.6872,-5.7616,-5.8619,-5.9578,-5.9796,-5.9847,-5.9937,-6.0125,-6.0294,-6.0408,-6.0472,-6.0578,-6.068,-6.0734,-6.1142,-6.1762,-6.23,-6.2974,-6.4128,-6.4647,-6.5032,-6.5801,-6.5859,-6.5878,-6.5878,-6.5878,-6.5878,-6.5878,-6.5878,-6.5878,-6.5878,-6.5878,-6.5878,-6.5878,-6.5878,-6.5878,-6.5878,-6.5878,-6.5878,-6.5878,-6.5878,-6.5878,-6.5878,-6.5878,-6.5878,-6.5878,-6.5878,-6.5878,-6.5878,-6.5878,-6.5878,-6.5878,-6.5917,-6.6109,-6.6013,-6.6282,-6.6827,-6.7039,-6.7513,-6.8359,-6.9129,-6.9302,-6.936,-6.9179,-6.9217,-6.941,-6.9487,-6.9679,-6.9986,-7.061,-7.0591,-7.0206,-7.0148,-7.0167,-6.9994,-6.9802,-6.9706,-6.959,-6.934,-6.9244,-6.8814,-6.8544,-6.8936,-6.9071,-6.8725,-6.8398,-6.8186,-6.7878,-6.7494,-6.6974,-4.8324,-4.8324,-4.8324,-4.8324,-4.8324,-4.8324,-4.8324,-4.8324,-4.8324,-4.8324,-4.8324,-4.8691,-4.926,-5.0086,-5.0894,-5.1724,-5.2518,-5.3111,-5.3345,-5.3558,-5.3716,-5.3831,-5.4112,-5.4502,-5.5221,-5.624,-5.7186,-5.8145,-5.9058,-5.9714,-6.0159,-6.0275,-6.0304,-6.0389,-6.0472,-6.0578,-6.068,-6.0729,-6.0757,-6.1031,-6.1262,-6.1877,-6.2416,-6.2935,-6.432,-6.4647,-6.5128,-6.5628,-6.5801,-6.5878,-6.5878,-6.5878,-6.5878,-6.5878,-6.5878,-6.5878,-6.5878,-6.5878,-6.5878,-6.5878,-6.5878,-6.5878,-6.5878,-6.5878,-6.5878,-6.5878,-6.5878,-6.5878,-6.5878,-6.5878,-6.5878,-6.5878,-6.5878,-6.5878,-6.5878,-6.5878,-6.5878,-6.5878,-6.5897,-6.5936,-6.5955,-6.6167,-6.6263,-6.6378,-6.7321,-6.8205,-6.8302,-6.834,-6.8179,-6.816,-6.8391,-6.8648,-6.884,-6.9025,-6.961,-6.9571,-6.9436,-6.9513,-6.9552,-6.9283,-6.9033,-6.8936,-6.8763,-6.8429,-6.816,-6.8013,-6.7917,-6.7962,-6.7866,-6.7686,-6.7513,-6.734,-6.6994,-6.6686,-6.634,-4.8324,-4.8324,-4.8324,-4.8324,-4.8324,-4.8324,-4.8324,-4.8324,-4.8324,-4.8324,-4.8324,-4.8343,-4.8783,-4.9572,-5.0181,-5.1158,-5.2048,-5.2736,-5.3281,-5.3584,-5.3831,-5.3982,-5.4147,-5.4458,-5.5025,-5.5829,-5.6601,-5.7582,-5.8938,-5.9683,-6.0083,-6.033,-6.0453,-6.0525,-6.0578,-6.068,-6.0734,-6.0781,-6.08,-6.08,-6.0935,-6.132,-6.1935,-6.2185,-6.3243,-6.4089,-6.4589,-6.5166,-6.559,-6.5763,-6.5878,-6.5878,-6.5878,-6.5878,-6.5878,-6.5878,-6.5878,-6.5878,-6.5878,-6.5878,-6.5878,-6.5878,-6.5878,-6.5878,-6.5878,-6.5878,-6.5878,-6.5878,-6.5878,-6.5878,-6.5878,-6.5878,-6.5878,-6.5878,-6.5878,-6.5878,-6.5878,-6.5878,-6.5878,-6.5897,-6.5917,-6.5917,-6.5974,-6.607,-6.6436,-6.7128,-6.7109,-6.7186,-6.7205,-6.7263,-6.7494,-6.777,-6.7981,-6.8186,-6.8417,-6.8629,-6.884,-6.8898,-6.8859,-6.8456,-6.8244,-6.8109,-6.7782,-6.7321,-6.7148,-6.7225,-6.7148,-6.7019,-6.6878,-6.6763,-6.6667,-6.6647,-6.6494,-6.6244,-6.6147,-4.8324,-4.8324,-4.8324,-4.8324,-4.8324,-4.8324,-4.8324,-4.8324,-4.8324,-4.8324,-4.8324,-4.8324,-4.871,-4.941,-4.9781,-5.0593,-5.1667,-5.2283,-5.2919,-5.3515,-5.3926,-5.4127,-5.4308,-5.4597,-5.4971,-5.5875,-5.6491,-5.7425,-5.8814,-5.9251,-5.9752,-6.031,-6.0514,-6.066,-6.0704,-6.0777,-6.08,-6.08,-6.08,-6.08,-6.0819,-6.0954,-6.1377,-6.182,-6.232,-6.3166,-6.4147,-6.4686,-6.5186,-6.5782,-6.5878,-6.5878,-6.5878,-6.5878,-6.5878,-6.5878,-6.5878,-6.5878,-6.5878,-6.5878,-6.5878,-6.5878,-6.5878,-6.5878,-6.5878,-6.5878,-6.5878,-6.5878,-6.5878,-6.5878,-6.5878,-6.5878,-6.5878,-6.5878,-6.5878,-6.5878,-6.5878,-6.5878,-6.5878,-6.5878,-6.5878,-6.5897,-6.5897,-6.5897,-6.5917,-6.607,-6.5955,-6.6051,-6.6301,-6.6474,-6.6788,-6.6923,-6.7154,-6.7308,-6.7552,-6.8013,-6.8244,-6.8302,-6.8071,-6.759,-6.734,-6.7205,-6.6782,-6.6263,-6.6301,-6.6551,-6.6301,-6.5994,-6.6128,-6.6301,-6.6128,-6.6051,-6.5917,-6.5878,-6.5878,-4.8324,-4.8324,-4.8324,-4.8324,-4.8324,-4.8324,-4.8324,-4.8324,-4.8324,-4.8324,-4.8324,-4.8324,-4.8473,-4.8954,-4.9489,-5.0099,-5.0805,-5.2251,-5.2902,-5.3107,-5.3773,-5.4249,-5.4446,-5.4689,-5.4982,-5.5483,-5.6063,-5.6683,-5.7449,-5.8515,-5.9319,-5.9835,-6.0517,-6.0738,-6.0777,-6.08,-6.08,-6.08,-6.08,-6.08,-6.08,-6.08,-6.0954,-6.132,-6.1762,-6.2589,-6.3685,-6.4128,-6.4916,-6.5667,-6.5801,-6.5878,-6.5878,-6.5878,-6.5878,-6.5878,-6.5878,-6.5878,-6.5878,-6.5878,-6.5878,-6.5878,-6.5878,-6.5878,-6.5878,-6.5878,-6.5878,-6.5878,-6.5878,-6.5878,-6.5878,-6.5878,-6.5878,-6.5878,-6.5878,-6.5878,-6.5878,-6.5878,-6.5878,-6.5878,-6.5878,-6.5878,-6.5878,-6.5878,-6.5878,-6.5878,-6.5878,-6.5878,-6.607,-6.6051,-6.6205,-6.6205,-6.632,-6.6436,-6.6686,-6.7109,-6.7186,-6.709,-6.6878,-6.6513,-6.634,-6.6436,-6.6301,-6.6051,-6.5955,-6.5878,-6.5878,-6.5878,-6.5878,-6.5897,-6.5878,-6.5878,-6.5878,-6.5878,-6.5878,-4.8324,-4.8324,-4.8324,-4.8324,-4.8324,-4.8324,-4.8324,-4.8324,-4.8324,-4.8324,-4.8324,-4.8363,-4.8419,-4.8678,-4.9085,-4.9732,-5.0137,-5.1156,-5.2565,-5.2765,-5.3537,-5.41,-5.4514,-5.478,-5.5004,-5.5294,-5.574,-5.637,-5.6975,-5.8275,-5.9283,-6.0022,-6.0469,-6.0723,-6.08,-6.08,-6.08,-6.08,-6.08,-6.08,-6.08,-6.08,-6.08,-6.0993,-6.1377,-6.205,-6.2878,-6.3705,-6.4551,-6.5224,-6.5686,-6.584,-6.5878,-6.5878,-6.5878,-6.5878,-6.5878,-6.5878,-6.5878,-6.5878,-6.5878,-6.5878,-6.5878,-6.5878,-6.5878,-6.5878,-6.5878,-6.5878,-6.5878,-6.5878,-6.5878,-6.5878,-6.5878,-6.5878,-6.5878,-6.5878,-6.5878,-6.5878,-6.5878,-6.5878,-6.5878,-6.5878,-6.5878,-6.5878,-6.5878,-6.5878,-6.5878,-6.5878,-6.5878,-6.5878,-6.5878,-6.5917,-6.5936,-6.609,-6.6147,-6.6186,-6.6167,-6.5936,-6.5897,-6.5917,-6.5936,-6.6128,-6.5974,-6.5878,-6.5878,-6.5878,-6.5878,-6.5878,-6.5878,-6.5878,-6.5878,-6.5878,-6.5878,-6.5878,-6.5878,-4.8324,-4.8324,-4.8324,-4.8324,-4.8324,-4.8324,-4.8324,-4.8324,-4.8324,-4.8324,-4.8306,-4.8457,-4.8494,-4.855,-4.877,-4.9249,-4.9984,-5.0371,-5.1417,-5.254,-5.316,-5.388,-5.4484,-5.4905,-5.5113,-5.5248,-5.5547,-5.6064,-5.6863,-5.7962,-5.9177,-6.0238,-6.0627,-6.0762,-6.08,-6.08,-6.08,-6.08,-6.08,-6.08,-6.08,-6.08,-6.08,-6.0877,-6.1031,-6.1512,-6.2224,-6.2954,-6.3782,-6.457,-6.534,-6.5686,-6.5859,-6.5878,-6.5878,-6.5878,-6.5878,-6.5878,-6.5878,-6.5878,-6.5878,-6.5878,-6.5878,-6.5878,-6.5878,-6.5878,-6.5878,-6.5878,-6.5878,-6.5878,-6.5878,-6.5878,-6.5878,-6.5878,-6.5878,-6.5878,-6.5878,-6.5878,-6.5878,-6.5878,-6.5878,-6.5878,-6.5878,-6.5878,-6.5878,-6.5878,-6.5878,-6.5878,-6.5878,-6.5878,-6.5878,-6.5878,-6.5897,-6.5897,-6.5878,-6.5878,-6.5878,-6.5878,-6.5878,-6.5897,-6.5878,-6.5878,-6.5878,-6.5878,-6.5878,-6.5878,-6.5878,-6.5878,-6.5878,-6.5878,-6.5878,-6.5878,-6.5878,-6.5878,-6.5878,-4.8324,-4.8324,-4.8324,-4.8324,-4.8324,-4.8324,-4.8324,-4.8324,-4.8324,-4.8363,-4.8475,-4.8457,-4.8569,-4.8715,-4.8822,-4.9113,-4.9601,-5.0146,-5.0745,-5.1657,-5.268,-5.3456,-5.4162,-5.4743,-5.5102,-5.5326,-5.5504,-5.5734,-5.6291,-5.7367,-5.8662,-5.9723,-6.0416,-6.0646,-6.0762,-6.08,-6.08,-6.08,-6.08,-6.08,-6.08,-6.08,-6.08,-6.08,-6.08,-6.1262,-6.1897,-6.23,-6.3166,-6.4397,-6.4782,-6.5166,-6.5878,-6.5878,-6.5878,-6.5878,-6.5878,-6.5878,-6.5878,-6.5878,-6.5878,-6.5878,-6.5878,-6.5878,-6.5878,-6.5878,-6.5878,-6.5878,-6.5878,-6.5878,-6.5878,-6.5878,-6.5878,-6.5878,-6.5878,-6.5878,-6.5878,-6.5878,-6.5878,-6.5878,-6.5878,-6.5878,-6.5878,-6.5878,-6.5878,-6.5878,-6.5878,-6.5878,-6.5878,-6.5878,-6.5878,-6.5878,-6.5878,-6.5878,-6.5878,-6.5878,-6.5878,-6.5878,-6.5878,-6.5878,-6.5878,-6.5878,-6.5878,-6.5878,-6.5878,-6.5878,-6.5878,-6.5878,-6.5878,-6.5878,-6.5878,-6.5878,-6.5878,-6.5878,-6.5878,-4.8031,-4.8288,-4.8324,-4.8324,-4.8324,-4.8324,-4.8306,-4.8363,-4.8363,-4.8419,-4.8513,-4.8587,-4.8715,-4.8822,-4.8927,-4.9101,-4.9305,-4.9789,-5.0416,-5.1307,-5.2124,-5.3006,-5.3783,-5.4485,-5.4981,-5.5274,-5.5535,-5.5662,-5.6025,-5.6989,-5.8261,-5.9531,-6.0127,-6.0454,-6.0685,-6.08,-6.08,-6.08,-6.08,-6.08,-6.08,-6.08,-6.08,-6.08,-6.08,-6.1166,-6.157,-6.18,-6.282,-6.3993,-6.4262,-6.5013,-6.5705,-6.5878,-6.5878,-6.5878,-6.5878,-6.5878,-6.5878,-6.5878,-6.5878,-6.5878,-6.5878,-6.5878,-6.5878,-6.5878,-6.5878,-6.5878,-6.5878,-6.5878,-6.5878,-6.5878,-6.5878,-6.5878,-6.5878,-6.5878,-6.5878,-6.5878,-6.5878,-6.5878,-6.5878,-6.5878,-6.5878,-6.5878,-6.5878,-6.5878,-6.5878,-6.5878,-6.5878,-6.5878,-6.5878,-6.5878,-6.5878,-6.5878,-6.5878,-6.5878,-6.5878,-6.5878,-6.5878,-6.5878,-6.5878,-6.5878,-6.5878,-6.5878,-6.5878,-6.5878,-6.5878,-6.5878,-6.5878,-6.5878,-6.5878,-6.5878,-6.5878,-6.5878,-6.5878,-4.7535,-4.8214,-4.8288,-4.8306,-4.8306,-4.8324,-4.8401,-4.8494,-4.8532,-4.855,-4.8587,-4.8715,-4.8839,-4.8962,-4.9064,-4.9211,-4.9371,-4.9664,-5.0116,-5.1035,-5.1413,-5.2251,-5.3225,-5.4116,-5.4683,-5.524,-5.5583,-5.5665,-5.5934,-5.6742,-5.7915,-5.9281,-5.9569,-5.9896,-6.0396,-6.0723,-6.0781,-6.08,-6.08,-6.08,-6.08,-6.08,-6.08,-6.08,-6.08,-6.0877,-6.105,-6.157,-6.2377,-6.3185,-6.3993,-6.4801,-6.557,-6.5878,-6.5878,-6.5878,-6.5878,-6.5878,-6.5878,-6.5878,-6.5878,-6.5878,-6.5878,-6.5878,-6.5878,-6.5878,-6.5878,-6.5878,-6.5878,-6.5878,-6.5878,-6.5878,-6.5878,-6.5878,-6.5878,-6.5878,-6.5878,-6.5878,-6.5878,-6.5878,-6.5878,-6.5878,-6.5878,-6.5878,-6.5878,-6.5878,-6.5878,-6.5878,-6.5878,-6.5878,-6.5878,-6.5878,-6.5878,-6.5878,-6.5878,-6.5878,-6.5878,-6.5878,-6.5878,-6.5878,-6.5878,-6.5878,-6.5878,-6.5878,-6.5878,-6.5878,-6.5878,-6.5878,-6.5878,-6.5878,-6.5878,-6.5878,-6.5878,-6.5878,-6.5878,-4.7223,-4.7462,-4.8049,-4.8363,-4.8457,-4.8457,-4.8513,-4.8569,-4.8679,-4.8733,-4.8751,-4.8839,-4.8962,-4.9064,-4.9244,-4.9352,-4.9446,-4.9655,-4.9929,-5.051,-5.0957,-5.158,-5.2542,-5.3618,-5.433,-5.4806,-5.5198,-5.5684,-5.5857,-5.653,-5.7126,-5.7761,-5.8531,-5.9473,-5.9954,-6.0339,-6.0666,-6.0762,-6.08,-6.08,-6.08,-6.08,-6.08,-6.08,-6.08,-6.08,-6.0896,-6.0993,-6.1647,-6.2339,-6.3166,-6.4339,-6.5743,-6.584,-6.5878,-6.5878,-6.5878,-6.5878,-6.5878,-6.5878,-6.5878,-6.5878,-6.5878,-6.5878,-6.5878,-6.5878,-6.5878,-6.5878,-6.5878,-6.5878,-6.5878,-6.5878,-6.5878,-6.5878,-6.5878,-6.5878,-6.5878,-6.5878,-6.5878,-6.5878,-6.5878,-6.5878,-6.5878,-6.5878,-6.5878,-6.5878,-6.5878,-6.5878,-6.5878,-6.5878,-6.5878,-6.5878,-6.5878,-6.5878,-6.5878,-6.5878,-6.5878,-6.5878,-6.5878,-6.5878,-6.5878,-6.5878,-6.5878,-6.5878,-6.5878,-6.5878,-6.5878,-6.5878,-6.5878,-6.5878,-6.5878,-6.5878,-6.5878,-6.5878,-6.5878,-4.6471,-4.7186,-4.8014,-4.8438,-4.8532,-4.855,-4.8605,-4.8714,-4.8804,-4.8892,-4.8962,-4.8996,-4.9064,-4.9197,-4.9352,-4.9537,-4.9625,-4.9797,-4.9997,-5.0361,-5.0683,-5.1204,-5.212,-5.3107,-5.3923,-5.4487,-5.5239,-5.5722,-5.5799,-5.6069,-5.653,-5.7011,-5.8107,-5.8781,-5.93,-6.0012,-6.0454,-6.0762,-6.0762,-6.08,-6.08,-6.08,-6.08,-6.08,-6.08,-6.08,-6.08,-6.0839,-6.132,-6.2243,-6.3301,-6.4122,-6.5243,-6.5647,-6.5859,-6.5878,-6.5878,-6.5878,-6.5878,-6.5878,-6.5878,-6.5878,-6.5878,-6.5878,-6.5878,-6.5878,-6.5878,-6.5878,-6.5878,-6.5878,-6.5878,-6.5878,-6.5878,-6.5878,-6.5878,-6.5878,-6.5878,-6.5878,-6.5878,-6.5878,-6.5878,-6.5878,-6.5878,-6.5878,-6.5878,-6.5878,-6.5878,-6.5878,-6.5878,-6.5878,-6.5878,-6.5878,-6.5878,-6.5878,-6.5878,-6.5878,-6.5878,-6.5878,-6.5878,-6.5878,-6.5878,-6.5878,-6.5878,-6.5878,-6.5878,-6.5878,-6.5878,-6.5878,-6.5878,-6.5878,-6.5878,-6.5878,-6.5878,-6.5878,-6.5878,-4.5681,-4.7169,-4.7997,-4.8458,-4.8623,-4.8623,-4.875,-4.8925,-4.8943,-4.9027,-4.9211,-4.9183,-4.9262,-4.9352,-4.9476,-4.9683,-4.9852,-4.9959,-5.0133,-5.0231,-5.0382,-5.0856,-5.1595,-5.2504,-5.3449,-5.4451,-5.5299,-5.5568,-5.5722,-5.5915,-5.6203,-5.6761,-5.7223,-5.7703,-5.88,-5.9531,-5.9877,-6.0377,-6.0589,-6.0762,-6.08,-6.08,-6.08,-6.08,-6.08,-6.08,-6.08,-6.0916,-6.13,-6.2108,-6.3243,-6.4141,-6.4872,-6.5474,-6.5782,-6.5878,-6.5878,-6.5878,-6.5878,-6.5878,-6.5878,-6.5878,-6.5878,-6.5878,-6.5878,-6.5878,-6.5878,-6.5878,-6.5878,-6.5878,-6.5878,-6.5878,-6.5878,-6.5878,-6.5878,-6.5878,-6.5878,-6.5878,-6.5878,-6.5878,-6.5878,-6.5878,-6.5878,-6.5878,-6.5878,-6.5878,-6.5878,-6.5878,-6.5878,-6.5878,-6.5878,-6.5878,-6.5878,-6.5878,-6.5878,-6.5878,-6.5878,-6.5878,-6.5878,-6.5878,-6.5878,-6.5878,-6.5878,-6.5878,-6.5878,-6.5878,-6.5878,-6.5878,-6.5878,-6.5878,-6.5878,-6.5878,-6.5878,-6.5878,-6.5878,-4.577,-4.7369,-4.7535,-4.8068,-4.8765,-4.8874,-4.8978,-4.9113,-4.9211,-4.9289,-4.9352,-4.9464,-4.9514,-4.9415,-4.9712,-4.9898,-4.9978,-5.0108,-5.0207,-5.0302,-5.0457,-5.0656,-5.1102,-5.2008,-5.3086,-5.4203,-5.5184,-5.5588,-5.5684,-5.5703,-5.5761,-5.603,-5.678,-5.7203,-5.753,-5.8396,-5.9435,-5.9915,-6.0435,-6.0685,-6.0781,-6.08,-6.08,-6.08,-6.08,-6.08,-6.08,-6.08,-6.0877,-6.1473,-6.2613,-6.3743,-6.4589,-6.5301,-6.5763,-6.5878,-6.5878,-6.5878,-6.5878,-6.5878,-6.5878,-6.5878,-6.5878,-6.5878,-6.5878,-6.5878,-6.5878,-6.5878,-6.5878,-6.5878,-6.5878,-6.5878,-6.5878,-6.5878,-6.5878,-6.5878,-6.5878,-6.5878,-6.5878,-6.5878,-6.5878,-6.5878,-6.5878,-6.5878,-6.5878,-6.5878,-6.5878,-6.5878,-6.5878,-6.5878,-6.5878,-6.5878,-6.5878,-6.5878,-6.5878,-6.5878,-6.5878,-6.5878,-6.5878,-6.5878,-6.5878,-6.5878,-6.5878,-6.5878,-6.5878,-6.5878,-6.5878,-6.5878,-6.5878,-6.5878,-6.5878,-6.5878,-6.5878,-6.5878,-6.5878]}]]